<?xml version="1.0" encoding="UTF-8" standalone="no" ?>
<gpx xmlns="http://www.topografix.com/GPX/1/1" xmlns:xsi="http://www.w3.org/2001/XMLSchema-instance" xsi:schemaLocation="http://www.topografix.com/GPX/1/1 http://www.topografix.com/GPX/1/1/gpx.xsd" version="1.1" creator="VisuGPX - https://www.visugpx.com">
  <metadata>
    <name>L Aulp Du Seuil</name>
    <desc><![CDATA[grp_trc:[nouvelles]]]></desc>
  </metadata>
  <trk>
    <name><![CDATA[15 juil. 2021 à 08:05:16]]></name>
    <cmt><![CDATA[15 juil. 2021 à 08:05:16]]></cmt>
    <trkseg>
      <trkpt lat="45.12348" lon="6.59983">
        <ele>2502</ele>
        <time>2021-07-15T06:05:23Z</time>
      </trkpt>
      <trkpt lat="45.12346" lon="6.59989">
        <ele>2501</ele>
        <time>2021-07-15T06:05:32Z</time>
      </trkpt>
      <trkpt lat="45.12354" lon="6.59961">
        <ele>2501</ele>
        <time>2021-07-15T06:05:48Z</time>
      </trkpt>
      <trkpt lat="45.12338" lon="6.59894">
        <ele>2501</ele>
        <time>2021-07-15T06:06:26Z</time>
      </trkpt>
      <trkpt lat="45.12339" lon="6.59849">
        <ele>2501</ele>
        <time>2021-07-15T06:06:43Z</time>
      </trkpt>
      <trkpt lat="45.12376" lon="6.59749">
        <ele>2501</ele>
        <time>2021-07-15T06:07:13Z</time>
      </trkpt>
      <trkpt lat="45.12437" lon="6.59574">
        <ele>2501</ele>
        <time>2021-07-15T06:07:38Z</time>
      </trkpt>
      <trkpt lat="45.12439" lon="6.5952">
        <ele>2502</ele>
        <time>2021-07-15T06:07:45Z</time>
      </trkpt>
      <trkpt lat="45.12432" lon="6.59394">
        <ele>2501</ele>
        <time>2021-07-15T06:08:02Z</time>
      </trkpt>
      <trkpt lat="45.12453" lon="6.59263">
        <ele>2503</ele>
        <time>2021-07-15T06:08:26Z</time>
      </trkpt>
      <trkpt lat="45.12492" lon="6.59296">
        <ele>2503</ele>
        <time>2021-07-15T06:09:25Z</time>
      </trkpt>
      <trkpt lat="45.1251" lon="6.5933">
        <ele>2502</ele>
        <time>2021-07-15T06:09:31Z</time>
      </trkpt>
      <trkpt lat="45.12542" lon="6.59418">
        <ele>2503</ele>
        <time>2021-07-15T06:09:40Z</time>
      </trkpt>
      <trkpt lat="45.1254" lon="6.5947">
        <ele>2503</ele>
        <time>2021-07-15T06:09:47Z</time>
      </trkpt>
      <trkpt lat="45.12506" lon="6.59528">
        <ele>2506</ele>
        <time>2021-07-15T06:09:57Z</time>
      </trkpt>
      <trkpt lat="45.12499" lon="6.59594">
        <ele>2503</ele>
        <time>2021-07-15T06:10:00Z</time>
      </trkpt>
      <trkpt lat="45.12497" lon="6.59637">
        <ele>2502</ele>
        <time>2021-07-15T06:10:02Z</time>
      </trkpt>
      <trkpt lat="45.12486" lon="6.59668">
        <ele>2504</ele>
        <time>2021-07-15T06:10:05Z</time>
      </trkpt>
      <trkpt lat="45.12482" lon="6.59708">
        <ele>2505</ele>
        <time>2021-07-15T06:10:10Z</time>
      </trkpt>
      <trkpt lat="45.12432" lon="6.59795">
        <ele>2506</ele>
        <time>2021-07-15T06:10:22Z</time>
      </trkpt>
      <trkpt lat="45.12403" lon="6.59793">
        <ele>2508</ele>
        <time>2021-07-15T06:10:26Z</time>
      </trkpt>
      <trkpt lat="45.12354" lon="6.59797">
        <ele>2509</ele>
        <time>2021-07-15T06:10:34Z</time>
      </trkpt>
      <trkpt lat="45.12355" lon="6.5982">
        <ele>2512</ele>
        <time>2021-07-15T06:10:51Z</time>
      </trkpt>
      <trkpt lat="45.12379" lon="6.59802">
        <ele>2512</ele>
        <time>2021-07-15T06:13:45Z</time>
      </trkpt>
      <trkpt lat="45.12395" lon="6.59799">
        <ele>2511</ele>
        <time>2021-07-15T06:15:42Z</time>
      </trkpt>
      <trkpt lat="45.12406" lon="6.59798">
        <ele>2510</ele>
        <time>2021-07-15T06:17:47Z</time>
      </trkpt>
      <trkpt lat="45.12417" lon="6.59799">
        <ele>2509</ele>
        <time>2021-07-15T06:18:01Z</time>
      </trkpt>
      <trkpt lat="45.12424" lon="6.59803">
        <ele>2509</ele>
        <time>2021-07-15T06:18:56Z</time>
      </trkpt>
      <trkpt lat="45.12433" lon="6.59799">
        <ele>2509</ele>
        <time>2021-07-15T06:19:27Z</time>
      </trkpt>
      <trkpt lat="45.1244" lon="6.59799">
        <ele>2509</ele>
        <time>2021-07-15T06:19:51Z</time>
      </trkpt>
      <trkpt lat="45.12444" lon="6.59804">
        <ele>2509</ele>
        <time>2021-07-15T06:20:57Z</time>
      </trkpt>
      <trkpt lat="45.12443" lon="6.59805">
        <ele>2508</ele>
        <time>2021-07-15T06:23:56Z</time>
      </trkpt>
      <trkpt lat="45.12444" lon="6.59807">
        <ele>2508</ele>
        <time>2021-07-15T06:26:43Z</time>
      </trkpt>
      <trkpt lat="45.12437" lon="6.59808">
        <ele>2507</ele>
        <time>2021-07-15T06:29:18Z</time>
      </trkpt>
      <trkpt lat="45.12442" lon="6.59814">
        <ele>2508</ele>
        <time>2021-07-15T06:30:50Z</time>
      </trkpt>
      <trkpt lat="45.12441" lon="6.59828">
        <ele>2508</ele>
        <time>2021-07-15T06:31:43Z</time>
      </trkpt>
      <trkpt lat="45.12423" lon="6.59846">
        <ele>2510</ele>
        <time>2021-07-15T06:32:07Z</time>
      </trkpt>
      <trkpt lat="45.12415" lon="6.59849">
        <ele>2511</ele>
        <time>2021-07-15T06:32:13Z</time>
      </trkpt>
      <trkpt lat="45.12408" lon="6.59855">
        <ele>2512</ele>
        <time>2021-07-15T06:32:21Z</time>
      </trkpt>
      <trkpt lat="45.12392" lon="6.59861">
        <ele>2513</ele>
        <time>2021-07-15T06:32:35Z</time>
      </trkpt>
      <trkpt lat="45.12378" lon="6.59875">
        <ele>2515</ele>
        <time>2021-07-15T06:32:47Z</time>
      </trkpt>
      <trkpt lat="45.12364" lon="6.59882">
        <ele>2516</ele>
        <time>2021-07-15T06:32:58Z</time>
      </trkpt>
      <trkpt lat="45.12358" lon="6.59894">
        <ele>2516</ele>
        <time>2021-07-15T06:33:05Z</time>
      </trkpt>
      <trkpt lat="45.12352" lon="6.599">
        <ele>2516</ele>
        <time>2021-07-15T06:33:13Z</time>
      </trkpt>
      <trkpt lat="45.12346" lon="6.59896">
        <ele>2515</ele>
        <time>2021-07-15T06:33:21Z</time>
      </trkpt>
      <trkpt lat="45.12339" lon="6.59897">
        <ele>2514</ele>
        <time>2021-07-15T06:33:26Z</time>
      </trkpt>
      <trkpt lat="45.12332" lon="6.599">
        <ele>2511</ele>
        <time>2021-07-15T06:33:34Z</time>
      </trkpt>
      <trkpt lat="45.12327" lon="6.59901">
        <ele>2512</ele>
        <time>2021-07-15T06:33:40Z</time>
      </trkpt>
      <trkpt lat="45.1232" lon="6.5991">
        <ele>2509</ele>
        <time>2021-07-15T06:33:48Z</time>
      </trkpt>
      <trkpt lat="45.12318" lon="6.59918">
        <ele>2509</ele>
        <time>2021-07-15T06:33:52Z</time>
      </trkpt>
      <trkpt lat="45.12322" lon="6.59924">
        <ele>2508</ele>
        <time>2021-07-15T06:33:58Z</time>
      </trkpt>
      <trkpt lat="45.12329" lon="6.5996">
        <ele>2499</ele>
        <time>2021-07-15T06:34:27Z</time>
      </trkpt>
      <trkpt lat="45.1233" lon="6.59971">
        <ele>2500</ele>
        <time>2021-07-15T06:34:33Z</time>
      </trkpt>
      <trkpt lat="45.12331" lon="6.59982">
        <ele>2499</ele>
        <time>2021-07-15T06:34:40Z</time>
      </trkpt>
      <trkpt lat="45.12335" lon="6.59991">
        <ele>2497</ele>
        <time>2021-07-15T06:34:59Z</time>
      </trkpt>
      <trkpt lat="45.1234" lon="6.60001">
        <ele>2498</ele>
        <time>2021-07-15T06:35:45Z</time>
      </trkpt>
      <trkpt lat="45.1234" lon="6.60012">
        <ele>2496</ele>
        <time>2021-07-15T06:35:53Z</time>
      </trkpt>
      <trkpt lat="45.12345" lon="6.60034">
        <ele>2492</ele>
        <time>2021-07-15T06:36:05Z</time>
      </trkpt>
      <trkpt lat="45.12351" lon="6.60037">
        <ele>2486</ele>
        <time>2021-07-15T06:36:29Z</time>
      </trkpt>
      <trkpt lat="45.12342" lon="6.6005">
        <ele>2482</ele>
        <time>2021-07-15T06:36:46Z</time>
      </trkpt>
      <trkpt lat="45.12342" lon="6.6006">
        <ele>2478</ele>
        <time>2021-07-15T06:37:00Z</time>
      </trkpt>
      <trkpt lat="45.12331" lon="6.60071">
        <ele>2475</ele>
        <time>2021-07-15T06:37:12Z</time>
      </trkpt>
      <trkpt lat="45.12331" lon="6.60083">
        <ele>2474</ele>
        <time>2021-07-15T06:37:16Z</time>
      </trkpt>
      <trkpt lat="45.12333" lon="6.60092">
        <ele>2472</ele>
        <time>2021-07-15T06:37:21Z</time>
      </trkpt>
      <trkpt lat="45.12338" lon="6.60115">
        <ele>2468</ele>
        <time>2021-07-15T06:37:33Z</time>
      </trkpt>
      <trkpt lat="45.1234" lon="6.60124">
        <ele>2466</ele>
        <time>2021-07-15T06:37:37Z</time>
      </trkpt>
      <trkpt lat="45.1234" lon="6.60133">
        <ele>2465</ele>
        <time>2021-07-15T06:37:42Z</time>
      </trkpt>
      <trkpt lat="45.12345" lon="6.60149">
        <ele>2463</ele>
        <time>2021-07-15T06:37:52Z</time>
      </trkpt>
      <trkpt lat="45.12342" lon="6.60168">
        <ele>2467</ele>
        <time>2021-07-15T06:38:13Z</time>
      </trkpt>
      <trkpt lat="45.12343" lon="6.60177">
        <ele>2467</ele>
        <time>2021-07-15T06:38:17Z</time>
      </trkpt>
      <trkpt lat="45.12346" lon="6.60193">
        <ele>2469</ele>
        <time>2021-07-15T06:38:30Z</time>
      </trkpt>
      <trkpt lat="45.12344" lon="6.60201">
        <ele>2470</ele>
        <time>2021-07-15T06:38:36Z</time>
      </trkpt>
      <trkpt lat="45.12341" lon="6.60209">
        <ele>2471</ele>
        <time>2021-07-15T06:38:42Z</time>
      </trkpt>
      <trkpt lat="45.12341" lon="6.60217">
        <ele>2471</ele>
        <time>2021-07-15T06:38:47Z</time>
      </trkpt>
      <trkpt lat="45.12338" lon="6.60225">
        <ele>2472</ele>
        <time>2021-07-15T06:38:53Z</time>
      </trkpt>
      <trkpt lat="45.12338" lon="6.60234">
        <ele>2471</ele>
        <time>2021-07-15T06:38:58Z</time>
      </trkpt>
      <trkpt lat="45.12333" lon="6.60239">
        <ele>2470</ele>
        <time>2021-07-15T06:39:03Z</time>
      </trkpt>
      <trkpt lat="45.12331" lon="6.60248">
        <ele>2470</ele>
        <time>2021-07-15T06:39:07Z</time>
      </trkpt>
      <trkpt lat="45.1233" lon="6.60258">
        <ele>2470</ele>
        <time>2021-07-15T06:39:14Z</time>
      </trkpt>
      <trkpt lat="45.12327" lon="6.60265">
        <ele>2469</ele>
        <time>2021-07-15T06:39:19Z</time>
      </trkpt>
      <trkpt lat="45.1232" lon="6.60268">
        <ele>2468</ele>
        <time>2021-07-15T06:39:27Z</time>
      </trkpt>
      <trkpt lat="45.12309" lon="6.60272">
        <ele>2468</ele>
        <time>2021-07-15T06:39:41Z</time>
      </trkpt>
      <trkpt lat="45.12307" lon="6.60292">
        <ele>2466</ele>
        <time>2021-07-15T06:39:50Z</time>
      </trkpt>
      <trkpt lat="45.12303" lon="6.60308">
        <ele>2463</ele>
        <time>2021-07-15T06:40:02Z</time>
      </trkpt>
      <trkpt lat="45.12296" lon="6.60313">
        <ele>2460</ele>
        <time>2021-07-15T06:40:13Z</time>
      </trkpt>
      <trkpt lat="45.12277" lon="6.60316">
        <ele>2457</ele>
        <time>2021-07-15T06:40:25Z</time>
      </trkpt>
      <trkpt lat="45.12272" lon="6.60321">
        <ele>2456</ele>
        <time>2021-07-15T06:40:30Z</time>
      </trkpt>
      <trkpt lat="45.12272" lon="6.60329">
        <ele>2454</ele>
        <time>2021-07-15T06:40:34Z</time>
      </trkpt>
      <trkpt lat="45.12267" lon="6.60335">
        <ele>2454</ele>
        <time>2021-07-15T06:40:38Z</time>
      </trkpt>
      <trkpt lat="45.12265" lon="6.60341">
        <ele>2454</ele>
        <time>2021-07-15T06:40:49Z</time>
      </trkpt>
      <trkpt lat="45.12254" lon="6.60352">
        <ele>2451</ele>
        <time>2021-07-15T06:41:02Z</time>
      </trkpt>
      <trkpt lat="45.12253" lon="6.6036">
        <ele>2454</ele>
        <time>2021-07-15T06:41:08Z</time>
      </trkpt>
      <trkpt lat="45.12252" lon="6.60368">
        <ele>2452</ele>
        <time>2021-07-15T06:41:13Z</time>
      </trkpt>
      <trkpt lat="45.12242" lon="6.60386">
        <ele>2448</ele>
        <time>2021-07-15T06:41:32Z</time>
      </trkpt>
      <trkpt lat="45.12229" lon="6.60394">
        <ele>2446</ele>
        <time>2021-07-15T06:41:45Z</time>
      </trkpt>
      <trkpt lat="45.12225" lon="6.60399">
        <ele>2444</ele>
        <time>2021-07-15T06:41:51Z</time>
      </trkpt>
      <trkpt lat="45.12218" lon="6.60401">
        <ele>2444</ele>
        <time>2021-07-15T06:42:01Z</time>
      </trkpt>
      <trkpt lat="45.12214" lon="6.60407">
        <ele>2444</ele>
        <time>2021-07-15T06:42:07Z</time>
      </trkpt>
      <trkpt lat="45.12209" lon="6.60412">
        <ele>2442</ele>
        <time>2021-07-15T06:42:14Z</time>
      </trkpt>
      <trkpt lat="45.12205" lon="6.60419">
        <ele>2444</ele>
        <time>2021-07-15T06:42:19Z</time>
      </trkpt>
      <trkpt lat="45.12201" lon="6.60425">
        <ele>2443</ele>
        <time>2021-07-15T06:42:23Z</time>
      </trkpt>
      <trkpt lat="45.12197" lon="6.60431">
        <ele>2444</ele>
        <time>2021-07-15T06:42:27Z</time>
      </trkpt>
      <trkpt lat="45.1219" lon="6.60449">
        <ele>2441</ele>
        <time>2021-07-15T06:42:40Z</time>
      </trkpt>
      <trkpt lat="45.12185" lon="6.60455">
        <ele>2443</ele>
        <time>2021-07-15T06:42:44Z</time>
      </trkpt>
      <trkpt lat="45.12182" lon="6.60462">
        <ele>2441</ele>
        <time>2021-07-15T06:42:48Z</time>
      </trkpt>
      <trkpt lat="45.12181" lon="6.60469">
        <ele>2441</ele>
        <time>2021-07-15T06:42:53Z</time>
      </trkpt>
      <trkpt lat="45.12177" lon="6.60479">
        <ele>2440</ele>
        <time>2021-07-15T06:43:01Z</time>
      </trkpt>
      <trkpt lat="45.1217" lon="6.60486">
        <ele>2440</ele>
        <time>2021-07-15T06:43:08Z</time>
      </trkpt>
      <trkpt lat="45.12166" lon="6.60491">
        <ele>2441</ele>
        <time>2021-07-15T06:43:13Z</time>
      </trkpt>
      <trkpt lat="45.12163" lon="6.60501">
        <ele>2441</ele>
        <time>2021-07-15T06:43:20Z</time>
      </trkpt>
      <trkpt lat="45.1216" lon="6.60508">
        <ele>2441</ele>
        <time>2021-07-15T06:43:24Z</time>
      </trkpt>
      <trkpt lat="45.12153" lon="6.60522">
        <ele>2439</ele>
        <time>2021-07-15T06:43:33Z</time>
      </trkpt>
      <trkpt lat="45.12151" lon="6.60544">
        <ele>2437</ele>
        <time>2021-07-15T06:43:47Z</time>
      </trkpt>
      <trkpt lat="45.12149" lon="6.60561">
        <ele>2437</ele>
        <time>2021-07-15T06:43:56Z</time>
      </trkpt>
      <trkpt lat="45.12149" lon="6.60568">
        <ele>2438</ele>
        <time>2021-07-15T06:44:01Z</time>
      </trkpt>
      <trkpt lat="45.12151" lon="6.60576">
        <ele>2438</ele>
        <time>2021-07-15T06:44:06Z</time>
      </trkpt>
      <trkpt lat="45.12157" lon="6.60597">
        <ele>2442</ele>
        <time>2021-07-15T06:44:27Z</time>
      </trkpt>
      <trkpt lat="45.12159" lon="6.60606">
        <ele>2442</ele>
        <time>2021-07-15T06:44:31Z</time>
      </trkpt>
      <trkpt lat="45.12159" lon="6.60615">
        <ele>2442</ele>
        <time>2021-07-15T06:44:35Z</time>
      </trkpt>
      <trkpt lat="45.12162" lon="6.60622">
        <ele>2442</ele>
        <time>2021-07-15T06:44:40Z</time>
      </trkpt>
      <trkpt lat="45.1216" lon="6.60632">
        <ele>2442</ele>
        <time>2021-07-15T06:44:48Z</time>
      </trkpt>
      <trkpt lat="45.12158" lon="6.60639">
        <ele>2441</ele>
        <time>2021-07-15T06:44:52Z</time>
      </trkpt>
      <trkpt lat="45.12154" lon="6.60646">
        <ele>2441</ele>
        <time>2021-07-15T06:44:57Z</time>
      </trkpt>
      <trkpt lat="45.12146" lon="6.60655">
        <ele>2440</ele>
        <time>2021-07-15T06:45:06Z</time>
      </trkpt>
      <trkpt lat="45.12141" lon="6.60655">
        <ele>2439</ele>
        <time>2021-07-15T06:45:10Z</time>
      </trkpt>
      <trkpt lat="45.12135" lon="6.60656">
        <ele>2439</ele>
        <time>2021-07-15T06:45:14Z</time>
      </trkpt>
      <trkpt lat="45.12129" lon="6.60659">
        <ele>2438</ele>
        <time>2021-07-15T06:45:19Z</time>
      </trkpt>
      <trkpt lat="45.12122" lon="6.60662">
        <ele>2436</ele>
        <time>2021-07-15T06:45:24Z</time>
      </trkpt>
      <trkpt lat="45.12113" lon="6.60671">
        <ele>2436</ele>
        <time>2021-07-15T06:45:32Z</time>
      </trkpt>
      <trkpt lat="45.12106" lon="6.60673">
        <ele>2435</ele>
        <time>2021-07-15T06:45:39Z</time>
      </trkpt>
      <trkpt lat="45.12099" lon="6.60673">
        <ele>2437</ele>
        <time>2021-07-15T06:45:46Z</time>
      </trkpt>
      <trkpt lat="45.12092" lon="6.60673">
        <ele>2437</ele>
        <time>2021-07-15T06:45:51Z</time>
      </trkpt>
      <trkpt lat="45.12081" lon="6.60675">
        <ele>2436</ele>
        <time>2021-07-15T06:46:01Z</time>
      </trkpt>
      <trkpt lat="45.12075" lon="6.60675">
        <ele>2437</ele>
        <time>2021-07-15T06:46:07Z</time>
      </trkpt>
      <trkpt lat="45.12069" lon="6.60675">
        <ele>2437</ele>
        <time>2021-07-15T06:46:11Z</time>
      </trkpt>
      <trkpt lat="45.12064" lon="6.60673">
        <ele>2437</ele>
        <time>2021-07-15T06:46:14Z</time>
      </trkpt>
      <trkpt lat="45.12058" lon="6.60669">
        <ele>2436</ele>
        <time>2021-07-15T06:46:19Z</time>
      </trkpt>
      <trkpt lat="45.12046" lon="6.60666">
        <ele>2436</ele>
        <time>2021-07-15T06:46:27Z</time>
      </trkpt>
      <trkpt lat="45.12035" lon="6.60662">
        <ele>2437</ele>
        <time>2021-07-15T06:46:36Z</time>
      </trkpt>
      <trkpt lat="45.1203" lon="6.60659">
        <ele>2437</ele>
        <time>2021-07-15T06:46:41Z</time>
      </trkpt>
      <trkpt lat="45.12018" lon="6.6066">
        <ele>2438</ele>
        <time>2021-07-15T06:46:53Z</time>
      </trkpt>
      <trkpt lat="45.12013" lon="6.60658">
        <ele>2438</ele>
        <time>2021-07-15T06:46:57Z</time>
      </trkpt>
      <trkpt lat="45.12006" lon="6.60655">
        <ele>2438</ele>
        <time>2021-07-15T06:47:01Z</time>
      </trkpt>
      <trkpt lat="45.12" lon="6.60652">
        <ele>2438</ele>
        <time>2021-07-15T06:47:05Z</time>
      </trkpt>
      <trkpt lat="45.11995" lon="6.60652">
        <ele>2438</ele>
        <time>2021-07-15T06:47:10Z</time>
      </trkpt>
      <trkpt lat="45.11989" lon="6.60652">
        <ele>2438</ele>
        <time>2021-07-15T06:47:15Z</time>
      </trkpt>
      <trkpt lat="45.11979" lon="6.60646">
        <ele>2438</ele>
        <time>2021-07-15T06:47:27Z</time>
      </trkpt>
      <trkpt lat="45.11973" lon="6.60644">
        <ele>2437</ele>
        <time>2021-07-15T06:47:32Z</time>
      </trkpt>
      <trkpt lat="45.1196" lon="6.6064">
        <ele>2437</ele>
        <time>2021-07-15T06:47:42Z</time>
      </trkpt>
      <trkpt lat="45.11955" lon="6.60637">
        <ele>2437</ele>
        <time>2021-07-15T06:47:46Z</time>
      </trkpt>
      <trkpt lat="45.11949" lon="6.60637">
        <ele>2436</ele>
        <time>2021-07-15T06:47:51Z</time>
      </trkpt>
      <trkpt lat="45.11938" lon="6.60635">
        <ele>2437</ele>
        <time>2021-07-15T06:48:00Z</time>
      </trkpt>
      <trkpt lat="45.11931" lon="6.60634">
        <ele>2436</ele>
        <time>2021-07-15T06:48:04Z</time>
      </trkpt>
      <trkpt lat="45.11923" lon="6.60633">
        <ele>2436</ele>
        <time>2021-07-15T06:48:11Z</time>
      </trkpt>
      <trkpt lat="45.11912" lon="6.60631">
        <ele>2438</ele>
        <time>2021-07-15T06:48:21Z</time>
      </trkpt>
      <trkpt lat="45.11905" lon="6.60626">
        <ele>2439</ele>
        <time>2021-07-15T06:48:28Z</time>
      </trkpt>
      <trkpt lat="45.11894" lon="6.60617">
        <ele>2440</ele>
        <time>2021-07-15T06:48:40Z</time>
      </trkpt>
      <trkpt lat="45.11888" lon="6.60614">
        <ele>2440</ele>
        <time>2021-07-15T06:48:45Z</time>
      </trkpt>
      <trkpt lat="45.11871" lon="6.60609">
        <ele>2440</ele>
        <time>2021-07-15T06:49:00Z</time>
      </trkpt>
      <trkpt lat="45.11865" lon="6.60607">
        <ele>2439</ele>
        <time>2021-07-15T06:49:04Z</time>
      </trkpt>
      <trkpt lat="45.11848" lon="6.606">
        <ele>2439</ele>
        <time>2021-07-15T06:49:19Z</time>
      </trkpt>
      <trkpt lat="45.11842" lon="6.60597">
        <ele>2440</ele>
        <time>2021-07-15T06:49:23Z</time>
      </trkpt>
      <trkpt lat="45.11835" lon="6.60598">
        <ele>2440</ele>
        <time>2021-07-15T06:49:29Z</time>
      </trkpt>
      <trkpt lat="45.11829" lon="6.60596">
        <ele>2440</ele>
        <time>2021-07-15T06:49:35Z</time>
      </trkpt>
      <trkpt lat="45.11823" lon="6.60595">
        <ele>2441</ele>
        <time>2021-07-15T06:49:39Z</time>
      </trkpt>
      <trkpt lat="45.11817" lon="6.60594">
        <ele>2440</ele>
        <time>2021-07-15T06:49:43Z</time>
      </trkpt>
      <trkpt lat="45.11812" lon="6.60592">
        <ele>2440</ele>
        <time>2021-07-15T06:49:48Z</time>
      </trkpt>
      <trkpt lat="45.11806" lon="6.60593">
        <ele>2439</ele>
        <time>2021-07-15T06:49:53Z</time>
      </trkpt>
      <trkpt lat="45.118" lon="6.6059">
        <ele>2440</ele>
        <time>2021-07-15T06:49:58Z</time>
      </trkpt>
      <trkpt lat="45.11794" lon="6.60588">
        <ele>2438</ele>
        <time>2021-07-15T06:50:03Z</time>
      </trkpt>
      <trkpt lat="45.11783" lon="6.60583">
        <ele>2438</ele>
        <time>2021-07-15T06:50:12Z</time>
      </trkpt>
      <trkpt lat="45.11776" lon="6.6058">
        <ele>2438</ele>
        <time>2021-07-15T06:50:18Z</time>
      </trkpt>
      <trkpt lat="45.11771" lon="6.60577">
        <ele>2437</ele>
        <time>2021-07-15T06:50:22Z</time>
      </trkpt>
      <trkpt lat="45.11766" lon="6.60572">
        <ele>2437</ele>
        <time>2021-07-15T06:50:27Z</time>
      </trkpt>
      <trkpt lat="45.11758" lon="6.60571">
        <ele>2438</ele>
        <time>2021-07-15T06:50:34Z</time>
      </trkpt>
      <trkpt lat="45.1175" lon="6.60567">
        <ele>2437</ele>
        <time>2021-07-15T06:50:54Z</time>
      </trkpt>
      <trkpt lat="45.11743" lon="6.60564">
        <ele>2438</ele>
        <time>2021-07-15T06:51:05Z</time>
      </trkpt>
      <trkpt lat="45.11738" lon="6.60562">
        <ele>2437</ele>
        <time>2021-07-15T06:51:09Z</time>
      </trkpt>
      <trkpt lat="45.11729" lon="6.60558">
        <ele>2437</ele>
        <time>2021-07-15T06:51:19Z</time>
      </trkpt>
      <trkpt lat="45.11721" lon="6.60552">
        <ele>2438</ele>
        <time>2021-07-15T06:51:29Z</time>
      </trkpt>
      <trkpt lat="45.1171" lon="6.60541">
        <ele>2439</ele>
        <time>2021-07-15T06:51:40Z</time>
      </trkpt>
      <trkpt lat="45.11693" lon="6.60525">
        <ele>2439</ele>
        <time>2021-07-15T06:51:57Z</time>
      </trkpt>
      <trkpt lat="45.11689" lon="6.60517">
        <ele>2439</ele>
        <time>2021-07-15T06:52:01Z</time>
      </trkpt>
      <trkpt lat="45.11686" lon="6.60511">
        <ele>2439</ele>
        <time>2021-07-15T06:52:06Z</time>
      </trkpt>
      <trkpt lat="45.11682" lon="6.60505">
        <ele>2439</ele>
        <time>2021-07-15T06:52:11Z</time>
      </trkpt>
      <trkpt lat="45.11679" lon="6.60497">
        <ele>2438</ele>
        <time>2021-07-15T06:52:16Z</time>
      </trkpt>
      <trkpt lat="45.11678" lon="6.6049">
        <ele>2438</ele>
        <time>2021-07-15T06:52:20Z</time>
      </trkpt>
      <trkpt lat="45.11678" lon="6.60478">
        <ele>2436</ele>
        <time>2021-07-15T06:52:28Z</time>
      </trkpt>
      <trkpt lat="45.1168" lon="6.6047">
        <ele>2436</ele>
        <time>2021-07-15T06:52:34Z</time>
      </trkpt>
      <trkpt lat="45.1168" lon="6.60458">
        <ele>2435</ele>
        <time>2021-07-15T06:52:44Z</time>
      </trkpt>
      <trkpt lat="45.11679" lon="6.6045">
        <ele>2435</ele>
        <time>2021-07-15T06:52:49Z</time>
      </trkpt>
      <trkpt lat="45.11675" lon="6.60444">
        <ele>2434</ele>
        <time>2021-07-15T06:52:55Z</time>
      </trkpt>
      <trkpt lat="45.11669" lon="6.60416">
        <ele>2435</ele>
        <time>2021-07-15T06:53:11Z</time>
      </trkpt>
      <trkpt lat="45.11672" lon="6.60399">
        <ele>2435</ele>
        <time>2021-07-15T06:53:22Z</time>
      </trkpt>
      <trkpt lat="45.11674" lon="6.60391">
        <ele>2434</ele>
        <time>2021-07-15T06:53:26Z</time>
      </trkpt>
      <trkpt lat="45.11691" lon="6.6033">
        <ele>2434</ele>
        <time>2021-07-15T06:53:58Z</time>
      </trkpt>
      <trkpt lat="45.11693" lon="6.60312">
        <ele>2435</ele>
        <time>2021-07-15T06:54:13Z</time>
      </trkpt>
      <trkpt lat="45.11678" lon="6.60292">
        <ele>2434</ele>
        <time>2021-07-15T06:54:32Z</time>
      </trkpt>
      <trkpt lat="45.11674" lon="6.60273">
        <ele>2433</ele>
        <time>2021-07-15T06:54:41Z</time>
      </trkpt>
      <trkpt lat="45.11659" lon="6.60229">
        <ele>2432</ele>
        <time>2021-07-15T06:55:12Z</time>
      </trkpt>
      <trkpt lat="45.11654" lon="6.60209">
        <ele>2431</ele>
        <time>2021-07-15T06:55:26Z</time>
      </trkpt>
      <trkpt lat="45.11639" lon="6.60163">
        <ele>2437</ele>
        <time>2021-07-15T06:56:01Z</time>
      </trkpt>
      <trkpt lat="45.11633" lon="6.60146">
        <ele>2437</ele>
        <time>2021-07-15T06:56:14Z</time>
      </trkpt>
      <trkpt lat="45.11621" lon="6.60121">
        <ele>2442</ele>
        <time>2021-07-15T06:56:49Z</time>
      </trkpt>
      <trkpt lat="45.11612" lon="6.60081">
        <ele>2445</ele>
        <time>2021-07-15T06:57:13Z</time>
      </trkpt>
      <trkpt lat="45.11604" lon="6.60064">
        <ele>2449</ele>
        <time>2021-07-15T06:57:41Z</time>
      </trkpt>
      <trkpt lat="45.11601" lon="6.60053">
        <ele>2451</ele>
        <time>2021-07-15T06:57:51Z</time>
      </trkpt>
      <trkpt lat="45.11596" lon="6.60047">
        <ele>2450</ele>
        <time>2021-07-15T06:57:59Z</time>
      </trkpt>
      <trkpt lat="45.11589" lon="6.60029">
        <ele>2453</ele>
        <time>2021-07-15T06:58:12Z</time>
      </trkpt>
      <trkpt lat="45.11589" lon="6.60021">
        <ele>2453</ele>
        <time>2021-07-15T06:58:18Z</time>
      </trkpt>
      <trkpt lat="45.11586" lon="6.60006">
        <ele>2453</ele>
        <time>2021-07-15T06:58:30Z</time>
      </trkpt>
      <trkpt lat="45.11584" lon="6.59996">
        <ele>2454</ele>
        <time>2021-07-15T06:58:36Z</time>
      </trkpt>
      <trkpt lat="45.11582" lon="6.59985">
        <ele>2455</ele>
        <time>2021-07-15T06:58:44Z</time>
      </trkpt>
      <trkpt lat="45.11581" lon="6.59977">
        <ele>2454</ele>
        <time>2021-07-15T06:58:48Z</time>
      </trkpt>
      <trkpt lat="45.11577" lon="6.59968">
        <ele>2455</ele>
        <time>2021-07-15T06:58:57Z</time>
      </trkpt>
      <trkpt lat="45.11576" lon="6.59958">
        <ele>2455</ele>
        <time>2021-07-15T06:59:05Z</time>
      </trkpt>
      <trkpt lat="45.11561" lon="6.59927">
        <ele>2458</ele>
        <time>2021-07-15T06:59:34Z</time>
      </trkpt>
      <trkpt lat="45.11562" lon="6.5991">
        <ele>2460</ele>
        <time>2021-07-15T06:59:49Z</time>
      </trkpt>
      <trkpt lat="45.11558" lon="6.59894">
        <ele>2461</ele>
        <time>2021-07-15T06:59:59Z</time>
      </trkpt>
      <trkpt lat="45.11553" lon="6.5988">
        <ele>2463</ele>
        <time>2021-07-15T07:00:10Z</time>
      </trkpt>
      <trkpt lat="45.11549" lon="6.59871">
        <ele>2462</ele>
        <time>2021-07-15T07:00:16Z</time>
      </trkpt>
      <trkpt lat="45.11548" lon="6.59863">
        <ele>2462</ele>
        <time>2021-07-15T07:00:24Z</time>
      </trkpt>
      <trkpt lat="45.11549" lon="6.59854">
        <ele>2461</ele>
        <time>2021-07-15T07:00:30Z</time>
      </trkpt>
      <trkpt lat="45.11541" lon="6.59847">
        <ele>2463</ele>
        <time>2021-07-15T07:00:44Z</time>
      </trkpt>
      <trkpt lat="45.11538" lon="6.59834">
        <ele>2469</ele>
        <time>2021-07-15T07:01:08Z</time>
      </trkpt>
      <trkpt lat="45.11532" lon="6.59827">
        <ele>2472</ele>
        <time>2021-07-15T07:01:21Z</time>
      </trkpt>
      <trkpt lat="45.11524" lon="6.59827">
        <ele>2471</ele>
        <time>2021-07-15T07:01:32Z</time>
      </trkpt>
      <trkpt lat="45.11514" lon="6.59824">
        <ele>2472</ele>
        <time>2021-07-15T07:01:41Z</time>
      </trkpt>
      <trkpt lat="45.11509" lon="6.59821">
        <ele>2470</ele>
        <time>2021-07-15T07:01:46Z</time>
      </trkpt>
      <trkpt lat="45.11505" lon="6.59814">
        <ele>2471</ele>
        <time>2021-07-15T07:01:51Z</time>
      </trkpt>
      <trkpt lat="45.115" lon="6.5981">
        <ele>2472</ele>
        <time>2021-07-15T07:01:58Z</time>
      </trkpt>
      <trkpt lat="45.11496" lon="6.59804">
        <ele>2472</ele>
        <time>2021-07-15T07:02:03Z</time>
      </trkpt>
      <trkpt lat="45.1149" lon="6.59785">
        <ele>2473</ele>
        <time>2021-07-15T07:02:13Z</time>
      </trkpt>
      <trkpt lat="45.11485" lon="6.59779">
        <ele>2475</ele>
        <time>2021-07-15T07:02:19Z</time>
      </trkpt>
      <trkpt lat="45.11476" lon="6.59778">
        <ele>2476</ele>
        <time>2021-07-15T07:02:33Z</time>
      </trkpt>
      <trkpt lat="45.11468" lon="6.59776">
        <ele>2479</ele>
        <time>2021-07-15T07:02:51Z</time>
      </trkpt>
      <trkpt lat="45.1146" lon="6.59776">
        <ele>2480</ele>
        <time>2021-07-15T07:02:57Z</time>
      </trkpt>
      <trkpt lat="45.1146" lon="6.59774">
        <ele>2482</ele>
        <time>2021-07-15T07:04:12Z</time>
      </trkpt>
      <trkpt lat="45.11458" lon="6.59783">
        <ele>2480</ele>
        <time>2021-07-15T07:06:44Z</time>
      </trkpt>
      <trkpt lat="45.11452" lon="6.5978">
        <ele>2480</ele>
        <time>2021-07-15T07:07:20Z</time>
      </trkpt>
      <trkpt lat="45.11456" lon="6.59769">
        <ele>2481</ele>
        <time>2021-07-15T07:08:38Z</time>
      </trkpt>
      <trkpt lat="45.11445" lon="6.59752">
        <ele>2480</ele>
        <time>2021-07-15T07:10:03Z</time>
      </trkpt>
      <trkpt lat="45.11445" lon="6.59709">
        <ele>2480</ele>
        <time>2021-07-15T07:10:30Z</time>
      </trkpt>
      <trkpt lat="45.1144" lon="6.59669">
        <ele>2482</ele>
        <time>2021-07-15T07:10:49Z</time>
      </trkpt>
      <trkpt lat="45.11427" lon="6.59623">
        <ele>2481</ele>
        <time>2021-07-15T07:11:21Z</time>
      </trkpt>
      <trkpt lat="45.11427" lon="6.59593">
        <ele>2481</ele>
        <time>2021-07-15T07:11:43Z</time>
      </trkpt>
      <trkpt lat="45.11428" lon="6.59572">
        <ele>2480</ele>
        <time>2021-07-15T07:11:58Z</time>
      </trkpt>
      <trkpt lat="45.11433" lon="6.5955">
        <ele>2478</ele>
        <time>2021-07-15T07:12:10Z</time>
      </trkpt>
      <trkpt lat="45.11406" lon="6.59516">
        <ele>2481</ele>
        <time>2021-07-15T07:12:45Z</time>
      </trkpt>
      <trkpt lat="45.11397" lon="6.59499">
        <ele>2480</ele>
        <time>2021-07-15T07:13:00Z</time>
      </trkpt>
      <trkpt lat="45.11394" lon="6.59477">
        <ele>2481</ele>
        <time>2021-07-15T07:13:15Z</time>
      </trkpt>
      <trkpt lat="45.11392" lon="6.59456">
        <ele>2479</ele>
        <time>2021-07-15T07:13:30Z</time>
      </trkpt>
      <trkpt lat="45.11384" lon="6.59436">
        <ele>2480</ele>
        <time>2021-07-15T07:13:40Z</time>
      </trkpt>
      <trkpt lat="45.11374" lon="6.59421">
        <ele>2476</ele>
        <time>2021-07-15T07:13:52Z</time>
      </trkpt>
      <trkpt lat="45.11372" lon="6.59399">
        <ele>2474</ele>
        <time>2021-07-15T07:14:10Z</time>
      </trkpt>
      <trkpt lat="45.11335" lon="6.59361">
        <ele>2465</ele>
        <time>2021-07-15T07:14:52Z</time>
      </trkpt>
      <trkpt lat="45.11329" lon="6.59322">
        <ele>2470</ele>
        <time>2021-07-15T07:15:29Z</time>
      </trkpt>
      <trkpt lat="45.11315" lon="6.59315">
        <ele>2476</ele>
        <time>2021-07-15T07:16:08Z</time>
      </trkpt>
      <trkpt lat="45.11292" lon="6.59324">
        <ele>2479</ele>
        <time>2021-07-15T07:16:34Z</time>
      </trkpt>
      <trkpt lat="45.11282" lon="6.59309">
        <ele>2478</ele>
        <time>2021-07-15T07:16:49Z</time>
      </trkpt>
      <trkpt lat="45.1126" lon="6.5929">
        <ele>2475</ele>
        <time>2021-07-15T07:17:11Z</time>
      </trkpt>
      <trkpt lat="45.11249" lon="6.59264">
        <ele>2474</ele>
        <time>2021-07-15T07:17:32Z</time>
      </trkpt>
      <trkpt lat="45.11244" lon="6.59255">
        <ele>2475</ele>
        <time>2021-07-15T07:17:37Z</time>
      </trkpt>
      <trkpt lat="45.11237" lon="6.59248">
        <ele>2475</ele>
        <time>2021-07-15T07:17:43Z</time>
      </trkpt>
      <trkpt lat="45.11232" lon="6.5924">
        <ele>2476</ele>
        <time>2021-07-15T07:17:49Z</time>
      </trkpt>
      <trkpt lat="45.11226" lon="6.5923">
        <ele>2478</ele>
        <time>2021-07-15T07:18:04Z</time>
      </trkpt>
      <trkpt lat="45.11221" lon="6.59218">
        <ele>2477</ele>
        <time>2021-07-15T07:18:13Z</time>
      </trkpt>
      <trkpt lat="45.11216" lon="6.59195">
        <ele>2473</ele>
        <time>2021-07-15T07:18:28Z</time>
      </trkpt>
      <trkpt lat="45.1121" lon="6.59174">
        <ele>2472</ele>
        <time>2021-07-15T07:18:42Z</time>
      </trkpt>
      <trkpt lat="45.11198" lon="6.59145">
        <ele>2468</ele>
        <time>2021-07-15T07:19:07Z</time>
      </trkpt>
      <trkpt lat="45.11204" lon="6.59126">
        <ele>2466</ele>
        <time>2021-07-15T07:19:18Z</time>
      </trkpt>
      <trkpt lat="45.11201" lon="6.59103">
        <ele>2465</ele>
        <time>2021-07-15T07:19:30Z</time>
      </trkpt>
      <trkpt lat="45.11193" lon="6.59062">
        <ele>2460</ele>
        <time>2021-07-15T07:19:53Z</time>
      </trkpt>
      <trkpt lat="45.11191" lon="6.59041">
        <ele>2460</ele>
        <time>2021-07-15T07:20:08Z</time>
      </trkpt>
      <trkpt lat="45.11192" lon="6.5902">
        <ele>2459</ele>
        <time>2021-07-15T07:20:21Z</time>
      </trkpt>
      <trkpt lat="45.11188" lon="6.58993">
        <ele>2456</ele>
        <time>2021-07-15T07:20:44Z</time>
      </trkpt>
      <trkpt lat="45.11186" lon="6.58969">
        <ele>2456</ele>
        <time>2021-07-15T07:21:01Z</time>
      </trkpt>
      <trkpt lat="45.11174" lon="6.58953">
        <ele>2451</ele>
        <time>2021-07-15T07:21:21Z</time>
      </trkpt>
      <trkpt lat="45.11166" lon="6.58933">
        <ele>2450</ele>
        <time>2021-07-15T07:21:32Z</time>
      </trkpt>
      <trkpt lat="45.11165" lon="6.58911">
        <ele>2450</ele>
        <time>2021-07-15T07:21:43Z</time>
      </trkpt>
      <trkpt lat="45.1116" lon="6.58892">
        <ele>2451</ele>
        <time>2021-07-15T07:21:56Z</time>
      </trkpt>
      <trkpt lat="45.11158" lon="6.58887">
        <ele>2450</ele>
        <time>2021-07-15T07:22:00Z</time>
      </trkpt>
      <trkpt lat="45.11155" lon="6.58876">
        <ele>2450</ele>
        <time>2021-07-15T07:22:08Z</time>
      </trkpt>
      <trkpt lat="45.11149" lon="6.58869">
        <ele>2449</ele>
        <time>2021-07-15T07:22:17Z</time>
      </trkpt>
      <trkpt lat="45.11149" lon="6.58852">
        <ele>2448</ele>
        <time>2021-07-15T07:22:31Z</time>
      </trkpt>
      <trkpt lat="45.11145" lon="6.58843">
        <ele>2446</ele>
        <time>2021-07-15T07:22:37Z</time>
      </trkpt>
      <trkpt lat="45.11141" lon="6.58831">
        <ele>2446</ele>
        <time>2021-07-15T07:22:49Z</time>
      </trkpt>
      <trkpt lat="45.11138" lon="6.5882">
        <ele>2448</ele>
        <time>2021-07-15T07:22:58Z</time>
      </trkpt>
      <trkpt lat="45.11134" lon="6.58808">
        <ele>2448</ele>
        <time>2021-07-15T07:23:07Z</time>
      </trkpt>
      <trkpt lat="45.11132" lon="6.58786">
        <ele>2447</ele>
        <time>2021-07-15T07:23:21Z</time>
      </trkpt>
      <trkpt lat="45.11128" lon="6.58779">
        <ele>2445</ele>
        <time>2021-07-15T07:23:29Z</time>
      </trkpt>
      <trkpt lat="45.11119" lon="6.58782">
        <ele>2445</ele>
        <time>2021-07-15T07:23:38Z</time>
      </trkpt>
      <trkpt lat="45.11111" lon="6.5878">
        <ele>2445</ele>
        <time>2021-07-15T07:23:43Z</time>
      </trkpt>
      <trkpt lat="45.11101" lon="6.58782">
        <ele>2442</ele>
        <time>2021-07-15T07:23:57Z</time>
      </trkpt>
      <trkpt lat="45.11092" lon="6.58775">
        <ele>2440</ele>
        <time>2021-07-15T07:24:15Z</time>
      </trkpt>
      <trkpt lat="45.11084" lon="6.58779">
        <ele>2440</ele>
        <time>2021-07-15T07:24:23Z</time>
      </trkpt>
      <trkpt lat="45.11076" lon="6.58781">
        <ele>2439</ele>
        <time>2021-07-15T07:24:30Z</time>
      </trkpt>
      <trkpt lat="45.11061" lon="6.58785">
        <ele>2435</ele>
        <time>2021-07-15T07:24:50Z</time>
      </trkpt>
      <trkpt lat="45.11052" lon="6.58792">
        <ele>2431</ele>
        <time>2021-07-15T07:25:04Z</time>
      </trkpt>
      <trkpt lat="45.11049" lon="6.588">
        <ele>2431</ele>
        <time>2021-07-15T07:25:08Z</time>
      </trkpt>
      <trkpt lat="45.1104" lon="6.58814">
        <ele>2430</ele>
        <time>2021-07-15T07:25:19Z</time>
      </trkpt>
      <trkpt lat="45.11038" lon="6.58821">
        <ele>2430</ele>
        <time>2021-07-15T07:25:23Z</time>
      </trkpt>
      <trkpt lat="45.11034" lon="6.58828">
        <ele>2430</ele>
        <time>2021-07-15T07:25:28Z</time>
      </trkpt>
      <trkpt lat="45.11025" lon="6.58849">
        <ele>2433</ele>
        <time>2021-07-15T07:25:51Z</time>
      </trkpt>
      <trkpt lat="45.11018" lon="6.58852">
        <ele>2433</ele>
        <time>2021-07-15T07:25:58Z</time>
      </trkpt>
      <trkpt lat="45.11006" lon="6.58851">
        <ele>2434</ele>
        <time>2021-07-15T07:26:13Z</time>
      </trkpt>
      <trkpt lat="45.1099" lon="6.58838">
        <ele>2427</ele>
        <time>2021-07-15T07:26:39Z</time>
      </trkpt>
      <trkpt lat="45.10983" lon="6.58835">
        <ele>2426</ele>
        <time>2021-07-15T07:26:45Z</time>
      </trkpt>
      <trkpt lat="45.10976" lon="6.58835">
        <ele>2427</ele>
        <time>2021-07-15T07:26:51Z</time>
      </trkpt>
      <trkpt lat="45.10968" lon="6.58833">
        <ele>2427</ele>
        <time>2021-07-15T07:26:57Z</time>
      </trkpt>
      <trkpt lat="45.1097" lon="6.58819">
        <ele>2428</ele>
        <time>2021-07-15T07:27:08Z</time>
      </trkpt>
      <trkpt lat="45.10971" lon="6.58811">
        <ele>2428</ele>
        <time>2021-07-15T07:27:12Z</time>
      </trkpt>
      <trkpt lat="45.10972" lon="6.58803">
        <ele>2428</ele>
        <time>2021-07-15T07:27:16Z</time>
      </trkpt>
      <trkpt lat="45.10976" lon="6.58794">
        <ele>2428</ele>
        <time>2021-07-15T07:27:22Z</time>
      </trkpt>
      <trkpt lat="45.10973" lon="6.58783">
        <ele>2428</ele>
        <time>2021-07-15T07:27:29Z</time>
      </trkpt>
      <trkpt lat="45.1097" lon="6.58784">
        <ele>2428</ele>
        <time>2021-07-15T07:28:52Z</time>
      </trkpt>
      <trkpt lat="45.10961" lon="6.58787">
        <ele>2429</ele>
        <time>2021-07-15T07:29:58Z</time>
      </trkpt>
      <trkpt lat="45.10959" lon="6.58795">
        <ele>2428</ele>
        <time>2021-07-15T07:30:02Z</time>
      </trkpt>
      <trkpt lat="45.10935" lon="6.58836">
        <ele>2426</ele>
        <time>2021-07-15T07:30:32Z</time>
      </trkpt>
      <trkpt lat="45.10929" lon="6.58842">
        <ele>2427</ele>
        <time>2021-07-15T07:30:38Z</time>
      </trkpt>
      <trkpt lat="45.10925" lon="6.58847">
        <ele>2426</ele>
        <time>2021-07-15T07:30:43Z</time>
      </trkpt>
      <trkpt lat="45.10921" lon="6.58853">
        <ele>2426</ele>
        <time>2021-07-15T07:30:48Z</time>
      </trkpt>
      <trkpt lat="45.10919" lon="6.58875">
        <ele>2425</ele>
        <time>2021-07-15T07:31:04Z</time>
      </trkpt>
      <trkpt lat="45.10917" lon="6.5888">
        <ele>2425</ele>
        <time>2021-07-15T07:31:07Z</time>
      </trkpt>
      <trkpt lat="45.10913" lon="6.58888">
        <ele>2424</ele>
        <time>2021-07-15T07:31:12Z</time>
      </trkpt>
      <trkpt lat="45.10908" lon="6.58893">
        <ele>2425</ele>
        <time>2021-07-15T07:31:17Z</time>
      </trkpt>
      <trkpt lat="45.10903" lon="6.589">
        <ele>2426</ele>
        <time>2021-07-15T07:31:26Z</time>
      </trkpt>
      <trkpt lat="45.109" lon="6.58908">
        <ele>2426</ele>
        <time>2021-07-15T07:31:38Z</time>
      </trkpt>
      <trkpt lat="45.10899" lon="6.58919">
        <ele>2428</ele>
        <time>2021-07-15T07:31:50Z</time>
      </trkpt>
      <trkpt lat="45.10891" lon="6.58921">
        <ele>2426</ele>
        <time>2021-07-15T07:32:00Z</time>
      </trkpt>
      <trkpt lat="45.10883" lon="6.58927">
        <ele>2427</ele>
        <time>2021-07-15T07:32:07Z</time>
      </trkpt>
      <trkpt lat="45.10876" lon="6.5894">
        <ele>2429</ele>
        <time>2021-07-15T07:32:20Z</time>
      </trkpt>
      <trkpt lat="45.10867" lon="6.58944">
        <ele>2433</ele>
        <time>2021-07-15T07:32:41Z</time>
      </trkpt>
      <trkpt lat="45.10861" lon="6.58952">
        <ele>2437</ele>
        <time>2021-07-15T07:32:59Z</time>
      </trkpt>
      <trkpt lat="45.10845" lon="6.58973">
        <ele>2441</ele>
        <time>2021-07-15T07:33:31Z</time>
      </trkpt>
      <trkpt lat="45.10846" lon="6.58987">
        <ele>2443</ele>
        <time>2021-07-15T07:33:44Z</time>
      </trkpt>
      <trkpt lat="45.10844" lon="6.58995">
        <ele>2445</ele>
        <time>2021-07-15T07:33:58Z</time>
      </trkpt>
      <trkpt lat="45.10841" lon="6.59006">
        <ele>2447</ele>
        <time>2021-07-15T07:34:08Z</time>
      </trkpt>
      <trkpt lat="45.10844" lon="6.59017">
        <ele>2447</ele>
        <time>2021-07-15T07:34:14Z</time>
      </trkpt>
      <trkpt lat="45.10843" lon="6.59024">
        <ele>2447</ele>
        <time>2021-07-15T07:34:18Z</time>
      </trkpt>
      <trkpt lat="45.10843" lon="6.59032">
        <ele>2447</ele>
        <time>2021-07-15T07:34:23Z</time>
      </trkpt>
      <trkpt lat="45.10842" lon="6.59054">
        <ele>2446</ele>
        <time>2021-07-15T07:34:39Z</time>
      </trkpt>
      <trkpt lat="45.10844" lon="6.59062">
        <ele>2446</ele>
        <time>2021-07-15T07:34:43Z</time>
      </trkpt>
      <trkpt lat="45.10845" lon="6.59069">
        <ele>2446</ele>
        <time>2021-07-15T07:34:49Z</time>
      </trkpt>
      <trkpt lat="45.10848" lon="6.59077">
        <ele>2445</ele>
        <time>2021-07-15T07:34:55Z</time>
      </trkpt>
      <trkpt lat="45.10852" lon="6.59102">
        <ele>2443</ele>
        <time>2021-07-15T07:35:12Z</time>
      </trkpt>
      <trkpt lat="45.10858" lon="6.59117">
        <ele>2440</ele>
        <time>2021-07-15T07:35:22Z</time>
      </trkpt>
      <trkpt lat="45.10867" lon="6.59129">
        <ele>2438</ele>
        <time>2021-07-15T07:35:33Z</time>
      </trkpt>
      <trkpt lat="45.10861" lon="6.59132">
        <ele>2437</ele>
        <time>2021-07-15T07:35:45Z</time>
      </trkpt>
      <trkpt lat="45.10854" lon="6.59136">
        <ele>2437</ele>
        <time>2021-07-15T07:35:53Z</time>
      </trkpt>
      <trkpt lat="45.10852" lon="6.59145">
        <ele>2437</ele>
        <time>2021-07-15T07:35:59Z</time>
      </trkpt>
      <trkpt lat="45.10848" lon="6.59173">
        <ele>2440</ele>
        <time>2021-07-15T07:36:21Z</time>
      </trkpt>
      <trkpt lat="45.10844" lon="6.59183">
        <ele>2443</ele>
        <time>2021-07-15T07:36:35Z</time>
      </trkpt>
      <trkpt lat="45.1084" lon="6.59192">
        <ele>2443</ele>
        <time>2021-07-15T07:36:41Z</time>
      </trkpt>
      <trkpt lat="45.10842" lon="6.5921">
        <ele>2444</ele>
        <time>2021-07-15T07:36:56Z</time>
      </trkpt>
      <trkpt lat="45.10838" lon="6.59232">
        <ele>2447</ele>
        <time>2021-07-15T07:37:19Z</time>
      </trkpt>
      <trkpt lat="45.10837" lon="6.59245">
        <ele>2448</ele>
        <time>2021-07-15T07:37:34Z</time>
      </trkpt>
      <trkpt lat="45.10835" lon="6.59253">
        <ele>2447</ele>
        <time>2021-07-15T07:37:44Z</time>
      </trkpt>
      <trkpt lat="45.10832" lon="6.59262">
        <ele>2449</ele>
        <time>2021-07-15T07:37:59Z</time>
      </trkpt>
      <trkpt lat="45.10835" lon="6.59277">
        <ele>2451</ele>
        <time>2021-07-15T07:38:12Z</time>
      </trkpt>
      <trkpt lat="45.10838" lon="6.59294">
        <ele>2451</ele>
        <time>2021-07-15T07:38:23Z</time>
      </trkpt>
      <trkpt lat="45.10833" lon="6.59301">
        <ele>2451</ele>
        <time>2021-07-15T07:38:31Z</time>
      </trkpt>
      <trkpt lat="45.10826" lon="6.59307">
        <ele>2452</ele>
        <time>2021-07-15T07:38:44Z</time>
      </trkpt>
      <trkpt lat="45.10812" lon="6.59311">
        <ele>2455</ele>
        <time>2021-07-15T07:39:05Z</time>
      </trkpt>
      <trkpt lat="45.10804" lon="6.5932">
        <ele>2455</ele>
        <time>2021-07-15T07:39:21Z</time>
      </trkpt>
      <trkpt lat="45.10795" lon="6.59335">
        <ele>2456</ele>
        <time>2021-07-15T07:39:41Z</time>
      </trkpt>
      <trkpt lat="45.10788" lon="6.59328">
        <ele>2455</ele>
        <time>2021-07-15T07:39:53Z</time>
      </trkpt>
      <trkpt lat="45.10782" lon="6.59335">
        <ele>2457</ele>
        <time>2021-07-15T07:40:07Z</time>
      </trkpt>
      <trkpt lat="45.10765" lon="6.59342">
        <ele>2461</ele>
        <time>2021-07-15T07:40:37Z</time>
      </trkpt>
      <trkpt lat="45.1076" lon="6.59358">
        <ele>2463</ele>
        <time>2021-07-15T07:40:52Z</time>
      </trkpt>
      <trkpt lat="45.10749" lon="6.59358">
        <ele>2464</ele>
        <time>2021-07-15T07:41:06Z</time>
      </trkpt>
      <trkpt lat="45.10735" lon="6.59366">
        <ele>2467</ele>
        <time>2021-07-15T07:41:39Z</time>
      </trkpt>
      <trkpt lat="45.1073" lon="6.59371">
        <ele>2468</ele>
        <time>2021-07-15T07:41:45Z</time>
      </trkpt>
      <trkpt lat="45.10725" lon="6.59374">
        <ele>2469</ele>
        <time>2021-07-15T07:41:53Z</time>
      </trkpt>
      <trkpt lat="45.1072" lon="6.59372">
        <ele>2471</ele>
        <time>2021-07-15T07:42:05Z</time>
      </trkpt>
      <trkpt lat="45.10712" lon="6.5938">
        <ele>2472</ele>
        <time>2021-07-15T07:42:18Z</time>
      </trkpt>
      <trkpt lat="45.10709" lon="6.59388">
        <ele>2473</ele>
        <time>2021-07-15T07:42:26Z</time>
      </trkpt>
      <trkpt lat="45.10703" lon="6.59393">
        <ele>2474</ele>
        <time>2021-07-15T07:42:34Z</time>
      </trkpt>
      <trkpt lat="45.10696" lon="6.59397">
        <ele>2476</ele>
        <time>2021-07-15T07:42:46Z</time>
      </trkpt>
      <trkpt lat="45.10691" lon="6.59406">
        <ele>2478</ele>
        <time>2021-07-15T07:42:58Z</time>
      </trkpt>
      <trkpt lat="45.10687" lon="6.59413">
        <ele>2478</ele>
        <time>2021-07-15T07:43:04Z</time>
      </trkpt>
      <trkpt lat="45.10684" lon="6.5942">
        <ele>2478</ele>
        <time>2021-07-15T07:43:15Z</time>
      </trkpt>
      <trkpt lat="45.1068" lon="6.59428">
        <ele>2480</ele>
        <time>2021-07-15T07:43:33Z</time>
      </trkpt>
      <trkpt lat="45.10672" lon="6.59433">
        <ele>2483</ele>
        <time>2021-07-15T07:43:51Z</time>
      </trkpt>
      <trkpt lat="45.10665" lon="6.59433">
        <ele>2485</ele>
        <time>2021-07-15T07:44:09Z</time>
      </trkpt>
      <trkpt lat="45.10655" lon="6.59459">
        <ele>2492</ele>
        <time>2021-07-15T07:44:57Z</time>
      </trkpt>
      <trkpt lat="45.10652" lon="6.59469">
        <ele>2495</ele>
        <time>2021-07-15T07:45:13Z</time>
      </trkpt>
      <trkpt lat="45.10646" lon="6.59474">
        <ele>2496</ele>
        <time>2021-07-15T07:45:25Z</time>
      </trkpt>
      <trkpt lat="45.10642" lon="6.59485">
        <ele>2498</ele>
        <time>2021-07-15T07:45:40Z</time>
      </trkpt>
      <trkpt lat="45.10643" lon="6.59497">
        <ele>2500</ele>
        <time>2021-07-15T07:45:58Z</time>
      </trkpt>
      <trkpt lat="45.10639" lon="6.59507">
        <ele>2502</ele>
        <time>2021-07-15T07:46:09Z</time>
      </trkpt>
      <trkpt lat="45.10636" lon="6.59514">
        <ele>2503</ele>
        <time>2021-07-15T07:46:21Z</time>
      </trkpt>
      <trkpt lat="45.10631" lon="6.5951">
        <ele>2504</ele>
        <time>2021-07-15T07:46:28Z</time>
      </trkpt>
      <trkpt lat="45.10626" lon="6.59514">
        <ele>2506</ele>
        <time>2021-07-15T07:46:42Z</time>
      </trkpt>
      <trkpt lat="45.10619" lon="6.59512">
        <ele>2508</ele>
        <time>2021-07-15T07:47:00Z</time>
      </trkpt>
      <trkpt lat="45.1062" lon="6.5951">
        <ele>2511</ele>
        <time>2021-07-15T07:50:06Z</time>
      </trkpt>
      <trkpt lat="45.10613" lon="6.5951">
        <ele>2510</ele>
        <time>2021-07-15T07:56:03Z</time>
      </trkpt>
      <trkpt lat="45.10605" lon="6.59507">
        <ele>2513</ele>
        <time>2021-07-15T07:56:15Z</time>
      </trkpt>
      <trkpt lat="45.10599" lon="6.59499">
        <ele>2515</ele>
        <time>2021-07-15T07:56:27Z</time>
      </trkpt>
      <trkpt lat="45.10594" lon="6.59495">
        <ele>2516</ele>
        <time>2021-07-15T07:56:34Z</time>
      </trkpt>
      <trkpt lat="45.1059" lon="6.59502">
        <ele>2519</ele>
        <time>2021-07-15T07:56:58Z</time>
      </trkpt>
      <trkpt lat="45.10584" lon="6.595">
        <ele>2523</ele>
        <time>2021-07-15T07:57:22Z</time>
      </trkpt>
      <trkpt lat="45.1058" lon="6.5949">
        <ele>2525</ele>
        <time>2021-07-15T07:57:33Z</time>
      </trkpt>
      <trkpt lat="45.10574" lon="6.59487">
        <ele>2526</ele>
        <time>2021-07-15T07:57:47Z</time>
      </trkpt>
      <trkpt lat="45.1057" lon="6.5948">
        <ele>2526</ele>
        <time>2021-07-15T07:57:54Z</time>
      </trkpt>
      <trkpt lat="45.10566" lon="6.59474">
        <ele>2526</ele>
        <time>2021-07-15T07:58:02Z</time>
      </trkpt>
      <trkpt lat="45.10564" lon="6.59462">
        <ele>2526</ele>
        <time>2021-07-15T07:58:14Z</time>
      </trkpt>
      <trkpt lat="45.10552" lon="6.59457">
        <ele>2532</ele>
        <time>2021-07-15T07:58:48Z</time>
      </trkpt>
      <trkpt lat="45.10549" lon="6.59449">
        <ele>2537</ele>
        <time>2021-07-15T07:59:13Z</time>
      </trkpt>
      <trkpt lat="45.10542" lon="6.59447">
        <ele>2538</ele>
        <time>2021-07-15T07:59:35Z</time>
      </trkpt>
      <trkpt lat="45.10536" lon="6.59446">
        <ele>2542</ele>
        <time>2021-07-15T07:59:59Z</time>
      </trkpt>
      <trkpt lat="45.10532" lon="6.59437">
        <ele>2545</ele>
        <time>2021-07-15T08:00:17Z</time>
      </trkpt>
      <trkpt lat="45.10532" lon="6.59428">
        <ele>2547</ele>
        <time>2021-07-15T08:00:41Z</time>
      </trkpt>
      <trkpt lat="45.10528" lon="6.59419">
        <ele>2549</ele>
        <time>2021-07-15T08:00:53Z</time>
      </trkpt>
      <trkpt lat="45.10528" lon="6.59411">
        <ele>2554</ele>
        <time>2021-07-15T08:01:23Z</time>
      </trkpt>
      <trkpt lat="45.10531" lon="6.59401">
        <ele>2558</ele>
        <time>2021-07-15T08:01:47Z</time>
      </trkpt>
      <trkpt lat="45.10525" lon="6.59397">
        <ele>2561</ele>
        <time>2021-07-15T08:02:05Z</time>
      </trkpt>
      <trkpt lat="45.10527" lon="6.59387">
        <ele>2563</ele>
        <time>2021-07-15T08:02:17Z</time>
      </trkpt>
      <trkpt lat="45.10531" lon="6.5938">
        <ele>2565</ele>
        <time>2021-07-15T08:02:29Z</time>
      </trkpt>
      <trkpt lat="45.10532" lon="6.59371">
        <ele>2570</ele>
        <time>2021-07-15T08:02:59Z</time>
      </trkpt>
      <trkpt lat="45.10532" lon="6.5936">
        <ele>2572</ele>
        <time>2021-07-15T08:03:17Z</time>
      </trkpt>
      <trkpt lat="45.10533" lon="6.59348">
        <ele>2575</ele>
        <time>2021-07-15T08:03:41Z</time>
      </trkpt>
      <trkpt lat="45.10535" lon="6.5934">
        <ele>2577</ele>
        <time>2021-07-15T08:03:53Z</time>
      </trkpt>
      <trkpt lat="45.10536" lon="6.59332">
        <ele>2577</ele>
        <time>2021-07-15T08:04:05Z</time>
      </trkpt>
      <trkpt lat="45.10535" lon="6.59325">
        <ele>2581</ele>
        <time>2021-07-15T08:04:23Z</time>
      </trkpt>
      <trkpt lat="45.10529" lon="6.59315">
        <ele>2583</ele>
        <time>2021-07-15T08:04:37Z</time>
      </trkpt>
      <trkpt lat="45.10516" lon="6.59301">
        <ele>2585</ele>
        <time>2021-07-15T08:05:01Z</time>
      </trkpt>
      <trkpt lat="45.10513" lon="6.59289">
        <ele>2586</ele>
        <time>2021-07-15T08:05:12Z</time>
      </trkpt>
      <trkpt lat="45.10521" lon="6.59272">
        <ele>2589</ele>
        <time>2021-07-15T08:05:36Z</time>
      </trkpt>
      <trkpt lat="45.1052" lon="6.59263">
        <ele>2593</ele>
        <time>2021-07-15T08:05:57Z</time>
      </trkpt>
      <trkpt lat="45.10519" lon="6.59256">
        <ele>2595</ele>
        <time>2021-07-15T08:06:08Z</time>
      </trkpt>
      <trkpt lat="45.10527" lon="6.59235">
        <ele>2601</ele>
        <time>2021-07-15T08:06:48Z</time>
      </trkpt>
      <trkpt lat="45.1053" lon="6.59216">
        <ele>2602</ele>
        <time>2021-07-15T08:07:03Z</time>
      </trkpt>
      <trkpt lat="45.10533" lon="6.59189">
        <ele>2608</ele>
        <time>2021-07-15T08:07:36Z</time>
      </trkpt>
      <trkpt lat="45.10533" lon="6.59158">
        <ele>2608</ele>
        <time>2021-07-15T08:07:55Z</time>
      </trkpt>
      <trkpt lat="45.10532" lon="6.5914">
        <ele>2608</ele>
        <time>2021-07-15T08:08:09Z</time>
      </trkpt>
      <trkpt lat="45.10534" lon="6.59132">
        <ele>2609</ele>
        <time>2021-07-15T08:08:14Z</time>
      </trkpt>
      <trkpt lat="45.10536" lon="6.59124">
        <ele>2608</ele>
        <time>2021-07-15T08:08:20Z</time>
      </trkpt>
      <trkpt lat="45.10537" lon="6.59117">
        <ele>2609</ele>
        <time>2021-07-15T08:08:26Z</time>
      </trkpt>
      <trkpt lat="45.10535" lon="6.59106">
        <ele>2609</ele>
        <time>2021-07-15T08:08:35Z</time>
      </trkpt>
      <trkpt lat="45.10539" lon="6.59096">
        <ele>2609</ele>
        <time>2021-07-15T08:08:44Z</time>
      </trkpt>
      <trkpt lat="45.10538" lon="6.59078">
        <ele>2610</ele>
        <time>2021-07-15T08:08:58Z</time>
      </trkpt>
      <trkpt lat="45.10538" lon="6.59069">
        <ele>2610</ele>
        <time>2021-07-15T08:09:03Z</time>
      </trkpt>
      <trkpt lat="45.10539" lon="6.59062">
        <ele>2609</ele>
        <time>2021-07-15T08:09:08Z</time>
      </trkpt>
      <trkpt lat="45.10543" lon="6.59045">
        <ele>2611</ele>
        <time>2021-07-15T08:09:22Z</time>
      </trkpt>
      <trkpt lat="45.1054" lon="6.59035">
        <ele>2611</ele>
        <time>2021-07-15T08:09:30Z</time>
      </trkpt>
      <trkpt lat="45.10539" lon="6.59029">
        <ele>2612</ele>
        <time>2021-07-15T08:09:34Z</time>
      </trkpt>
      <trkpt lat="45.1054" lon="6.59019">
        <ele>2612</ele>
        <time>2021-07-15T08:09:42Z</time>
      </trkpt>
      <trkpt lat="45.10538" lon="6.59011">
        <ele>2612</ele>
        <time>2021-07-15T08:09:47Z</time>
      </trkpt>
      <trkpt lat="45.10537" lon="6.58985">
        <ele>2614</ele>
        <time>2021-07-15T08:10:06Z</time>
      </trkpt>
      <trkpt lat="45.10538" lon="6.5898">
        <ele>2614</ele>
        <time>2021-07-15T08:10:09Z</time>
      </trkpt>
      <trkpt lat="45.10536" lon="6.58972">
        <ele>2615</ele>
        <time>2021-07-15T08:10:17Z</time>
      </trkpt>
      <trkpt lat="45.10529" lon="6.58953">
        <ele>2617</ele>
        <time>2021-07-15T08:10:32Z</time>
      </trkpt>
      <trkpt lat="45.1053" lon="6.5894">
        <ele>2615</ele>
        <time>2021-07-15T08:10:41Z</time>
      </trkpt>
      <trkpt lat="45.10533" lon="6.58924">
        <ele>2615</ele>
        <time>2021-07-15T08:10:53Z</time>
      </trkpt>
      <trkpt lat="45.10535" lon="6.58911">
        <ele>2615</ele>
        <time>2021-07-15T08:11:00Z</time>
      </trkpt>
      <trkpt lat="45.10536" lon="6.58902">
        <ele>2615</ele>
        <time>2021-07-15T08:11:07Z</time>
      </trkpt>
      <trkpt lat="45.10533" lon="6.58889">
        <ele>2615</ele>
        <time>2021-07-15T08:11:15Z</time>
      </trkpt>
      <trkpt lat="45.10531" lon="6.58877">
        <ele>2615</ele>
        <time>2021-07-15T08:11:24Z</time>
      </trkpt>
      <trkpt lat="45.10528" lon="6.58868">
        <ele>2616</ele>
        <time>2021-07-15T08:11:32Z</time>
      </trkpt>
      <trkpt lat="45.1053" lon="6.58859">
        <ele>2618</ele>
        <time>2021-07-15T08:11:41Z</time>
      </trkpt>
      <trkpt lat="45.1053" lon="6.58839">
        <ele>2622</ele>
        <time>2021-07-15T08:12:05Z</time>
      </trkpt>
      <trkpt lat="45.10531" lon="6.58828">
        <ele>2624</ele>
        <time>2021-07-15T08:12:16Z</time>
      </trkpt>
      <trkpt lat="45.10527" lon="6.58815">
        <ele>2626</ele>
        <time>2021-07-15T08:12:30Z</time>
      </trkpt>
      <trkpt lat="45.10526" lon="6.5881">
        <ele>2626</ele>
        <time>2021-07-15T08:12:34Z</time>
      </trkpt>
      <trkpt lat="45.10524" lon="6.58803">
        <ele>2627</ele>
        <time>2021-07-15T08:12:41Z</time>
      </trkpt>
      <trkpt lat="45.10523" lon="6.58788">
        <ele>2629</ele>
        <time>2021-07-15T08:12:58Z</time>
      </trkpt>
      <trkpt lat="45.10526" lon="6.5878">
        <ele>2632</ele>
        <time>2021-07-15T08:13:09Z</time>
      </trkpt>
      <trkpt lat="45.10528" lon="6.58771">
        <ele>2635</ele>
        <time>2021-07-15T08:13:24Z</time>
      </trkpt>
      <trkpt lat="45.10534" lon="6.58765">
        <ele>2638</ele>
        <time>2021-07-15T08:13:36Z</time>
      </trkpt>
      <trkpt lat="45.10536" lon="6.58755">
        <ele>2640</ele>
        <time>2021-07-15T08:13:48Z</time>
      </trkpt>
      <trkpt lat="45.10536" lon="6.58744">
        <ele>2643</ele>
        <time>2021-07-15T08:14:01Z</time>
      </trkpt>
      <trkpt lat="45.10533" lon="6.58741">
        <ele>2643</ele>
        <time>2021-07-15T08:14:06Z</time>
      </trkpt>
      <trkpt lat="45.10531" lon="6.58736">
        <ele>2644</ele>
        <time>2021-07-15T08:14:11Z</time>
      </trkpt>
      <trkpt lat="45.10533" lon="6.58731">
        <ele>2645</ele>
        <time>2021-07-15T08:14:16Z</time>
      </trkpt>
      <trkpt lat="45.1053" lon="6.58723">
        <ele>2645</ele>
        <time>2021-07-15T08:14:27Z</time>
      </trkpt>
      <trkpt lat="45.10528" lon="6.58719">
        <ele>2646</ele>
        <time>2021-07-15T08:14:31Z</time>
      </trkpt>
      <trkpt lat="45.10528" lon="6.58711">
        <ele>2646</ele>
        <time>2021-07-15T08:14:39Z</time>
      </trkpt>
      <trkpt lat="45.10525" lon="6.58703">
        <ele>2647</ele>
        <time>2021-07-15T08:14:44Z</time>
      </trkpt>
      <trkpt lat="45.10521" lon="6.58697">
        <ele>2648</ele>
        <time>2021-07-15T08:14:53Z</time>
      </trkpt>
      <trkpt lat="45.1052" lon="6.58691">
        <ele>2649</ele>
        <time>2021-07-15T08:14:59Z</time>
      </trkpt>
      <trkpt lat="45.10513" lon="6.58673">
        <ele>2651</ele>
        <time>2021-07-15T08:15:17Z</time>
      </trkpt>
      <trkpt lat="45.10516" lon="6.58675">
        <ele>2651</ele>
        <time>2021-07-15T08:16:27Z</time>
      </trkpt>
      <trkpt lat="45.10518" lon="6.58656">
        <ele>2653</ele>
        <time>2021-07-15T08:16:48Z</time>
      </trkpt>
      <trkpt lat="45.10518" lon="6.58646">
        <ele>2655</ele>
        <time>2021-07-15T08:17:03Z</time>
      </trkpt>
      <trkpt lat="45.10521" lon="6.58638">
        <ele>2656</ele>
        <time>2021-07-15T08:17:15Z</time>
      </trkpt>
      <trkpt lat="45.1052" lon="6.58626">
        <ele>2659</ele>
        <time>2021-07-15T08:17:32Z</time>
      </trkpt>
      <trkpt lat="45.10524" lon="6.58622">
        <ele>2659</ele>
        <time>2021-07-15T08:17:42Z</time>
      </trkpt>
      <trkpt lat="45.10528" lon="6.58616">
        <ele>2660</ele>
        <time>2021-07-15T08:17:53Z</time>
      </trkpt>
      <trkpt lat="45.10538" lon="6.58608">
        <ele>2661</ele>
        <time>2021-07-15T08:18:11Z</time>
      </trkpt>
      <trkpt lat="45.10536" lon="6.5861">
        <ele>2659</ele>
        <time>2021-07-15T08:20:51Z</time>
      </trkpt>
      <trkpt lat="45.10534" lon="6.58605">
        <ele>2658</ele>
        <time>2021-07-15T08:23:52Z</time>
      </trkpt>
      <trkpt lat="45.10535" lon="6.58593">
        <ele>2658</ele>
        <time>2021-07-15T08:26:55Z</time>
      </trkpt>
      <trkpt lat="45.10532" lon="6.58584">
        <ele>2657</ele>
        <time>2021-07-15T08:27:04Z</time>
      </trkpt>
      <trkpt lat="45.10531" lon="6.58576">
        <ele>2657</ele>
        <time>2021-07-15T08:27:08Z</time>
      </trkpt>
      <trkpt lat="45.1053" lon="6.58567">
        <ele>2658</ele>
        <time>2021-07-15T08:27:13Z</time>
      </trkpt>
      <trkpt lat="45.1053" lon="6.58538">
        <ele>2663</ele>
        <time>2021-07-15T08:27:42Z</time>
      </trkpt>
      <trkpt lat="45.10539" lon="6.58523">
        <ele>2664</ele>
        <time>2021-07-15T08:27:55Z</time>
      </trkpt>
      <trkpt lat="45.10542" lon="6.58512">
        <ele>2665</ele>
        <time>2021-07-15T08:28:04Z</time>
      </trkpt>
      <trkpt lat="45.1055" lon="6.58486">
        <ele>2668</ele>
        <time>2021-07-15T08:28:27Z</time>
      </trkpt>
      <trkpt lat="45.10552" lon="6.58478">
        <ele>2668</ele>
        <time>2021-07-15T08:28:33Z</time>
      </trkpt>
      <trkpt lat="45.10554" lon="6.58468">
        <ele>2670</ele>
        <time>2021-07-15T08:28:42Z</time>
      </trkpt>
      <trkpt lat="45.10555" lon="6.58459">
        <ele>2670</ele>
        <time>2021-07-15T08:28:46Z</time>
      </trkpt>
      <trkpt lat="45.1056" lon="6.58448">
        <ele>2672</ele>
        <time>2021-07-15T08:28:57Z</time>
      </trkpt>
      <trkpt lat="45.10564" lon="6.58431">
        <ele>2672</ele>
        <time>2021-07-15T08:29:11Z</time>
      </trkpt>
      <trkpt lat="45.10564" lon="6.58423">
        <ele>2673</ele>
        <time>2021-07-15T08:29:20Z</time>
      </trkpt>
      <trkpt lat="45.10562" lon="6.58414">
        <ele>2672</ele>
        <time>2021-07-15T08:29:25Z</time>
      </trkpt>
      <trkpt lat="45.10563" lon="6.58404">
        <ele>2673</ele>
        <time>2021-07-15T08:29:33Z</time>
      </trkpt>
      <trkpt lat="45.10564" lon="6.58386">
        <ele>2676</ele>
        <time>2021-07-15T08:29:47Z</time>
      </trkpt>
      <trkpt lat="45.10567" lon="6.58358">
        <ele>2679</ele>
        <time>2021-07-15T08:30:12Z</time>
      </trkpt>
      <trkpt lat="45.10564" lon="6.58328">
        <ele>2683</ele>
        <time>2021-07-15T08:30:38Z</time>
      </trkpt>
      <trkpt lat="45.10572" lon="6.5829">
        <ele>2687</ele>
        <time>2021-07-15T08:31:13Z</time>
      </trkpt>
      <trkpt lat="45.10573" lon="6.58283">
        <ele>2687</ele>
        <time>2021-07-15T08:31:19Z</time>
      </trkpt>
      <trkpt lat="45.10575" lon="6.58259">
        <ele>2689</ele>
        <time>2021-07-15T08:31:41Z</time>
      </trkpt>
      <trkpt lat="45.1058" lon="6.58241">
        <ele>2692</ele>
        <time>2021-07-15T08:31:56Z</time>
      </trkpt>
      <trkpt lat="45.10581" lon="6.58232">
        <ele>2694</ele>
        <time>2021-07-15T08:32:05Z</time>
      </trkpt>
      <trkpt lat="45.1058" lon="6.58218">
        <ele>2696</ele>
        <time>2021-07-15T08:32:16Z</time>
      </trkpt>
      <trkpt lat="45.10581" lon="6.58201">
        <ele>2698</ele>
        <time>2021-07-15T08:32:32Z</time>
      </trkpt>
      <trkpt lat="45.10582" lon="6.5819">
        <ele>2701</ele>
        <time>2021-07-15T08:32:44Z</time>
      </trkpt>
      <trkpt lat="45.10584" lon="6.58175">
        <ele>2701</ele>
        <time>2021-07-15T08:32:56Z</time>
      </trkpt>
      <trkpt lat="45.10586" lon="6.58167">
        <ele>2702</ele>
        <time>2021-07-15T08:33:02Z</time>
      </trkpt>
      <trkpt lat="45.10586" lon="6.58158">
        <ele>2703</ele>
        <time>2021-07-15T08:33:08Z</time>
      </trkpt>
      <trkpt lat="45.10592" lon="6.58141">
        <ele>2706</ele>
        <time>2021-07-15T08:33:21Z</time>
      </trkpt>
      <trkpt lat="45.10592" lon="6.58134">
        <ele>2706</ele>
        <time>2021-07-15T08:33:26Z</time>
      </trkpt>
      <trkpt lat="45.10604" lon="6.58092">
        <ele>2708</ele>
        <time>2021-07-15T08:33:59Z</time>
      </trkpt>
      <trkpt lat="45.10607" lon="6.5808">
        <ele>2708</ele>
        <time>2021-07-15T08:34:08Z</time>
      </trkpt>
      <trkpt lat="45.1061" lon="6.58073">
        <ele>2708</ele>
        <time>2021-07-15T08:34:16Z</time>
      </trkpt>
      <trkpt lat="45.10612" lon="6.58063">
        <ele>2709</ele>
        <time>2021-07-15T08:34:27Z</time>
      </trkpt>
      <trkpt lat="45.10613" lon="6.58051">
        <ele>2710</ele>
        <time>2021-07-15T08:34:38Z</time>
      </trkpt>
      <trkpt lat="45.1062" lon="6.58045">
        <ele>2712</ele>
        <time>2021-07-15T08:34:49Z</time>
      </trkpt>
      <trkpt lat="45.10626" lon="6.58033">
        <ele>2713</ele>
        <time>2021-07-15T08:35:00Z</time>
      </trkpt>
      <trkpt lat="45.10642" lon="6.58022">
        <ele>2716</ele>
        <time>2021-07-15T08:35:21Z</time>
      </trkpt>
      <trkpt lat="45.10648" lon="6.58021">
        <ele>2717</ele>
        <time>2021-07-15T08:35:27Z</time>
      </trkpt>
      <trkpt lat="45.10654" lon="6.58014">
        <ele>2718</ele>
        <time>2021-07-15T08:35:36Z</time>
      </trkpt>
      <trkpt lat="45.10656" lon="6.58006">
        <ele>2718</ele>
        <time>2021-07-15T08:35:41Z</time>
      </trkpt>
      <trkpt lat="45.10662" lon="6.58003">
        <ele>2718</ele>
        <time>2021-07-15T08:35:48Z</time>
      </trkpt>
      <trkpt lat="45.10667" lon="6.57998">
        <ele>2718</ele>
        <time>2021-07-15T08:35:54Z</time>
      </trkpt>
      <trkpt lat="45.10675" lon="6.57981">
        <ele>2720</ele>
        <time>2021-07-15T08:36:09Z</time>
      </trkpt>
      <trkpt lat="45.10675" lon="6.57972">
        <ele>2720</ele>
        <time>2021-07-15T08:36:14Z</time>
      </trkpt>
      <trkpt lat="45.10677" lon="6.57965">
        <ele>2720</ele>
        <time>2021-07-15T08:36:23Z</time>
      </trkpt>
      <trkpt lat="45.10679" lon="6.57961">
        <ele>2720</ele>
        <time>2021-07-15T08:36:28Z</time>
      </trkpt>
      <trkpt lat="45.10682" lon="6.57953">
        <ele>2719</ele>
        <time>2021-07-15T08:36:34Z</time>
      </trkpt>
      <trkpt lat="45.10687" lon="6.5795">
        <ele>2719</ele>
        <time>2021-07-15T08:36:40Z</time>
      </trkpt>
      <trkpt lat="45.1069" lon="6.57941">
        <ele>2718</ele>
        <time>2021-07-15T08:36:48Z</time>
      </trkpt>
      <trkpt lat="45.10694" lon="6.57932">
        <ele>2719</ele>
        <time>2021-07-15T08:37:00Z</time>
      </trkpt>
      <trkpt lat="45.10697" lon="6.57905">
        <ele>2719</ele>
        <time>2021-07-15T08:37:16Z</time>
      </trkpt>
      <trkpt lat="45.107" lon="6.57883">
        <ele>2721</ele>
        <time>2021-07-15T08:37:33Z</time>
      </trkpt>
      <trkpt lat="45.10701" lon="6.57876">
        <ele>2719</ele>
        <time>2021-07-15T08:37:38Z</time>
      </trkpt>
      <trkpt lat="45.10703" lon="6.57856">
        <ele>2718</ele>
        <time>2021-07-15T08:37:54Z</time>
      </trkpt>
      <trkpt lat="45.10703" lon="6.57849">
        <ele>2717</ele>
        <time>2021-07-15T08:37:58Z</time>
      </trkpt>
      <trkpt lat="45.10705" lon="6.5784">
        <ele>2717</ele>
        <time>2021-07-15T08:38:02Z</time>
      </trkpt>
      <trkpt lat="45.10707" lon="6.57833">
        <ele>2718</ele>
        <time>2021-07-15T08:38:06Z</time>
      </trkpt>
      <trkpt lat="45.10711" lon="6.57826">
        <ele>2717</ele>
        <time>2021-07-15T08:38:12Z</time>
      </trkpt>
      <trkpt lat="45.10715" lon="6.57815">
        <ele>2719</ele>
        <time>2021-07-15T08:38:26Z</time>
      </trkpt>
      <trkpt lat="45.10715" lon="6.57807">
        <ele>2720</ele>
        <time>2021-07-15T08:38:30Z</time>
      </trkpt>
      <trkpt lat="45.10718" lon="6.57798">
        <ele>2719</ele>
        <time>2021-07-15T08:38:37Z</time>
      </trkpt>
      <trkpt lat="45.10725" lon="6.57793">
        <ele>2720</ele>
        <time>2021-07-15T08:38:46Z</time>
      </trkpt>
      <trkpt lat="45.10729" lon="6.57783">
        <ele>2720</ele>
        <time>2021-07-15T08:38:54Z</time>
      </trkpt>
      <trkpt lat="45.10733" lon="6.57774">
        <ele>2721</ele>
        <time>2021-07-15T08:39:04Z</time>
      </trkpt>
      <trkpt lat="45.10735" lon="6.57767">
        <ele>2720</ele>
        <time>2021-07-15T08:39:09Z</time>
      </trkpt>
      <trkpt lat="45.10738" lon="6.57759">
        <ele>2722</ele>
        <time>2021-07-15T08:39:15Z</time>
      </trkpt>
      <trkpt lat="45.10741" lon="6.57749">
        <ele>2722</ele>
        <time>2021-07-15T08:39:23Z</time>
      </trkpt>
      <trkpt lat="45.10743" lon="6.57741">
        <ele>2723</ele>
        <time>2021-07-15T08:39:27Z</time>
      </trkpt>
      <trkpt lat="45.10748" lon="6.57735">
        <ele>2723</ele>
        <time>2021-07-15T08:39:35Z</time>
      </trkpt>
      <trkpt lat="45.10752" lon="6.57728">
        <ele>2722</ele>
        <time>2021-07-15T08:39:41Z</time>
      </trkpt>
      <trkpt lat="45.10753" lon="6.5772">
        <ele>2723</ele>
        <time>2021-07-15T08:39:47Z</time>
      </trkpt>
      <trkpt lat="45.10754" lon="6.57712">
        <ele>2727</ele>
        <time>2021-07-15T08:39:55Z</time>
      </trkpt>
      <trkpt lat="45.10752" lon="6.57714">
        <ele>2725</ele>
        <time>2021-07-15T08:42:43Z</time>
      </trkpt>
      <trkpt lat="45.10751" lon="6.57704">
        <ele>2732</ele>
        <time>2021-07-15T08:42:50Z</time>
      </trkpt>
      <trkpt lat="45.10749" lon="6.5769">
        <ele>2731</ele>
        <time>2021-07-15T08:43:01Z</time>
      </trkpt>
      <trkpt lat="45.10749" lon="6.57678">
        <ele>2729</ele>
        <time>2021-07-15T08:43:13Z</time>
      </trkpt>
      <trkpt lat="45.10749" lon="6.57669">
        <ele>2730</ele>
        <time>2021-07-15T08:43:25Z</time>
      </trkpt>
      <trkpt lat="45.10747" lon="6.57661">
        <ele>2731</ele>
        <time>2021-07-15T08:43:42Z</time>
      </trkpt>
      <trkpt lat="45.1074" lon="6.57655">
        <ele>2733</ele>
        <time>2021-07-15T08:43:54Z</time>
      </trkpt>
      <trkpt lat="45.10739" lon="6.57646">
        <ele>2737</ele>
        <time>2021-07-15T08:44:12Z</time>
      </trkpt>
      <trkpt lat="45.10737" lon="6.57638">
        <ele>2740</ele>
        <time>2021-07-15T08:44:36Z</time>
      </trkpt>
      <trkpt lat="45.1074" lon="6.57632">
        <ele>2739</ele>
        <time>2021-07-15T08:44:42Z</time>
      </trkpt>
      <trkpt lat="45.10747" lon="6.57627">
        <ele>2742</ele>
        <time>2021-07-15T08:44:56Z</time>
      </trkpt>
      <trkpt lat="45.10745" lon="6.57619">
        <ele>2748</ele>
        <time>2021-07-15T08:45:20Z</time>
      </trkpt>
      <trkpt lat="45.10734" lon="6.57606">
        <ele>2748</ele>
        <time>2021-07-15T08:45:40Z</time>
      </trkpt>
      <trkpt lat="45.10731" lon="6.57594">
        <ele>2752</ele>
        <time>2021-07-15T08:45:55Z</time>
      </trkpt>
      <trkpt lat="45.10732" lon="6.57584">
        <ele>2754</ele>
        <time>2021-07-15T08:46:07Z</time>
      </trkpt>
      <trkpt lat="45.10737" lon="6.57574">
        <ele>2757</ele>
        <time>2021-07-15T08:46:25Z</time>
      </trkpt>
      <trkpt lat="45.10739" lon="6.57561">
        <ele>2760</ele>
        <time>2021-07-15T08:46:49Z</time>
      </trkpt>
      <trkpt lat="45.10738" lon="6.57553">
        <ele>2761</ele>
        <time>2021-07-15T08:47:01Z</time>
      </trkpt>
      <trkpt lat="45.10743" lon="6.57548">
        <ele>2763</ele>
        <time>2021-07-15T08:47:13Z</time>
      </trkpt>
      <trkpt lat="45.10745" lon="6.57541">
        <ele>2765</ele>
        <time>2021-07-15T08:47:25Z</time>
      </trkpt>
      <trkpt lat="45.10755" lon="6.57529">
        <ele>2768</ele>
        <time>2021-07-15T08:47:50Z</time>
      </trkpt>
      <trkpt lat="45.10747" lon="6.5752">
        <ele>2771</ele>
        <time>2021-07-15T08:48:14Z</time>
      </trkpt>
      <trkpt lat="45.1075" lon="6.57511">
        <ele>2772</ele>
        <time>2021-07-15T08:48:22Z</time>
      </trkpt>
      <trkpt lat="45.10749" lon="6.575">
        <ele>2776</ele>
        <time>2021-07-15T08:48:47Z</time>
      </trkpt>
      <trkpt lat="45.10745" lon="6.57492">
        <ele>2778</ele>
        <time>2021-07-15T08:49:02Z</time>
      </trkpt>
      <trkpt lat="45.10745" lon="6.5748">
        <ele>2778</ele>
        <time>2021-07-15T08:49:14Z</time>
      </trkpt>
      <trkpt lat="45.1075" lon="6.57456">
        <ele>2785</ele>
        <time>2021-07-15T08:49:50Z</time>
      </trkpt>
      <trkpt lat="45.10746" lon="6.57447">
        <ele>2786</ele>
        <time>2021-07-15T08:50:02Z</time>
      </trkpt>
      <trkpt lat="45.10742" lon="6.57439">
        <ele>2789</ele>
        <time>2021-07-15T08:50:13Z</time>
      </trkpt>
      <trkpt lat="45.10738" lon="6.5743">
        <ele>2791</ele>
        <time>2021-07-15T08:50:31Z</time>
      </trkpt>
      <trkpt lat="45.10737" lon="6.57418">
        <ele>2793</ele>
        <time>2021-07-15T08:50:47Z</time>
      </trkpt>
      <trkpt lat="45.1073" lon="6.57408">
        <ele>2796</ele>
        <time>2021-07-15T08:51:05Z</time>
      </trkpt>
      <trkpt lat="45.10736" lon="6.57398">
        <ele>2799</ele>
        <time>2021-07-15T08:51:24Z</time>
      </trkpt>
      <trkpt lat="45.10731" lon="6.57385">
        <ele>2807</ele>
        <time>2021-07-15T08:53:04Z</time>
      </trkpt>
      <trkpt lat="45.1072" lon="6.57357">
        <ele>2816</ele>
        <time>2021-07-15T08:53:54Z</time>
      </trkpt>
      <trkpt lat="45.10706" lon="6.57369">
        <ele>2822</ele>
        <time>2021-07-15T08:55:14Z</time>
      </trkpt>
      <trkpt lat="45.10699" lon="6.57374">
        <ele>2826</ele>
        <time>2021-07-15T08:55:57Z</time>
      </trkpt>
      <trkpt lat="45.10701" lon="6.57364">
        <ele>2831</ele>
        <time>2021-07-15T08:56:21Z</time>
      </trkpt>
      <trkpt lat="45.10696" lon="6.57356">
        <ele>2833</ele>
        <time>2021-07-15T08:56:51Z</time>
      </trkpt>
      <trkpt lat="45.10694" lon="6.57342">
        <ele>2836</ele>
        <time>2021-07-15T08:57:08Z</time>
      </trkpt>
      <trkpt lat="45.1069" lon="6.57333">
        <ele>2839</ele>
        <time>2021-07-15T08:57:26Z</time>
      </trkpt>
      <trkpt lat="45.10695" lon="6.57311">
        <ele>2842</ele>
        <time>2021-07-15T08:58:09Z</time>
      </trkpt>
      <trkpt lat="45.107" lon="6.57305">
        <ele>2844</ele>
        <time>2021-07-15T08:58:17Z</time>
      </trkpt>
      <trkpt lat="45.10704" lon="6.57299">
        <ele>2846</ele>
        <time>2021-07-15T08:58:32Z</time>
      </trkpt>
      <trkpt lat="45.1071" lon="6.57301">
        <ele>2848</ele>
        <time>2021-07-15T08:58:44Z</time>
      </trkpt>
      <trkpt lat="45.10721" lon="6.57278">
        <ele>2855</ele>
        <time>2021-07-15T08:59:38Z</time>
      </trkpt>
      <trkpt lat="45.10736" lon="6.57276">
        <ele>2859</ele>
        <time>2021-07-15T09:00:14Z</time>
      </trkpt>
      <trkpt lat="45.10739" lon="6.57268">
        <ele>2861</ele>
        <time>2021-07-15T09:00:20Z</time>
      </trkpt>
      <trkpt lat="45.10745" lon="6.57258">
        <ele>2863</ele>
        <time>2021-07-15T09:00:46Z</time>
      </trkpt>
      <trkpt lat="45.10751" lon="6.57252">
        <ele>2864</ele>
        <time>2021-07-15T09:00:58Z</time>
      </trkpt>
      <trkpt lat="45.10756" lon="6.57242">
        <ele>2865</ele>
        <time>2021-07-15T09:01:16Z</time>
      </trkpt>
      <trkpt lat="45.10762" lon="6.57221">
        <ele>2869</ele>
        <time>2021-07-15T09:01:40Z</time>
      </trkpt>
      <trkpt lat="45.10766" lon="6.57211">
        <ele>2871</ele>
        <time>2021-07-15T09:01:58Z</time>
      </trkpt>
      <trkpt lat="45.10771" lon="6.57191">
        <ele>2878</ele>
        <time>2021-07-15T09:02:53Z</time>
      </trkpt>
      <trkpt lat="45.10779" lon="6.57186">
        <ele>2880</ele>
        <time>2021-07-15T09:03:10Z</time>
      </trkpt>
      <trkpt lat="45.10782" lon="6.57174">
        <ele>2882</ele>
        <time>2021-07-15T09:03:44Z</time>
      </trkpt>
      <trkpt lat="45.10789" lon="6.57177">
        <ele>2884</ele>
        <time>2021-07-15T09:04:02Z</time>
      </trkpt>
      <trkpt lat="45.10809" lon="6.57184">
        <ele>2892</ele>
        <time>2021-07-15T09:04:38Z</time>
      </trkpt>
      <trkpt lat="45.10816" lon="6.57179">
        <ele>2895</ele>
        <time>2021-07-15T09:05:02Z</time>
      </trkpt>
      <trkpt lat="45.1082" lon="6.57172">
        <ele>2899</ele>
        <time>2021-07-15T09:05:20Z</time>
      </trkpt>
      <trkpt lat="45.1082" lon="6.5716">
        <ele>2899</ele>
        <time>2021-07-15T09:05:28Z</time>
      </trkpt>
      <trkpt lat="45.10819" lon="6.57149">
        <ele>2900</ele>
        <time>2021-07-15T09:05:41Z</time>
      </trkpt>
      <trkpt lat="45.10827" lon="6.57144">
        <ele>2903</ele>
        <time>2021-07-15T09:06:05Z</time>
      </trkpt>
      <trkpt lat="45.10832" lon="6.57136">
        <ele>2906</ele>
        <time>2021-07-15T09:06:19Z</time>
      </trkpt>
      <trkpt lat="45.10835" lon="6.5715">
        <ele>2908</ele>
        <time>2021-07-15T09:06:37Z</time>
      </trkpt>
      <trkpt lat="45.10843" lon="6.57148">
        <ele>2910</ele>
        <time>2021-07-15T09:06:57Z</time>
      </trkpt>
      <trkpt lat="45.1085" lon="6.57143">
        <ele>2909</ele>
        <time>2021-07-15T09:07:09Z</time>
      </trkpt>
      <trkpt lat="45.10856" lon="6.57129">
        <ele>2908</ele>
        <time>2021-07-15T09:07:23Z</time>
      </trkpt>
      <trkpt lat="45.10858" lon="6.5712">
        <ele>2910</ele>
        <time>2021-07-15T09:07:28Z</time>
      </trkpt>
      <trkpt lat="45.10861" lon="6.57113">
        <ele>2911</ele>
        <time>2021-07-15T09:07:39Z</time>
      </trkpt>
      <trkpt lat="45.10863" lon="6.57105">
        <ele>2915</ele>
        <time>2021-07-15T09:08:03Z</time>
      </trkpt>
      <trkpt lat="45.10862" lon="6.57095">
        <ele>2918</ele>
        <time>2021-07-15T09:08:21Z</time>
      </trkpt>
      <trkpt lat="45.1086" lon="6.57084">
        <ele>2919</ele>
        <time>2021-07-15T09:08:33Z</time>
      </trkpt>
      <trkpt lat="45.10859" lon="6.57074">
        <ele>2923</ele>
        <time>2021-07-15T09:08:51Z</time>
      </trkpt>
      <trkpt lat="45.10868" lon="6.57072">
        <ele>2928</ele>
        <time>2021-07-15T09:09:27Z</time>
      </trkpt>
      <trkpt lat="45.10871" lon="6.57061">
        <ele>2930</ele>
        <time>2021-07-15T09:09:43Z</time>
      </trkpt>
      <trkpt lat="45.10873" lon="6.57054">
        <ele>2935</ele>
        <time>2021-07-15T09:10:03Z</time>
      </trkpt>
      <trkpt lat="45.10879" lon="6.57053">
        <ele>2937</ele>
        <time>2021-07-15T09:10:19Z</time>
      </trkpt>
      <trkpt lat="45.10882" lon="6.57042">
        <ele>2941</ele>
        <time>2021-07-15T09:10:54Z</time>
      </trkpt>
      <trkpt lat="45.10876" lon="6.57041">
        <ele>2943</ele>
        <time>2021-07-15T09:11:23Z</time>
      </trkpt>
      <trkpt lat="45.10879" lon="6.57031">
        <ele>2943</ele>
        <time>2021-07-15T09:12:23Z</time>
      </trkpt>
      <trkpt lat="45.10887" lon="6.57024">
        <ele>2947</ele>
        <time>2021-07-15T09:12:41Z</time>
      </trkpt>
      <trkpt lat="45.10895" lon="6.57015">
        <ele>2947</ele>
        <time>2021-07-15T09:12:53Z</time>
      </trkpt>
      <trkpt lat="45.10903" lon="6.57012">
        <ele>2948</ele>
        <time>2021-07-15T09:13:01Z</time>
      </trkpt>
      <trkpt lat="45.10911" lon="6.57008">
        <ele>2949</ele>
        <time>2021-07-15T09:13:13Z</time>
      </trkpt>
      <trkpt lat="45.10917" lon="6.57008">
        <ele>2949</ele>
        <time>2021-07-15T09:13:19Z</time>
      </trkpt>
      <trkpt lat="45.10923" lon="6.57006">
        <ele>2950</ele>
        <time>2021-07-15T09:13:25Z</time>
      </trkpt>
      <trkpt lat="45.10931" lon="6.57">
        <ele>2951</ele>
        <time>2021-07-15T09:13:36Z</time>
      </trkpt>
      <trkpt lat="45.10935" lon="6.56996">
        <ele>2952</ele>
        <time>2021-07-15T09:13:41Z</time>
      </trkpt>
      <trkpt lat="45.10939" lon="6.56989">
        <ele>2953</ele>
        <time>2021-07-15T09:13:47Z</time>
      </trkpt>
      <trkpt lat="45.10944" lon="6.56987">
        <ele>2954</ele>
        <time>2021-07-15T09:13:55Z</time>
      </trkpt>
      <trkpt lat="45.1095" lon="6.56981">
        <ele>2954</ele>
        <time>2021-07-15T09:14:01Z</time>
      </trkpt>
      <trkpt lat="45.10953" lon="6.56973">
        <ele>2956</ele>
        <time>2021-07-15T09:14:21Z</time>
      </trkpt>
      <trkpt lat="45.10945" lon="6.56968">
        <ele>2958</ele>
        <time>2021-07-15T09:14:34Z</time>
      </trkpt>
      <trkpt lat="45.10942" lon="6.56962">
        <ele>2960</ele>
        <time>2021-07-15T09:14:40Z</time>
      </trkpt>
      <trkpt lat="45.10942" lon="6.56954">
        <ele>2964</ele>
        <time>2021-07-15T09:15:11Z</time>
      </trkpt>
      <trkpt lat="45.10944" lon="6.56945">
        <ele>2965</ele>
        <time>2021-07-15T09:15:21Z</time>
      </trkpt>
      <trkpt lat="45.1095" lon="6.5694">
        <ele>2968</ele>
        <time>2021-07-15T09:15:41Z</time>
      </trkpt>
      <trkpt lat="45.10951" lon="6.56927">
        <ele>2972</ele>
        <time>2021-07-15T09:16:10Z</time>
      </trkpt>
      <trkpt lat="45.10959" lon="6.56915">
        <ele>2978</ele>
        <time>2021-07-15T09:16:40Z</time>
      </trkpt>
      <trkpt lat="45.10958" lon="6.5691">
        <ele>2983</ele>
        <time>2021-07-15T09:17:23Z</time>
      </trkpt>
      <trkpt lat="45.10956" lon="6.56897">
        <ele>2983</ele>
        <time>2021-07-15T09:17:47Z</time>
      </trkpt>
      <trkpt lat="45.10955" lon="6.5689">
        <ele>2987</ele>
        <time>2021-07-15T09:18:11Z</time>
      </trkpt>
      <trkpt lat="45.10959" lon="6.5687">
        <ele>2995</ele>
        <time>2021-07-15T09:18:58Z</time>
      </trkpt>
      <trkpt lat="45.10971" lon="6.56856">
        <ele>3003</ele>
        <time>2021-07-15T09:19:59Z</time>
      </trkpt>
      <trkpt lat="45.1097" lon="6.56855">
        <ele>3004</ele>
        <time>2021-07-15T09:26:15Z</time>
      </trkpt>
      <trkpt lat="45.10974" lon="6.56856">
        <ele>3005</ele>
        <time>2021-07-15T09:28:03Z</time>
      </trkpt>
      <trkpt lat="45.10982" lon="6.56849">
        <ele>3009</ele>
        <time>2021-07-15T09:28:40Z</time>
      </trkpt>
      <trkpt lat="45.10985" lon="6.5684">
        <ele>3010</ele>
        <time>2021-07-15T09:28:48Z</time>
      </trkpt>
      <trkpt lat="45.1098" lon="6.56837">
        <ele>3011</ele>
        <time>2021-07-15T09:29:49Z</time>
      </trkpt>
      <trkpt lat="45.10976" lon="6.56854">
        <ele>3004</ele>
        <time>2021-07-15T09:30:11Z</time>
      </trkpt>
      <trkpt lat="45.10972" lon="6.56856">
        <ele>3004</ele>
        <time>2021-07-15T09:32:06Z</time>
      </trkpt>
      <trkpt lat="45.10968" lon="6.56865">
        <ele>3003</ele>
        <time>2021-07-15T09:32:29Z</time>
      </trkpt>
      <trkpt lat="45.10973" lon="6.56872">
        <ele>3000</ele>
        <time>2021-07-15T09:32:41Z</time>
      </trkpt>
      <trkpt lat="45.10971" lon="6.5688">
        <ele>2998</ele>
        <time>2021-07-15T09:32:49Z</time>
      </trkpt>
      <trkpt lat="45.10959" lon="6.56891">
        <ele>2995</ele>
        <time>2021-07-15T09:33:22Z</time>
      </trkpt>
      <trkpt lat="45.10957" lon="6.56911">
        <ele>2986</ele>
        <time>2021-07-15T09:33:58Z</time>
      </trkpt>
      <trkpt lat="45.10967" lon="6.56912">
        <ele>2985</ele>
        <time>2021-07-15T09:34:17Z</time>
      </trkpt>
      <trkpt lat="45.1097" lon="6.56921">
        <ele>2982</ele>
        <time>2021-07-15T09:34:29Z</time>
      </trkpt>
      <trkpt lat="45.10963" lon="6.56929">
        <ele>2980</ele>
        <time>2021-07-15T09:34:41Z</time>
      </trkpt>
      <trkpt lat="45.10957" lon="6.56943">
        <ele>2976</ele>
        <time>2021-07-15T09:35:29Z</time>
      </trkpt>
      <trkpt lat="45.10956" lon="6.56956">
        <ele>2973</ele>
        <time>2021-07-15T09:35:46Z</time>
      </trkpt>
      <trkpt lat="45.10946" lon="6.56962">
        <ele>2969</ele>
        <time>2021-07-15T09:36:00Z</time>
      </trkpt>
      <trkpt lat="45.10941" lon="6.56967">
        <ele>2967</ele>
        <time>2021-07-15T09:36:10Z</time>
      </trkpt>
      <trkpt lat="45.10946" lon="6.56974">
        <ele>2965</ele>
        <time>2021-07-15T09:36:22Z</time>
      </trkpt>
      <trkpt lat="45.10949" lon="6.56984">
        <ele>2962</ele>
        <time>2021-07-15T09:36:46Z</time>
      </trkpt>
      <trkpt lat="45.10947" lon="6.56995">
        <ele>2958</ele>
        <time>2021-07-15T09:36:58Z</time>
      </trkpt>
      <trkpt lat="45.10941" lon="6.57002">
        <ele>2956</ele>
        <time>2021-07-15T09:37:10Z</time>
      </trkpt>
      <trkpt lat="45.10936" lon="6.57007">
        <ele>2957</ele>
        <time>2021-07-15T09:37:15Z</time>
      </trkpt>
      <trkpt lat="45.1093" lon="6.57011">
        <ele>2954</ele>
        <time>2021-07-15T09:37:23Z</time>
      </trkpt>
      <trkpt lat="45.10914" lon="6.57017">
        <ele>2952</ele>
        <time>2021-07-15T09:37:39Z</time>
      </trkpt>
      <trkpt lat="45.10907" lon="6.57022">
        <ele>2951</ele>
        <time>2021-07-15T09:37:52Z</time>
      </trkpt>
      <trkpt lat="45.10901" lon="6.57024">
        <ele>2949</ele>
        <time>2021-07-15T09:38:08Z</time>
      </trkpt>
      <trkpt lat="45.10898" lon="6.57029">
        <ele>2948</ele>
        <time>2021-07-15T09:38:13Z</time>
      </trkpt>
      <trkpt lat="45.10886" lon="6.57036">
        <ele>2947</ele>
        <time>2021-07-15T09:38:30Z</time>
      </trkpt>
      <trkpt lat="45.10871" lon="6.57057">
        <ele>2941</ele>
        <time>2021-07-15T09:38:58Z</time>
      </trkpt>
      <trkpt lat="45.10875" lon="6.57063">
        <ele>2938</ele>
        <time>2021-07-15T09:39:10Z</time>
      </trkpt>
      <trkpt lat="45.10876" lon="6.57073">
        <ele>2933</ele>
        <time>2021-07-15T09:39:29Z</time>
      </trkpt>
      <trkpt lat="45.10872" lon="6.57084">
        <ele>2929</ele>
        <time>2021-07-15T09:39:42Z</time>
      </trkpt>
      <trkpt lat="45.10866" lon="6.57086">
        <ele>2928</ele>
        <time>2021-07-15T09:39:49Z</time>
      </trkpt>
      <trkpt lat="45.1086" lon="6.5709">
        <ele>2924</ele>
        <time>2021-07-15T09:40:00Z</time>
      </trkpt>
      <trkpt lat="45.10864" lon="6.57102">
        <ele>2920</ele>
        <time>2021-07-15T09:40:14Z</time>
      </trkpt>
      <trkpt lat="45.10863" lon="6.57116">
        <ele>2917</ele>
        <time>2021-07-15T09:40:27Z</time>
      </trkpt>
      <trkpt lat="45.10866" lon="6.57129">
        <ele>2913</ele>
        <time>2021-07-15T09:40:52Z</time>
      </trkpt>
      <trkpt lat="45.10864" lon="6.57137">
        <ele>2911</ele>
        <time>2021-07-15T09:40:57Z</time>
      </trkpt>
      <trkpt lat="45.10861" lon="6.57144">
        <ele>2910</ele>
        <time>2021-07-15T09:41:01Z</time>
      </trkpt>
      <trkpt lat="45.10854" lon="6.57147">
        <ele>2910</ele>
        <time>2021-07-15T09:41:08Z</time>
      </trkpt>
      <trkpt lat="45.10848" lon="6.5714">
        <ele>2910</ele>
        <time>2021-07-15T09:41:16Z</time>
      </trkpt>
      <trkpt lat="45.10842" lon="6.57133">
        <ele>2910</ele>
        <time>2021-07-15T09:41:23Z</time>
      </trkpt>
      <trkpt lat="45.10838" lon="6.57138">
        <ele>2910</ele>
        <time>2021-07-15T09:41:28Z</time>
      </trkpt>
      <trkpt lat="45.10824" lon="6.57147">
        <ele>2903</ele>
        <time>2021-07-15T09:41:58Z</time>
      </trkpt>
      <trkpt lat="45.10819" lon="6.57153">
        <ele>2899</ele>
        <time>2021-07-15T09:42:10Z</time>
      </trkpt>
      <trkpt lat="45.1081" lon="6.57161">
        <ele>2896</ele>
        <time>2021-07-15T09:42:22Z</time>
      </trkpt>
      <trkpt lat="45.10812" lon="6.57169">
        <ele>2896</ele>
        <time>2021-07-15T09:42:26Z</time>
      </trkpt>
      <trkpt lat="45.1081" lon="6.57178">
        <ele>2894</ele>
        <time>2021-07-15T09:42:35Z</time>
      </trkpt>
      <trkpt lat="45.10804" lon="6.57176">
        <ele>2892</ele>
        <time>2021-07-15T09:42:41Z</time>
      </trkpt>
      <trkpt lat="45.10796" lon="6.57181">
        <ele>2891</ele>
        <time>2021-07-15T09:43:04Z</time>
      </trkpt>
      <trkpt lat="45.10788" lon="6.57196">
        <ele>2884</ele>
        <time>2021-07-15T09:43:23Z</time>
      </trkpt>
      <trkpt lat="45.10766" lon="6.57223">
        <ele>2875</ele>
        <time>2021-07-15T09:43:53Z</time>
      </trkpt>
      <trkpt lat="45.10751" lon="6.57251">
        <ele>2868</ele>
        <time>2021-07-15T09:44:26Z</time>
      </trkpt>
      <trkpt lat="45.1074" lon="6.57271">
        <ele>2864</ele>
        <time>2021-07-15T09:44:45Z</time>
      </trkpt>
      <trkpt lat="45.10743" lon="6.5728">
        <ele>2863</ele>
        <time>2021-07-15T09:44:51Z</time>
      </trkpt>
      <trkpt lat="45.10739" lon="6.57289">
        <ele>2861</ele>
        <time>2021-07-15T09:45:07Z</time>
      </trkpt>
      <trkpt lat="45.10731" lon="6.57291">
        <ele>2855</ele>
        <time>2021-07-15T09:45:25Z</time>
      </trkpt>
      <trkpt lat="45.10725" lon="6.57299">
        <ele>2852</ele>
        <time>2021-07-15T09:45:42Z</time>
      </trkpt>
      <trkpt lat="45.10718" lon="6.5731">
        <ele>2848</ele>
        <time>2021-07-15T09:46:00Z</time>
      </trkpt>
      <trkpt lat="45.10704" lon="6.57327">
        <ele>2843</ele>
        <time>2021-07-15T09:46:24Z</time>
      </trkpt>
      <trkpt lat="45.10697" lon="6.57332">
        <ele>2840</ele>
        <time>2021-07-15T09:46:32Z</time>
      </trkpt>
      <trkpt lat="45.10697" lon="6.5734">
        <ele>2840</ele>
        <time>2021-07-15T09:46:38Z</time>
      </trkpt>
      <trkpt lat="45.10704" lon="6.57335">
        <ele>2838</ele>
        <time>2021-07-15T09:47:45Z</time>
      </trkpt>
      <trkpt lat="45.10708" lon="6.57342">
        <ele>2833</ele>
        <time>2021-07-15T09:48:45Z</time>
      </trkpt>
      <trkpt lat="45.10702" lon="6.57349">
        <ele>2832</ele>
        <time>2021-07-15T09:48:53Z</time>
      </trkpt>
      <trkpt lat="45.10705" lon="6.57357">
        <ele>2830</ele>
        <time>2021-07-15T09:49:07Z</time>
      </trkpt>
      <trkpt lat="45.10696" lon="6.57374">
        <ele>2825</ele>
        <time>2021-07-15T09:49:32Z</time>
      </trkpt>
      <trkpt lat="45.10705" lon="6.57374">
        <ele>2823</ele>
        <time>2021-07-15T09:50:01Z</time>
      </trkpt>
      <trkpt lat="45.10715" lon="6.57375">
        <ele>2819</ele>
        <time>2021-07-15T09:50:16Z</time>
      </trkpt>
      <trkpt lat="45.1073" lon="6.57368">
        <ele>2813</ele>
        <time>2021-07-15T09:50:49Z</time>
      </trkpt>
      <trkpt lat="45.10736" lon="6.57379">
        <ele>2806</ele>
        <time>2021-07-15T09:51:19Z</time>
      </trkpt>
      <trkpt lat="45.10745" lon="6.57382">
        <ele>2803</ele>
        <time>2021-07-15T09:51:30Z</time>
      </trkpt>
      <trkpt lat="45.10739" lon="6.57393">
        <ele>2801</ele>
        <time>2021-07-15T09:51:44Z</time>
      </trkpt>
      <trkpt lat="45.10742" lon="6.57402">
        <ele>2800</ele>
        <time>2021-07-15T09:51:52Z</time>
      </trkpt>
      <trkpt lat="45.10748" lon="6.57412">
        <ele>2795</ele>
        <time>2021-07-15T09:52:06Z</time>
      </trkpt>
      <trkpt lat="45.10752" lon="6.57421">
        <ele>2794</ele>
        <time>2021-07-15T09:52:14Z</time>
      </trkpt>
      <trkpt lat="45.10751" lon="6.5743">
        <ele>2793</ele>
        <time>2021-07-15T09:52:22Z</time>
      </trkpt>
      <trkpt lat="45.10746" lon="6.57437">
        <ele>2791</ele>
        <time>2021-07-15T09:52:28Z</time>
      </trkpt>
      <trkpt lat="45.10745" lon="6.57448">
        <ele>2789</ele>
        <time>2021-07-15T09:52:38Z</time>
      </trkpt>
      <trkpt lat="45.10749" lon="6.57453">
        <ele>2787</ele>
        <time>2021-07-15T09:52:46Z</time>
      </trkpt>
      <trkpt lat="45.10759" lon="6.57473">
        <ele>2782</ele>
        <time>2021-07-15T09:53:11Z</time>
      </trkpt>
      <trkpt lat="45.10753" lon="6.5748">
        <ele>2781</ele>
        <time>2021-07-15T09:53:17Z</time>
      </trkpt>
      <trkpt lat="45.10752" lon="6.57488">
        <ele>2780</ele>
        <time>2021-07-15T09:53:21Z</time>
      </trkpt>
      <trkpt lat="45.10754" lon="6.57497">
        <ele>2778</ele>
        <time>2021-07-15T09:53:30Z</time>
      </trkpt>
      <trkpt lat="45.1076" lon="6.57505">
        <ele>2776</ele>
        <time>2021-07-15T09:53:39Z</time>
      </trkpt>
      <trkpt lat="45.1075" lon="6.57523">
        <ele>2770</ele>
        <time>2021-07-15T09:54:01Z</time>
      </trkpt>
      <trkpt lat="45.10752" lon="6.5753">
        <ele>2769</ele>
        <time>2021-07-15T09:54:07Z</time>
      </trkpt>
      <trkpt lat="45.10747" lon="6.5754">
        <ele>2765</ele>
        <time>2021-07-15T09:54:23Z</time>
      </trkpt>
      <trkpt lat="45.10744" lon="6.57546">
        <ele>2763</ele>
        <time>2021-07-15T09:54:28Z</time>
      </trkpt>
      <trkpt lat="45.10739" lon="6.57558">
        <ele>2760</ele>
        <time>2021-07-15T09:55:07Z</time>
      </trkpt>
      <trkpt lat="45.10735" lon="6.5757">
        <ele>2756</ele>
        <time>2021-07-15T09:55:19Z</time>
      </trkpt>
      <trkpt lat="45.10736" lon="6.57579">
        <ele>2755</ele>
        <time>2021-07-15T09:55:25Z</time>
      </trkpt>
      <trkpt lat="45.10728" lon="6.57594">
        <ele>2750</ele>
        <time>2021-07-15T09:55:39Z</time>
      </trkpt>
      <trkpt lat="45.10735" lon="6.57617">
        <ele>2747</ele>
        <time>2021-07-15T09:55:54Z</time>
      </trkpt>
      <trkpt lat="45.10735" lon="6.57628">
        <ele>2746</ele>
        <time>2021-07-15T09:56:03Z</time>
      </trkpt>
      <trkpt lat="45.10735" lon="6.57636">
        <ele>2743</ele>
        <time>2021-07-15T09:56:09Z</time>
      </trkpt>
      <trkpt lat="45.10737" lon="6.57645">
        <ele>2741</ele>
        <time>2021-07-15T09:56:13Z</time>
      </trkpt>
      <trkpt lat="45.10736" lon="6.57654">
        <ele>2736</ele>
        <time>2021-07-15T09:56:22Z</time>
      </trkpt>
      <trkpt lat="45.10738" lon="6.57662">
        <ele>2734</ele>
        <time>2021-07-15T09:56:26Z</time>
      </trkpt>
      <trkpt lat="45.1074" lon="6.5767">
        <ele>2734</ele>
        <time>2021-07-15T09:56:30Z</time>
      </trkpt>
      <trkpt lat="45.10747" lon="6.57674">
        <ele>2731</ele>
        <time>2021-07-15T09:56:38Z</time>
      </trkpt>
      <trkpt lat="45.1075" lon="6.57687">
        <ele>2726</ele>
        <time>2021-07-15T09:56:54Z</time>
      </trkpt>
      <trkpt lat="45.10751" lon="6.57694">
        <ele>2725</ele>
        <time>2021-07-15T09:56:58Z</time>
      </trkpt>
      <trkpt lat="45.10752" lon="6.57703">
        <ele>2725</ele>
        <time>2021-07-15T09:57:04Z</time>
      </trkpt>
      <trkpt lat="45.10755" lon="6.5771">
        <ele>2724</ele>
        <time>2021-07-15T09:57:10Z</time>
      </trkpt>
      <trkpt lat="45.10756" lon="6.57722">
        <ele>2726</ele>
        <time>2021-07-15T09:57:24Z</time>
      </trkpt>
      <trkpt lat="45.10748" lon="6.57733">
        <ele>2725</ele>
        <time>2021-07-15T09:57:35Z</time>
      </trkpt>
      <trkpt lat="45.10744" lon="6.57739">
        <ele>2724</ele>
        <time>2021-07-15T09:57:41Z</time>
      </trkpt>
      <trkpt lat="45.10741" lon="6.57747">
        <ele>2724</ele>
        <time>2021-07-15T09:57:45Z</time>
      </trkpt>
      <trkpt lat="45.10737" lon="6.57761">
        <ele>2723</ele>
        <time>2021-07-15T09:57:53Z</time>
      </trkpt>
      <trkpt lat="45.10734" lon="6.57767">
        <ele>2723</ele>
        <time>2021-07-15T09:57:57Z</time>
      </trkpt>
      <trkpt lat="45.1073" lon="6.57773">
        <ele>2722</ele>
        <time>2021-07-15T09:58:02Z</time>
      </trkpt>
      <trkpt lat="45.10727" lon="6.57782">
        <ele>2721</ele>
        <time>2021-07-15T09:58:07Z</time>
      </trkpt>
      <trkpt lat="45.10715" lon="6.57804">
        <ele>2719</ele>
        <time>2021-07-15T09:58:23Z</time>
      </trkpt>
      <trkpt lat="45.10711" lon="6.57822">
        <ele>2718</ele>
        <time>2021-07-15T09:58:35Z</time>
      </trkpt>
      <trkpt lat="45.10712" lon="6.57832">
        <ele>2718</ele>
        <time>2021-07-15T09:58:49Z</time>
      </trkpt>
      <trkpt lat="45.10711" lon="6.57831">
        <ele>2719</ele>
        <time>2021-07-15T09:59:35Z</time>
      </trkpt>
      <trkpt lat="45.10709" lon="6.57843">
        <ele>2719</ele>
        <time>2021-07-15T10:00:11Z</time>
      </trkpt>
      <trkpt lat="45.10707" lon="6.57851">
        <ele>2720</ele>
        <time>2021-07-15T10:00:29Z</time>
      </trkpt>
      <trkpt lat="45.10705" lon="6.57862">
        <ele>2722</ele>
        <time>2021-07-15T10:00:47Z</time>
      </trkpt>
      <trkpt lat="45.10704" lon="6.57872">
        <ele>2722</ele>
        <time>2021-07-15T10:00:54Z</time>
      </trkpt>
      <trkpt lat="45.10702" lon="6.57878">
        <ele>2722</ele>
        <time>2021-07-15T10:01:00Z</time>
      </trkpt>
      <trkpt lat="45.10703" lon="6.5789">
        <ele>2723</ele>
        <time>2021-07-15T10:01:31Z</time>
      </trkpt>
      <trkpt lat="45.107" lon="6.57903">
        <ele>2721</ele>
        <time>2021-07-15T10:01:42Z</time>
      </trkpt>
      <trkpt lat="45.107" lon="6.5791">
        <ele>2720</ele>
        <time>2021-07-15T10:01:54Z</time>
      </trkpt>
      <trkpt lat="45.107" lon="6.57919">
        <ele>2720</ele>
        <time>2021-07-15T10:02:54Z</time>
      </trkpt>
      <trkpt lat="45.107" lon="6.57927">
        <ele>2721</ele>
        <time>2021-07-15T10:03:00Z</time>
      </trkpt>
      <trkpt lat="45.10695" lon="6.57939">
        <ele>2719</ele>
        <time>2021-07-15T10:03:10Z</time>
      </trkpt>
      <trkpt lat="45.10691" lon="6.57945">
        <ele>2719</ele>
        <time>2021-07-15T10:03:16Z</time>
      </trkpt>
      <trkpt lat="45.10685" lon="6.57952">
        <ele>2720</ele>
        <time>2021-07-15T10:03:24Z</time>
      </trkpt>
      <trkpt lat="45.10677" lon="6.57975">
        <ele>2721</ele>
        <time>2021-07-15T10:03:45Z</time>
      </trkpt>
      <trkpt lat="45.10675" lon="6.57982">
        <ele>2721</ele>
        <time>2021-07-15T10:03:51Z</time>
      </trkpt>
      <trkpt lat="45.10674" lon="6.57993">
        <ele>2720</ele>
        <time>2021-07-15T10:03:58Z</time>
      </trkpt>
      <trkpt lat="45.1067" lon="6.58">
        <ele>2719</ele>
        <time>2021-07-15T10:04:03Z</time>
      </trkpt>
      <trkpt lat="45.10664" lon="6.58003">
        <ele>2718</ele>
        <time>2021-07-15T10:04:07Z</time>
      </trkpt>
      <trkpt lat="45.10659" lon="6.58007">
        <ele>2719</ele>
        <time>2021-07-15T10:04:13Z</time>
      </trkpt>
      <trkpt lat="45.10649" lon="6.58017">
        <ele>2721</ele>
        <time>2021-07-15T10:04:27Z</time>
      </trkpt>
      <trkpt lat="45.10642" lon="6.58023">
        <ele>2721</ele>
        <time>2021-07-15T10:04:37Z</time>
      </trkpt>
      <trkpt lat="45.10626" lon="6.58042">
        <ele>2716</ele>
        <time>2021-07-15T10:04:59Z</time>
      </trkpt>
      <trkpt lat="45.10622" lon="6.58053">
        <ele>2715</ele>
        <time>2021-07-15T10:05:09Z</time>
      </trkpt>
      <trkpt lat="45.10617" lon="6.58057">
        <ele>2714</ele>
        <time>2021-07-15T10:05:15Z</time>
      </trkpt>
      <trkpt lat="45.10614" lon="6.58065">
        <ele>2713</ele>
        <time>2021-07-15T10:05:23Z</time>
      </trkpt>
      <trkpt lat="45.10612" lon="6.58073">
        <ele>2713</ele>
        <time>2021-07-15T10:05:29Z</time>
      </trkpt>
      <trkpt lat="45.1061" lon="6.58078">
        <ele>2712</ele>
        <time>2021-07-15T10:05:33Z</time>
      </trkpt>
      <trkpt lat="45.10605" lon="6.58085">
        <ele>2710</ele>
        <time>2021-07-15T10:05:43Z</time>
      </trkpt>
      <trkpt lat="45.106" lon="6.58102">
        <ele>2709</ele>
        <time>2021-07-15T10:05:54Z</time>
      </trkpt>
      <trkpt lat="45.10599" lon="6.58111">
        <ele>2709</ele>
        <time>2021-07-15T10:06:01Z</time>
      </trkpt>
      <trkpt lat="45.10596" lon="6.58121">
        <ele>2708</ele>
        <time>2021-07-15T10:06:08Z</time>
      </trkpt>
      <trkpt lat="45.10594" lon="6.58129">
        <ele>2708</ele>
        <time>2021-07-15T10:06:13Z</time>
      </trkpt>
      <trkpt lat="45.10589" lon="6.58144">
        <ele>2707</ele>
        <time>2021-07-15T10:06:24Z</time>
      </trkpt>
      <trkpt lat="45.10585" lon="6.5816">
        <ele>2706</ele>
        <time>2021-07-15T10:06:32Z</time>
      </trkpt>
      <trkpt lat="45.10584" lon="6.58164">
        <ele>2705</ele>
        <time>2021-07-15T10:06:35Z</time>
      </trkpt>
      <trkpt lat="45.1058" lon="6.58212">
        <ele>2701</ele>
        <time>2021-07-15T10:07:06Z</time>
      </trkpt>
      <trkpt lat="45.10575" lon="6.58264">
        <ele>2692</ele>
        <time>2021-07-15T10:07:39Z</time>
      </trkpt>
      <trkpt lat="45.10574" lon="6.58294">
        <ele>2689</ele>
        <time>2021-07-15T10:07:58Z</time>
      </trkpt>
      <trkpt lat="45.10572" lon="6.58301">
        <ele>2689</ele>
        <time>2021-07-15T10:08:03Z</time>
      </trkpt>
      <trkpt lat="45.10572" lon="6.58309">
        <ele>2688</ele>
        <time>2021-07-15T10:08:07Z</time>
      </trkpt>
      <trkpt lat="45.10571" lon="6.58335">
        <ele>2685</ele>
        <time>2021-07-15T10:08:21Z</time>
      </trkpt>
      <trkpt lat="45.10567" lon="6.58352">
        <ele>2683</ele>
        <time>2021-07-15T10:08:31Z</time>
      </trkpt>
      <trkpt lat="45.10562" lon="6.58403">
        <ele>2677</ele>
        <time>2021-07-15T10:09:01Z</time>
      </trkpt>
      <trkpt lat="45.10562" lon="6.58419">
        <ele>2675</ele>
        <time>2021-07-15T10:09:09Z</time>
      </trkpt>
      <trkpt lat="45.1056" lon="6.58427">
        <ele>2675</ele>
        <time>2021-07-15T10:09:13Z</time>
      </trkpt>
      <trkpt lat="45.10558" lon="6.58446">
        <ele>2674</ele>
        <time>2021-07-15T10:09:27Z</time>
      </trkpt>
      <trkpt lat="45.10553" lon="6.58471">
        <ele>2672</ele>
        <time>2021-07-15T10:09:42Z</time>
      </trkpt>
      <trkpt lat="45.10551" lon="6.58481">
        <ele>2670</ele>
        <time>2021-07-15T10:09:50Z</time>
      </trkpt>
      <trkpt lat="45.10545" lon="6.58512">
        <ele>2668</ele>
        <time>2021-07-15T10:10:07Z</time>
      </trkpt>
      <trkpt lat="45.10542" lon="6.58519">
        <ele>2667</ele>
        <time>2021-07-15T10:10:12Z</time>
      </trkpt>
      <trkpt lat="45.10538" lon="6.58524">
        <ele>2666</ele>
        <time>2021-07-15T10:10:17Z</time>
      </trkpt>
      <trkpt lat="45.10532" lon="6.58537">
        <ele>2667</ele>
        <time>2021-07-15T10:10:27Z</time>
      </trkpt>
      <trkpt lat="45.10533" lon="6.58548">
        <ele>2666</ele>
        <time>2021-07-15T10:10:33Z</time>
      </trkpt>
      <trkpt lat="45.10531" lon="6.58581">
        <ele>2662</ele>
        <time>2021-07-15T10:10:52Z</time>
      </trkpt>
      <trkpt lat="45.10528" lon="6.58604">
        <ele>2661</ele>
        <time>2021-07-15T10:11:09Z</time>
      </trkpt>
      <trkpt lat="45.10517" lon="6.58622">
        <ele>2658</ele>
        <time>2021-07-15T10:11:23Z</time>
      </trkpt>
      <trkpt lat="45.10514" lon="6.5863">
        <ele>2659</ele>
        <time>2021-07-15T10:11:28Z</time>
      </trkpt>
      <trkpt lat="45.10516" lon="6.58638">
        <ele>2658</ele>
        <time>2021-07-15T10:11:32Z</time>
      </trkpt>
      <trkpt lat="45.10518" lon="6.58646">
        <ele>2657</ele>
        <time>2021-07-15T10:11:36Z</time>
      </trkpt>
      <trkpt lat="45.10515" lon="6.58664">
        <ele>2654</ele>
        <time>2021-07-15T10:11:47Z</time>
      </trkpt>
      <trkpt lat="45.10519" lon="6.58689">
        <ele>2650</ele>
        <time>2021-07-15T10:12:04Z</time>
      </trkpt>
      <trkpt lat="45.10528" lon="6.58714">
        <ele>2648</ele>
        <time>2021-07-15T10:12:18Z</time>
      </trkpt>
      <trkpt lat="45.10528" lon="6.58722">
        <ele>2647</ele>
        <time>2021-07-15T10:12:24Z</time>
      </trkpt>
      <trkpt lat="45.10528" lon="6.5873">
        <ele>2647</ele>
        <time>2021-07-15T10:12:29Z</time>
      </trkpt>
      <trkpt lat="45.10528" lon="6.58749">
        <ele>2643</ele>
        <time>2021-07-15T10:12:45Z</time>
      </trkpt>
      <trkpt lat="45.10531" lon="6.58752">
        <ele>2643</ele>
        <time>2021-07-15T10:12:47Z</time>
      </trkpt>
      <trkpt lat="45.10531" lon="6.58764">
        <ele>2639</ele>
        <time>2021-07-15T10:12:57Z</time>
      </trkpt>
      <trkpt lat="45.10526" lon="6.58769">
        <ele>2638</ele>
        <time>2021-07-15T10:13:05Z</time>
      </trkpt>
      <trkpt lat="45.10524" lon="6.58774">
        <ele>2636</ele>
        <time>2021-07-15T10:13:09Z</time>
      </trkpt>
      <trkpt lat="45.10523" lon="6.5878">
        <ele>2634</ele>
        <time>2021-07-15T10:13:13Z</time>
      </trkpt>
      <trkpt lat="45.10523" lon="6.58791">
        <ele>2632</ele>
        <time>2021-07-15T10:13:20Z</time>
      </trkpt>
      <trkpt lat="45.10528" lon="6.58821">
        <ele>2628</ele>
        <time>2021-07-15T10:13:39Z</time>
      </trkpt>
      <trkpt lat="45.10531" lon="6.58829">
        <ele>2626</ele>
        <time>2021-07-15T10:13:45Z</time>
      </trkpt>
      <trkpt lat="45.10531" lon="6.58838">
        <ele>2624</ele>
        <time>2021-07-15T10:13:52Z</time>
      </trkpt>
      <trkpt lat="45.10529" lon="6.58847">
        <ele>2623</ele>
        <time>2021-07-15T10:13:57Z</time>
      </trkpt>
      <trkpt lat="45.1053" lon="6.58858">
        <ele>2621</ele>
        <time>2021-07-15T10:14:06Z</time>
      </trkpt>
      <trkpt lat="45.10528" lon="6.58866">
        <ele>2619</ele>
        <time>2021-07-15T10:14:11Z</time>
      </trkpt>
      <trkpt lat="45.10528" lon="6.58875">
        <ele>2618</ele>
        <time>2021-07-15T10:14:16Z</time>
      </trkpt>
      <trkpt lat="45.10533" lon="6.58891">
        <ele>2617</ele>
        <time>2021-07-15T10:14:24Z</time>
      </trkpt>
      <trkpt lat="45.10538" lon="6.58906">
        <ele>2617</ele>
        <time>2021-07-15T10:14:33Z</time>
      </trkpt>
      <trkpt lat="45.10536" lon="6.58915">
        <ele>2617</ele>
        <time>2021-07-15T10:14:38Z</time>
      </trkpt>
      <trkpt lat="45.10533" lon="6.58922">
        <ele>2617</ele>
        <time>2021-07-15T10:14:42Z</time>
      </trkpt>
      <trkpt lat="45.10531" lon="6.58944">
        <ele>2616</ele>
        <time>2021-07-15T10:14:58Z</time>
      </trkpt>
      <trkpt lat="45.1053" lon="6.58952">
        <ele>2616</ele>
        <time>2021-07-15T10:15:03Z</time>
      </trkpt>
      <trkpt lat="45.10532" lon="6.59">
        <ele>2614</ele>
        <time>2021-07-15T10:15:32Z</time>
      </trkpt>
      <trkpt lat="45.10536" lon="6.59023">
        <ele>2613</ele>
        <time>2021-07-15T10:15:47Z</time>
      </trkpt>
      <trkpt lat="45.10534" lon="6.59031">
        <ele>2612</ele>
        <time>2021-07-15T10:15:52Z</time>
      </trkpt>
      <trkpt lat="45.10532" lon="6.59039">
        <ele>2612</ele>
        <time>2021-07-15T10:15:56Z</time>
      </trkpt>
      <trkpt lat="45.10534" lon="6.59048">
        <ele>2612</ele>
        <time>2021-07-15T10:16:01Z</time>
      </trkpt>
      <trkpt lat="45.10537" lon="6.59082">
        <ele>2610</ele>
        <time>2021-07-15T10:16:27Z</time>
      </trkpt>
      <trkpt lat="45.10536" lon="6.59093">
        <ele>2610</ele>
        <time>2021-07-15T10:16:36Z</time>
      </trkpt>
      <trkpt lat="45.10535" lon="6.59101">
        <ele>2610</ele>
        <time>2021-07-15T10:16:41Z</time>
      </trkpt>
      <trkpt lat="45.10533" lon="6.59109">
        <ele>2610</ele>
        <time>2021-07-15T10:16:46Z</time>
      </trkpt>
      <trkpt lat="45.10535" lon="6.5912">
        <ele>2610</ele>
        <time>2021-07-15T10:16:54Z</time>
      </trkpt>
      <trkpt lat="45.10534" lon="6.59127">
        <ele>2610</ele>
        <time>2021-07-15T10:17:03Z</time>
      </trkpt>
      <trkpt lat="45.10533" lon="6.59137">
        <ele>2610</ele>
        <time>2021-07-15T10:17:09Z</time>
      </trkpt>
      <trkpt lat="45.10532" lon="6.59145">
        <ele>2610</ele>
        <time>2021-07-15T10:17:13Z</time>
      </trkpt>
      <trkpt lat="45.10533" lon="6.59155">
        <ele>2610</ele>
        <time>2021-07-15T10:17:18Z</time>
      </trkpt>
      <trkpt lat="45.10533" lon="6.59171">
        <ele>2609</ele>
        <time>2021-07-15T10:17:28Z</time>
      </trkpt>
      <trkpt lat="45.10531" lon="6.59178">
        <ele>2609</ele>
        <time>2021-07-15T10:17:34Z</time>
      </trkpt>
      <trkpt lat="45.10533" lon="6.59201">
        <ele>2608</ele>
        <time>2021-07-15T10:17:52Z</time>
      </trkpt>
      <trkpt lat="45.1053" lon="6.59218">
        <ele>2607</ele>
        <time>2021-07-15T10:18:01Z</time>
      </trkpt>
      <trkpt lat="45.10522" lon="6.59236">
        <ele>2604</ele>
        <time>2021-07-15T10:18:17Z</time>
      </trkpt>
      <trkpt lat="45.1052" lon="6.59257">
        <ele>2600</ele>
        <time>2021-07-15T10:18:36Z</time>
      </trkpt>
      <trkpt lat="45.10517" lon="6.59261">
        <ele>2596</ele>
        <time>2021-07-15T10:18:54Z</time>
      </trkpt>
      <trkpt lat="45.10515" lon="6.59279">
        <ele>2592</ele>
        <time>2021-07-15T10:19:24Z</time>
      </trkpt>
      <trkpt lat="45.10512" lon="6.59285">
        <ele>2590</ele>
        <time>2021-07-15T10:19:29Z</time>
      </trkpt>
      <trkpt lat="45.1051" lon="6.59295">
        <ele>2589</ele>
        <time>2021-07-15T10:19:34Z</time>
      </trkpt>
      <trkpt lat="45.10515" lon="6.59311">
        <ele>2587</ele>
        <time>2021-07-15T10:19:42Z</time>
      </trkpt>
      <trkpt lat="45.10524" lon="6.5932">
        <ele>2586</ele>
        <time>2021-07-15T10:19:50Z</time>
      </trkpt>
      <trkpt lat="45.1053" lon="6.59322">
        <ele>2586</ele>
        <time>2021-07-15T10:19:58Z</time>
      </trkpt>
      <trkpt lat="45.10536" lon="6.59329">
        <ele>2584</ele>
        <time>2021-07-15T10:20:17Z</time>
      </trkpt>
      <trkpt lat="45.10533" lon="6.5933">
        <ele>2582</ele>
        <time>2021-07-15T10:21:30Z</time>
      </trkpt>
      <trkpt lat="45.10532" lon="6.59334">
        <ele>2578</ele>
        <time>2021-07-15T10:25:57Z</time>
      </trkpt>
      <trkpt lat="45.10539" lon="6.59335">
        <ele>2576</ele>
        <time>2021-07-15T10:32:55Z</time>
      </trkpt>
      <trkpt lat="45.10535" lon="6.59339">
        <ele>2574</ele>
        <time>2021-07-15T10:43:22Z</time>
      </trkpt>
      <trkpt lat="45.1053" lon="6.59352">
        <ele>2572</ele>
        <time>2021-07-15T10:43:47Z</time>
      </trkpt>
      <trkpt lat="45.10527" lon="6.59361">
        <ele>2571</ele>
        <time>2021-07-15T10:43:55Z</time>
      </trkpt>
      <trkpt lat="45.10523" lon="6.59367">
        <ele>2569</ele>
        <time>2021-07-15T10:44:17Z</time>
      </trkpt>
      <trkpt lat="45.10524" lon="6.59369">
        <ele>2571</ele>
        <time>2021-07-15T10:45:37Z</time>
      </trkpt>
      <trkpt lat="45.10524" lon="6.59359">
        <ele>2571</ele>
        <time>2021-07-15T10:47:34Z</time>
      </trkpt>
      <trkpt lat="45.1052" lon="6.5937">
        <ele>2576</ele>
        <time>2021-07-15T11:08:12Z</time>
      </trkpt>
      <trkpt lat="45.10521" lon="6.59373">
        <ele>2575</ele>
        <time>2021-07-15T11:12:22Z</time>
      </trkpt>
      <trkpt lat="45.10528" lon="6.59372">
        <ele>2574</ele>
        <time>2021-07-15T11:14:52Z</time>
      </trkpt>
      <trkpt lat="45.10535" lon="6.59364">
        <ele>2574</ele>
        <time>2021-07-15T11:15:10Z</time>
      </trkpt>
      <trkpt lat="45.10537" lon="6.59346">
        <ele>2574</ele>
        <time>2021-07-15T11:15:59Z</time>
      </trkpt>
      <trkpt lat="45.10536" lon="6.59336">
        <ele>2577</ele>
        <time>2021-07-15T11:16:47Z</time>
      </trkpt>
      <trkpt lat="45.10529" lon="6.59318">
        <ele>2579</ele>
        <time>2021-07-15T11:17:12Z</time>
      </trkpt>
      <trkpt lat="45.10523" lon="6.59315">
        <ele>2581</ele>
        <time>2021-07-15T11:17:20Z</time>
      </trkpt>
      <trkpt lat="45.1051" lon="6.59306">
        <ele>2583</ele>
        <time>2021-07-15T11:17:36Z</time>
      </trkpt>
      <trkpt lat="45.10504" lon="6.59306">
        <ele>2582</ele>
        <time>2021-07-15T11:17:44Z</time>
      </trkpt>
      <trkpt lat="45.10499" lon="6.5931">
        <ele>2582</ele>
        <time>2021-07-15T11:17:49Z</time>
      </trkpt>
      <trkpt lat="45.10492" lon="6.59312">
        <ele>2580</ele>
        <time>2021-07-15T11:17:53Z</time>
      </trkpt>
      <trkpt lat="45.10485" lon="6.59312">
        <ele>2579</ele>
        <time>2021-07-15T11:17:58Z</time>
      </trkpt>
      <trkpt lat="45.10479" lon="6.59313">
        <ele>2580</ele>
        <time>2021-07-15T11:18:04Z</time>
      </trkpt>
      <trkpt lat="45.10464" lon="6.59333">
        <ele>2582</ele>
        <time>2021-07-15T11:18:29Z</time>
      </trkpt>
      <trkpt lat="45.10458" lon="6.59335">
        <ele>2582</ele>
        <time>2021-07-15T11:18:38Z</time>
      </trkpt>
      <trkpt lat="45.10449" lon="6.59339">
        <ele>2584</ele>
        <time>2021-07-15T11:18:50Z</time>
      </trkpt>
      <trkpt lat="45.10442" lon="6.59338">
        <ele>2586</ele>
        <time>2021-07-15T11:19:02Z</time>
      </trkpt>
      <trkpt lat="45.10437" lon="6.59342">
        <ele>2586</ele>
        <time>2021-07-15T11:19:08Z</time>
      </trkpt>
      <trkpt lat="45.10428" lon="6.59347">
        <ele>2585</ele>
        <time>2021-07-15T11:19:16Z</time>
      </trkpt>
      <trkpt lat="45.10424" lon="6.59354">
        <ele>2584</ele>
        <time>2021-07-15T11:19:21Z</time>
      </trkpt>
      <trkpt lat="45.1042" lon="6.59358">
        <ele>2583</ele>
        <time>2021-07-15T11:19:27Z</time>
      </trkpt>
      <trkpt lat="45.10411" lon="6.59366">
        <ele>2583</ele>
        <time>2021-07-15T11:19:43Z</time>
      </trkpt>
      <trkpt lat="45.10413" lon="6.59373">
        <ele>2581</ele>
        <time>2021-07-15T11:20:03Z</time>
      </trkpt>
      <trkpt lat="45.10422" lon="6.5938">
        <ele>2579</ele>
        <time>2021-07-15T11:20:16Z</time>
      </trkpt>
      <trkpt lat="45.10426" lon="6.59402">
        <ele>2581</ele>
        <time>2021-07-15T11:20:22Z</time>
      </trkpt>
      <trkpt lat="45.10454" lon="6.59449">
        <ele>2587</ele>
        <time>2021-07-15T11:20:29Z</time>
      </trkpt>
      <trkpt lat="45.1047" lon="6.59414">
        <ele>2585</ele>
        <time>2021-07-15T11:20:33Z</time>
      </trkpt>
      <trkpt lat="45.10474" lon="6.59379">
        <ele>2582</ele>
        <time>2021-07-15T11:21:00Z</time>
      </trkpt>
      <trkpt lat="45.10425" lon="6.59376">
        <ele>2582</ele>
        <time>2021-07-15T11:21:33Z</time>
      </trkpt>
      <trkpt lat="45.10432" lon="6.59353">
        <ele>2586</ele>
        <time>2021-07-15T11:22:40Z</time>
      </trkpt>
      <trkpt lat="45.10444" lon="6.59337">
        <ele>2588</ele>
        <time>2021-07-15T11:23:06Z</time>
      </trkpt>
      <trkpt lat="45.10455" lon="6.59337">
        <ele>2587</ele>
        <time>2021-07-15T11:23:18Z</time>
      </trkpt>
      <trkpt lat="45.10467" lon="6.5933">
        <ele>2585</ele>
        <time>2021-07-15T11:23:28Z</time>
      </trkpt>
      <trkpt lat="45.10471" lon="6.59324">
        <ele>2584</ele>
        <time>2021-07-15T11:23:33Z</time>
      </trkpt>
      <trkpt lat="45.10477" lon="6.5932">
        <ele>2584</ele>
        <time>2021-07-15T11:23:37Z</time>
      </trkpt>
      <trkpt lat="45.10481" lon="6.59315">
        <ele>2583</ele>
        <time>2021-07-15T11:23:41Z</time>
      </trkpt>
      <trkpt lat="45.10486" lon="6.59312">
        <ele>2583</ele>
        <time>2021-07-15T11:23:45Z</time>
      </trkpt>
      <trkpt lat="45.10492" lon="6.5931">
        <ele>2582</ele>
        <time>2021-07-15T11:23:49Z</time>
      </trkpt>
      <trkpt lat="45.105" lon="6.59311">
        <ele>2582</ele>
        <time>2021-07-15T11:23:56Z</time>
      </trkpt>
      <trkpt lat="45.10501" lon="6.59327">
        <ele>2584</ele>
        <time>2021-07-15T11:24:09Z</time>
      </trkpt>
      <trkpt lat="45.10508" lon="6.59333">
        <ele>2584</ele>
        <time>2021-07-15T11:24:18Z</time>
      </trkpt>
      <trkpt lat="45.10518" lon="6.59333">
        <ele>2584</ele>
        <time>2021-07-15T11:24:29Z</time>
      </trkpt>
      <trkpt lat="45.10526" lon="6.59335">
        <ele>2583</ele>
        <time>2021-07-15T11:24:40Z</time>
      </trkpt>
      <trkpt lat="45.10534" lon="6.59338">
        <ele>2581</ele>
        <time>2021-07-15T11:25:25Z</time>
      </trkpt>
      <trkpt lat="45.10537" lon="6.59345">
        <ele>2580</ele>
        <time>2021-07-15T11:26:18Z</time>
      </trkpt>
      <trkpt lat="45.10541" lon="6.5934">
        <ele>2580</ele>
        <time>2021-07-15T11:26:54Z</time>
      </trkpt>
      <trkpt lat="45.1054" lon="6.59333">
        <ele>2580</ele>
        <time>2021-07-15T11:27:30Z</time>
      </trkpt>
      <trkpt lat="45.10533" lon="6.59334">
        <ele>2579</ele>
        <time>2021-07-15T11:29:11Z</time>
      </trkpt>
      <trkpt lat="45.10538" lon="6.59342">
        <ele>2577</ele>
        <time>2021-07-15T11:29:55Z</time>
      </trkpt>
      <trkpt lat="45.10532" lon="6.59344">
        <ele>2576</ele>
        <time>2021-07-15T11:30:50Z</time>
      </trkpt>
      <trkpt lat="45.10525" lon="6.59345">
        <ele>2578</ele>
        <time>2021-07-15T11:31:33Z</time>
      </trkpt>
      <trkpt lat="45.10518" lon="6.59341">
        <ele>2579</ele>
        <time>2021-07-15T11:31:54Z</time>
      </trkpt>
      <trkpt lat="45.10511" lon="6.59339">
        <ele>2581</ele>
        <time>2021-07-15T11:32:21Z</time>
      </trkpt>
      <trkpt lat="45.10512" lon="6.59348">
        <ele>2582</ele>
        <time>2021-07-15T11:33:27Z</time>
      </trkpt>
      <trkpt lat="45.10517" lon="6.59345">
        <ele>2581</ele>
        <time>2021-07-15T11:33:39Z</time>
      </trkpt>
      <trkpt lat="45.10513" lon="6.59339">
        <ele>2581</ele>
        <time>2021-07-15T11:34:02Z</time>
      </trkpt>
      <trkpt lat="45.10523" lon="6.5934">
        <ele>2581</ele>
        <time>2021-07-15T11:34:29Z</time>
      </trkpt>
      <trkpt lat="45.10518" lon="6.59346">
        <ele>2581</ele>
        <time>2021-07-15T11:34:47Z</time>
      </trkpt>
      <trkpt lat="45.10515" lon="6.59356">
        <ele>2580</ele>
        <time>2021-07-15T11:35:05Z</time>
      </trkpt>
      <trkpt lat="45.10511" lon="6.59356">
        <ele>2580</ele>
        <time>2021-07-15T11:36:11Z</time>
      </trkpt>
      <trkpt lat="45.10511" lon="6.59348">
        <ele>2581</ele>
        <time>2021-07-15T11:36:41Z</time>
      </trkpt>
      <trkpt lat="45.1051" lon="6.5934">
        <ele>2581</ele>
        <time>2021-07-15T11:37:53Z</time>
      </trkpt>
      <trkpt lat="45.10511" lon="6.59341">
        <ele>2581</ele>
        <time>2021-07-15T11:39:46Z</time>
      </trkpt>
      <trkpt lat="45.10517" lon="6.59344">
        <ele>2580</ele>
        <time>2021-07-15T11:40:45Z</time>
      </trkpt>
      <trkpt lat="45.10526" lon="6.59346">
        <ele>2580</ele>
        <time>2021-07-15T11:41:09Z</time>
      </trkpt>
      <trkpt lat="45.10524" lon="6.59337">
        <ele>2580</ele>
        <time>2021-07-15T11:41:34Z</time>
      </trkpt>
      <trkpt lat="45.10527" lon="6.59324">
        <ele>2580</ele>
        <time>2021-07-15T11:41:53Z</time>
      </trkpt>
      <trkpt lat="45.1053" lon="6.59317">
        <ele>2580</ele>
        <time>2021-07-15T11:42:00Z</time>
      </trkpt>
      <trkpt lat="45.10533" lon="6.59308">
        <ele>2581</ele>
        <time>2021-07-15T11:42:08Z</time>
      </trkpt>
      <trkpt lat="45.10539" lon="6.59303">
        <ele>2585</ele>
        <time>2021-07-15T11:42:32Z</time>
      </trkpt>
      <trkpt lat="45.10543" lon="6.59294">
        <ele>2586</ele>
        <time>2021-07-15T11:42:36Z</time>
      </trkpt>
      <trkpt lat="45.10545" lon="6.59288">
        <ele>2589</ele>
        <time>2021-07-15T11:42:51Z</time>
      </trkpt>
      <trkpt lat="45.10543" lon="6.59279">
        <ele>2593</ele>
        <time>2021-07-15T11:43:15Z</time>
      </trkpt>
      <trkpt lat="45.10544" lon="6.59271">
        <ele>2595</ele>
        <time>2021-07-15T11:43:27Z</time>
      </trkpt>
      <trkpt lat="45.10549" lon="6.59262">
        <ele>2599</ele>
        <time>2021-07-15T11:43:51Z</time>
      </trkpt>
      <trkpt lat="45.10547" lon="6.59255">
        <ele>2602</ele>
        <time>2021-07-15T11:44:09Z</time>
      </trkpt>
      <trkpt lat="45.10552" lon="6.59247">
        <ele>2604</ele>
        <time>2021-07-15T11:44:21Z</time>
      </trkpt>
      <trkpt lat="45.10557" lon="6.59245">
        <ele>2606</ele>
        <time>2021-07-15T11:44:33Z</time>
      </trkpt>
      <trkpt lat="45.10555" lon="6.59252">
        <ele>2601</ele>
        <time>2021-07-15T11:52:16Z</time>
      </trkpt>
      <trkpt lat="45.1055" lon="6.5926">
        <ele>2598</ele>
        <time>2021-07-15T11:52:26Z</time>
      </trkpt>
      <trkpt lat="45.10545" lon="6.59264">
        <ele>2597</ele>
        <time>2021-07-15T11:52:31Z</time>
      </trkpt>
      <trkpt lat="45.1053" lon="6.59271">
        <ele>2592</ele>
        <time>2021-07-15T11:52:51Z</time>
      </trkpt>
      <trkpt lat="45.10531" lon="6.59283">
        <ele>2588</ele>
        <time>2021-07-15T11:53:04Z</time>
      </trkpt>
      <trkpt lat="45.10535" lon="6.59303">
        <ele>2581</ele>
        <time>2021-07-15T11:53:25Z</time>
      </trkpt>
      <trkpt lat="45.10529" lon="6.59303">
        <ele>2578</ele>
        <time>2021-07-15T11:53:35Z</time>
      </trkpt>
      <trkpt lat="45.10525" lon="6.5931">
        <ele>2577</ele>
        <time>2021-07-15T11:53:38Z</time>
      </trkpt>
      <trkpt lat="45.10523" lon="6.59328">
        <ele>2575</ele>
        <time>2021-07-15T11:53:51Z</time>
      </trkpt>
      <trkpt lat="45.10519" lon="6.59335">
        <ele>2575</ele>
        <time>2021-07-15T11:53:57Z</time>
      </trkpt>
      <trkpt lat="45.10514" lon="6.59338">
        <ele>2575</ele>
        <time>2021-07-15T11:54:03Z</time>
      </trkpt>
      <trkpt lat="45.10509" lon="6.59341">
        <ele>2576</ele>
        <time>2021-07-15T11:54:47Z</time>
      </trkpt>
      <trkpt lat="45.10508" lon="6.59347">
        <ele>2576</ele>
        <time>2021-07-15T11:56:11Z</time>
      </trkpt>
      <trkpt lat="45.10503" lon="6.59347">
        <ele>2577</ele>
        <time>2021-07-15T11:56:16Z</time>
      </trkpt>
      <trkpt lat="45.10497" lon="6.59348">
        <ele>2577</ele>
        <time>2021-07-15T11:56:24Z</time>
      </trkpt>
      <trkpt lat="45.10497" lon="6.59347">
        <ele>2580</ele>
        <time>2021-07-15T11:58:36Z</time>
      </trkpt>
      <trkpt lat="45.10498" lon="6.59353">
        <ele>2584</ele>
        <time>2021-07-15T12:06:10Z</time>
      </trkpt>
      <trkpt lat="45.10494" lon="6.5935">
        <ele>2587</ele>
        <time>2021-07-15T12:18:21Z</time>
      </trkpt>
      <trkpt lat="45.10491" lon="6.59355">
        <ele>2587</ele>
        <time>2021-07-15T12:19:51Z</time>
      </trkpt>
      <trkpt lat="45.10485" lon="6.59347">
        <ele>2588</ele>
        <time>2021-07-15T12:20:12Z</time>
      </trkpt>
      <trkpt lat="45.10487" lon="6.59348">
        <ele>2588</ele>
        <time>2021-07-15T12:21:58Z</time>
      </trkpt>
      <trkpt lat="45.10493" lon="6.59351">
        <ele>2588</ele>
        <time>2021-07-15T12:22:31Z</time>
      </trkpt>
      <trkpt lat="45.10493" lon="6.59347">
        <ele>2588</ele>
        <time>2021-07-15T12:24:43Z</time>
      </trkpt>
      <trkpt lat="45.10499" lon="6.59352">
        <ele>2587</ele>
        <time>2021-07-15T12:25:25Z</time>
      </trkpt>
      <trkpt lat="45.10498" lon="6.59349">
        <ele>2589</ele>
        <time>2021-07-15T12:34:50Z</time>
      </trkpt>
      <trkpt lat="45.10497" lon="6.59353">
        <ele>2587</ele>
        <time>2021-07-15T12:36:25Z</time>
      </trkpt>
      <trkpt lat="45.10505" lon="6.59346">
        <ele>2586</ele>
        <time>2021-07-15T12:39:23Z</time>
      </trkpt>
      <trkpt lat="45.10511" lon="6.59343">
        <ele>2585</ele>
        <time>2021-07-15T12:39:27Z</time>
      </trkpt>
      <trkpt lat="45.1051" lon="6.5934">
        <ele>2584</ele>
        <time>2021-07-15T12:39:56Z</time>
      </trkpt>
      <trkpt lat="45.10508" lon="6.59348">
        <ele>2585</ele>
        <time>2021-07-15T12:40:14Z</time>
      </trkpt>
      <trkpt lat="45.10506" lon="6.59345">
        <ele>2585</ele>
        <time>2021-07-15T12:43:24Z</time>
      </trkpt>
      <trkpt lat="45.10505" lon="6.5935">
        <ele>2585</ele>
        <time>2021-07-15T12:59:55Z</time>
      </trkpt>
      <trkpt lat="45.10504" lon="6.59345">
        <ele>2585</ele>
        <time>2021-07-15T13:03:42Z</time>
      </trkpt>
      <trkpt lat="45.1051" lon="6.59342">
        <ele>2586</ele>
        <time>2021-07-15T13:09:33Z</time>
      </trkpt>
      <trkpt lat="45.1051" lon="6.59344">
        <ele>2585</ele>
        <time>2021-07-15T13:12:21Z</time>
      </trkpt>
      <trkpt lat="45.10516" lon="6.59339">
        <ele>2584</ele>
        <time>2021-07-15T13:13:32Z</time>
      </trkpt>
      <trkpt lat="45.10523" lon="6.59345">
        <ele>2583</ele>
        <time>2021-07-15T13:14:15Z</time>
      </trkpt>
      <trkpt lat="45.10532" lon="6.59347">
        <ele>2580</ele>
        <time>2021-07-15T13:14:27Z</time>
      </trkpt>
      <trkpt lat="45.10536" lon="6.59352">
        <ele>2575</ele>
        <time>2021-07-15T13:14:39Z</time>
      </trkpt>
      <trkpt lat="45.10537" lon="6.59364">
        <ele>2571</ele>
        <time>2021-07-15T13:14:52Z</time>
      </trkpt>
      <trkpt lat="45.10535" lon="6.59373">
        <ele>2569</ele>
        <time>2021-07-15T13:14:58Z</time>
      </trkpt>
      <trkpt lat="45.10532" lon="6.59393">
        <ele>2562</ele>
        <time>2021-07-15T13:15:20Z</time>
      </trkpt>
      <trkpt lat="45.10533" lon="6.59405">
        <ele>2558</ele>
        <time>2021-07-15T13:15:35Z</time>
      </trkpt>
      <trkpt lat="45.10542" lon="6.59425">
        <ele>2553</ele>
        <time>2021-07-15T13:15:57Z</time>
      </trkpt>
      <trkpt lat="45.10536" lon="6.59448">
        <ele>2545</ele>
        <time>2021-07-15T13:16:19Z</time>
      </trkpt>
      <trkpt lat="45.1055" lon="6.59448">
        <ele>2538</ele>
        <time>2021-07-15T13:16:43Z</time>
      </trkpt>
      <trkpt lat="45.10556" lon="6.59455">
        <ele>2537</ele>
        <time>2021-07-15T13:16:55Z</time>
      </trkpt>
      <trkpt lat="45.10561" lon="6.59466">
        <ele>2531</ele>
        <time>2021-07-15T13:17:09Z</time>
      </trkpt>
      <trkpt lat="45.10568" lon="6.59466">
        <ele>2528</ele>
        <time>2021-07-15T13:17:15Z</time>
      </trkpt>
      <trkpt lat="45.10571" lon="6.59475">
        <ele>2528</ele>
        <time>2021-07-15T13:17:20Z</time>
      </trkpt>
      <trkpt lat="45.10574" lon="6.59488">
        <ele>2527</ele>
        <time>2021-07-15T13:17:28Z</time>
      </trkpt>
      <trkpt lat="45.10582" lon="6.59499">
        <ele>2524</ele>
        <time>2021-07-15T13:17:42Z</time>
      </trkpt>
      <trkpt lat="45.10589" lon="6.59505">
        <ele>2521</ele>
        <time>2021-07-15T13:17:54Z</time>
      </trkpt>
      <trkpt lat="45.10595" lon="6.59501">
        <ele>2518</ele>
        <time>2021-07-15T13:18:03Z</time>
      </trkpt>
      <trkpt lat="45.10614" lon="6.59512">
        <ele>2512</ele>
        <time>2021-07-15T13:18:20Z</time>
      </trkpt>
      <trkpt lat="45.1062" lon="6.59516">
        <ele>2510</ele>
        <time>2021-07-15T13:18:28Z</time>
      </trkpt>
      <trkpt lat="45.10629" lon="6.59514">
        <ele>2509</ele>
        <time>2021-07-15T13:18:37Z</time>
      </trkpt>
      <trkpt lat="45.1064" lon="6.59511">
        <ele>2506</ele>
        <time>2021-07-15T13:18:51Z</time>
      </trkpt>
      <trkpt lat="45.10641" lon="6.59498">
        <ele>2502</ele>
        <time>2021-07-15T13:19:03Z</time>
      </trkpt>
      <trkpt lat="45.10639" lon="6.5948">
        <ele>2500</ele>
        <time>2021-07-15T13:19:17Z</time>
      </trkpt>
      <trkpt lat="45.10643" lon="6.5947">
        <ele>2498</ele>
        <time>2021-07-15T13:19:25Z</time>
      </trkpt>
      <trkpt lat="45.10652" lon="6.59462">
        <ele>2495</ele>
        <time>2021-07-15T13:19:39Z</time>
      </trkpt>
      <trkpt lat="45.1066" lon="6.59445">
        <ele>2490</ele>
        <time>2021-07-15T13:19:59Z</time>
      </trkpt>
      <trkpt lat="45.10662" lon="6.59434">
        <ele>2489</ele>
        <time>2021-07-15T13:20:11Z</time>
      </trkpt>
      <trkpt lat="45.10671" lon="6.59434">
        <ele>2486</ele>
        <time>2021-07-15T13:20:24Z</time>
      </trkpt>
      <trkpt lat="45.10677" lon="6.59434">
        <ele>2485</ele>
        <time>2021-07-15T13:20:32Z</time>
      </trkpt>
      <trkpt lat="45.10687" lon="6.59425">
        <ele>2480</ele>
        <time>2021-07-15T13:20:43Z</time>
      </trkpt>
      <trkpt lat="45.10695" lon="6.59412">
        <ele>2479</ele>
        <time>2021-07-15T13:20:53Z</time>
      </trkpt>
      <trkpt lat="45.10698" lon="6.59405">
        <ele>2480</ele>
        <time>2021-07-15T13:20:58Z</time>
      </trkpt>
      <trkpt lat="45.10701" lon="6.59398">
        <ele>2479</ele>
        <time>2021-07-15T13:21:02Z</time>
      </trkpt>
      <trkpt lat="45.10709" lon="6.5939">
        <ele>2476</ele>
        <time>2021-07-15T13:21:14Z</time>
      </trkpt>
      <trkpt lat="45.10715" lon="6.59379">
        <ele>2475</ele>
        <time>2021-07-15T13:21:26Z</time>
      </trkpt>
      <trkpt lat="45.10721" lon="6.59379">
        <ele>2474</ele>
        <time>2021-07-15T13:21:38Z</time>
      </trkpt>
      <trkpt lat="45.10731" lon="6.59373">
        <ele>2471</ele>
        <time>2021-07-15T13:21:51Z</time>
      </trkpt>
      <trkpt lat="45.10738" lon="6.59366">
        <ele>2470</ele>
        <time>2021-07-15T13:22:01Z</time>
      </trkpt>
      <trkpt lat="45.10744" lon="6.59364">
        <ele>2470</ele>
        <time>2021-07-15T13:22:10Z</time>
      </trkpt>
      <trkpt lat="45.10755" lon="6.59365">
        <ele>2467</ele>
        <time>2021-07-15T13:22:21Z</time>
      </trkpt>
      <trkpt lat="45.1076" lon="6.59359">
        <ele>2466</ele>
        <time>2021-07-15T13:22:25Z</time>
      </trkpt>
      <trkpt lat="45.10767" lon="6.59337">
        <ele>2462</ele>
        <time>2021-07-15T13:22:42Z</time>
      </trkpt>
      <trkpt lat="45.10772" lon="6.59338">
        <ele>2460</ele>
        <time>2021-07-15T13:22:51Z</time>
      </trkpt>
      <trkpt lat="45.10778" lon="6.59336">
        <ele>2459</ele>
        <time>2021-07-15T13:22:56Z</time>
      </trkpt>
      <trkpt lat="45.10782" lon="6.5933">
        <ele>2458</ele>
        <time>2021-07-15T13:23:00Z</time>
      </trkpt>
      <trkpt lat="45.10793" lon="6.59336">
        <ele>2457</ele>
        <time>2021-07-15T13:23:07Z</time>
      </trkpt>
      <trkpt lat="45.10799" lon="6.5933">
        <ele>2457</ele>
        <time>2021-07-15T13:23:12Z</time>
      </trkpt>
      <trkpt lat="45.10802" lon="6.59321">
        <ele>2457</ele>
        <time>2021-07-15T13:23:20Z</time>
      </trkpt>
      <trkpt lat="45.10809" lon="6.59311">
        <ele>2456</ele>
        <time>2021-07-15T13:23:31Z</time>
      </trkpt>
      <trkpt lat="45.10816" lon="6.59307">
        <ele>2456</ele>
        <time>2021-07-15T13:23:38Z</time>
      </trkpt>
      <trkpt lat="45.10825" lon="6.59307">
        <ele>2453</ele>
        <time>2021-07-15T13:23:58Z</time>
      </trkpt>
      <trkpt lat="45.10833" lon="6.59294">
        <ele>2452</ele>
        <time>2021-07-15T13:24:10Z</time>
      </trkpt>
      <trkpt lat="45.1083" lon="6.5928">
        <ele>2452</ele>
        <time>2021-07-15T13:24:21Z</time>
      </trkpt>
      <trkpt lat="45.10829" lon="6.59273">
        <ele>2452</ele>
        <time>2021-07-15T13:24:26Z</time>
      </trkpt>
      <trkpt lat="45.10831" lon="6.59264">
        <ele>2452</ele>
        <time>2021-07-15T13:24:34Z</time>
      </trkpt>
      <trkpt lat="45.10832" lon="6.59243">
        <ele>2448</ele>
        <time>2021-07-15T13:24:48Z</time>
      </trkpt>
      <trkpt lat="45.10837" lon="6.59226">
        <ele>2448</ele>
        <time>2021-07-15T13:25:02Z</time>
      </trkpt>
      <trkpt lat="45.10835" lon="6.59211">
        <ele>2447</ele>
        <time>2021-07-15T13:25:15Z</time>
      </trkpt>
      <trkpt lat="45.10835" lon="6.59202">
        <ele>2444</ele>
        <time>2021-07-15T13:25:20Z</time>
      </trkpt>
      <trkpt lat="45.10838" lon="6.5918">
        <ele>2444</ele>
        <time>2021-07-15T13:25:37Z</time>
      </trkpt>
      <trkpt lat="45.10842" lon="6.59169">
        <ele>2443</ele>
        <time>2021-07-15T13:25:48Z</time>
      </trkpt>
      <trkpt lat="45.10846" lon="6.59163">
        <ele>2442</ele>
        <time>2021-07-15T13:25:53Z</time>
      </trkpt>
      <trkpt lat="45.10846" lon="6.59144">
        <ele>2439</ele>
        <time>2021-07-15T13:26:06Z</time>
      </trkpt>
      <trkpt lat="45.10851" lon="6.5913">
        <ele>2437</ele>
        <time>2021-07-15T13:26:15Z</time>
      </trkpt>
      <trkpt lat="45.10856" lon="6.59126">
        <ele>2438</ele>
        <time>2021-07-15T13:26:21Z</time>
      </trkpt>
      <trkpt lat="45.10861" lon="6.59124">
        <ele>2438</ele>
        <time>2021-07-15T13:26:26Z</time>
      </trkpt>
      <trkpt lat="45.10866" lon="6.59128">
        <ele>2437</ele>
        <time>2021-07-15T13:26:31Z</time>
      </trkpt>
      <trkpt lat="45.10866" lon="6.59119">
        <ele>2438</ele>
        <time>2021-07-15T13:26:39Z</time>
      </trkpt>
      <trkpt lat="45.10862" lon="6.59112">
        <ele>2438</ele>
        <time>2021-07-15T13:27:39Z</time>
      </trkpt>
      <trkpt lat="45.10857" lon="6.59107">
        <ele>2438</ele>
        <time>2021-07-15T13:35:03Z</time>
      </trkpt>
      <trkpt lat="45.10849" lon="6.59096">
        <ele>2440</ele>
        <time>2021-07-15T13:35:15Z</time>
      </trkpt>
      <trkpt lat="45.10847" lon="6.59085">
        <ele>2442</ele>
        <time>2021-07-15T13:35:24Z</time>
      </trkpt>
      <trkpt lat="45.10844" lon="6.59078">
        <ele>2442</ele>
        <time>2021-07-15T13:35:29Z</time>
      </trkpt>
      <trkpt lat="45.1084" lon="6.59067">
        <ele>2443</ele>
        <time>2021-07-15T13:35:35Z</time>
      </trkpt>
      <trkpt lat="45.10845" lon="6.59062">
        <ele>2444</ele>
        <time>2021-07-15T13:36:14Z</time>
      </trkpt>
      <trkpt lat="45.10851" lon="6.59073">
        <ele>2443</ele>
        <time>2021-07-15T13:41:47Z</time>
      </trkpt>
      <trkpt lat="45.1085" lon="6.59063">
        <ele>2442</ele>
        <time>2021-07-15T13:43:01Z</time>
      </trkpt>
      <trkpt lat="45.10851" lon="6.59066">
        <ele>2444</ele>
        <time>2021-07-15T13:45:01Z</time>
      </trkpt>
      <trkpt lat="45.10842" lon="6.59063">
        <ele>2443</ele>
        <time>2021-07-15T13:45:31Z</time>
      </trkpt>
      <trkpt lat="45.10845" lon="6.5907">
        <ele>2442</ele>
        <time>2021-07-15T13:49:00Z</time>
      </trkpt>
      <trkpt lat="45.10845" lon="6.59069">
        <ele>2440</ele>
        <time>2021-07-15T13:58:26Z</time>
      </trkpt>
      <trkpt lat="45.10848" lon="6.59081">
        <ele>2439</ele>
        <time>2021-07-15T13:58:44Z</time>
      </trkpt>
      <trkpt lat="45.1085" lon="6.59093">
        <ele>2437</ele>
        <time>2021-07-15T13:58:57Z</time>
      </trkpt>
      <trkpt lat="45.10854" lon="6.591">
        <ele>2434</ele>
        <time>2021-07-15T13:59:03Z</time>
      </trkpt>
      <trkpt lat="45.10858" lon="6.59105">
        <ele>2435</ele>
        <time>2021-07-15T13:59:07Z</time>
      </trkpt>
      <trkpt lat="45.10861" lon="6.59112">
        <ele>2434</ele>
        <time>2021-07-15T13:59:11Z</time>
      </trkpt>
      <trkpt lat="45.10856" lon="6.5911">
        <ele>2433</ele>
        <time>2021-07-15T13:59:36Z</time>
      </trkpt>
      <trkpt lat="45.10853" lon="6.59103">
        <ele>2433</ele>
        <time>2021-07-15T14:00:02Z</time>
      </trkpt>
      <trkpt lat="45.10851" lon="6.59099">
        <ele>2435</ele>
        <time>2021-07-15T14:01:20Z</time>
      </trkpt>
      <trkpt lat="45.10847" lon="6.59094">
        <ele>2435</ele>
        <time>2021-07-15T14:01:23Z</time>
      </trkpt>
      <trkpt lat="45.10838" lon="6.59067">
        <ele>2439</ele>
        <time>2021-07-15T14:01:43Z</time>
      </trkpt>
      <trkpt lat="45.10836" lon="6.59052">
        <ele>2440</ele>
        <time>2021-07-15T14:01:55Z</time>
      </trkpt>
      <trkpt lat="45.10839" lon="6.59042">
        <ele>2440</ele>
        <time>2021-07-15T14:02:04Z</time>
      </trkpt>
      <trkpt lat="45.10838" lon="6.59035">
        <ele>2440</ele>
        <time>2021-07-15T14:02:07Z</time>
      </trkpt>
      <trkpt lat="45.10838" lon="6.59025">
        <ele>2441</ele>
        <time>2021-07-15T14:02:12Z</time>
      </trkpt>
      <trkpt lat="45.10835" lon="6.59016">
        <ele>2442</ele>
        <time>2021-07-15T14:02:19Z</time>
      </trkpt>
      <trkpt lat="45.10837" lon="6.59011">
        <ele>2442</ele>
        <time>2021-07-15T14:02:22Z</time>
      </trkpt>
      <trkpt lat="45.10839" lon="6.59002">
        <ele>2442</ele>
        <time>2021-07-15T14:02:27Z</time>
      </trkpt>
      <trkpt lat="45.10836" lon="6.58991">
        <ele>2442</ele>
        <time>2021-07-15T14:02:34Z</time>
      </trkpt>
      <trkpt lat="45.10844" lon="6.58986">
        <ele>2441</ele>
        <time>2021-07-15T14:02:42Z</time>
      </trkpt>
      <trkpt lat="45.10846" lon="6.58978">
        <ele>2440</ele>
        <time>2021-07-15T14:02:47Z</time>
      </trkpt>
      <trkpt lat="45.10847" lon="6.58969">
        <ele>2438</ele>
        <time>2021-07-15T14:02:53Z</time>
      </trkpt>
      <trkpt lat="45.10851" lon="6.58962">
        <ele>2436</ele>
        <time>2021-07-15T14:02:57Z</time>
      </trkpt>
      <trkpt lat="45.10856" lon="6.58959">
        <ele>2436</ele>
        <time>2021-07-15T14:03:01Z</time>
      </trkpt>
      <trkpt lat="45.10863" lon="6.5895">
        <ele>2434</ele>
        <time>2021-07-15T14:03:11Z</time>
      </trkpt>
      <trkpt lat="45.10866" lon="6.58938">
        <ele>2431</ele>
        <time>2021-07-15T14:03:19Z</time>
      </trkpt>
      <trkpt lat="45.10871" lon="6.5894">
        <ele>2428</ele>
        <time>2021-07-15T14:03:27Z</time>
      </trkpt>
      <trkpt lat="45.10878" lon="6.58932">
        <ele>2426</ele>
        <time>2021-07-15T14:03:32Z</time>
      </trkpt>
      <trkpt lat="45.10888" lon="6.58927">
        <ele>2425</ele>
        <time>2021-07-15T14:03:39Z</time>
      </trkpt>
      <trkpt lat="45.10891" lon="6.58924">
        <ele>2424</ele>
        <time>2021-07-15T14:03:43Z</time>
      </trkpt>
      <trkpt lat="45.10895" lon="6.58925">
        <ele>2424</ele>
        <time>2021-07-15T14:03:46Z</time>
      </trkpt>
      <trkpt lat="45.10898" lon="6.58928">
        <ele>2424</ele>
        <time>2021-07-15T14:03:49Z</time>
      </trkpt>
      <trkpt lat="45.10903" lon="6.58927">
        <ele>2425</ele>
        <time>2021-07-15T14:03:55Z</time>
      </trkpt>
      <trkpt lat="45.10905" lon="6.58922">
        <ele>2425</ele>
        <time>2021-07-15T14:03:58Z</time>
      </trkpt>
      <trkpt lat="45.10906" lon="6.58914">
        <ele>2425</ele>
        <time>2021-07-15T14:04:04Z</time>
      </trkpt>
      <trkpt lat="45.10908" lon="6.58905">
        <ele>2425</ele>
        <time>2021-07-15T14:04:08Z</time>
      </trkpt>
      <trkpt lat="45.10913" lon="6.58893">
        <ele>2423</ele>
        <time>2021-07-15T14:04:18Z</time>
      </trkpt>
      <trkpt lat="45.10915" lon="6.58888">
        <ele>2423</ele>
        <time>2021-07-15T14:04:22Z</time>
      </trkpt>
      <trkpt lat="45.10927" lon="6.58878">
        <ele>2423</ele>
        <time>2021-07-15T14:04:30Z</time>
      </trkpt>
      <trkpt lat="45.10931" lon="6.58878">
        <ele>2423</ele>
        <time>2021-07-15T14:04:34Z</time>
      </trkpt>
      <trkpt lat="45.10938" lon="6.58859">
        <ele>2424</ele>
        <time>2021-07-15T14:04:50Z</time>
      </trkpt>
      <trkpt lat="45.10939" lon="6.58851">
        <ele>2424</ele>
        <time>2021-07-15T14:04:54Z</time>
      </trkpt>
      <trkpt lat="45.10945" lon="6.58846">
        <ele>2424</ele>
        <time>2021-07-15T14:04:59Z</time>
      </trkpt>
      <trkpt lat="45.10955" lon="6.58832">
        <ele>2425</ele>
        <time>2021-07-15T14:05:10Z</time>
      </trkpt>
      <trkpt lat="45.10956" lon="6.58827">
        <ele>2425</ele>
        <time>2021-07-15T14:05:14Z</time>
      </trkpt>
      <trkpt lat="45.1096" lon="6.58822">
        <ele>2425</ele>
        <time>2021-07-15T14:05:17Z</time>
      </trkpt>
      <trkpt lat="45.10962" lon="6.58818">
        <ele>2425</ele>
        <time>2021-07-15T14:05:20Z</time>
      </trkpt>
      <trkpt lat="45.10962" lon="6.58812">
        <ele>2426</ele>
        <time>2021-07-15T14:05:23Z</time>
      </trkpt>
      <trkpt lat="45.10963" lon="6.58807">
        <ele>2425</ele>
        <time>2021-07-15T14:05:27Z</time>
      </trkpt>
      <trkpt lat="45.10966" lon="6.58802">
        <ele>2425</ele>
        <time>2021-07-15T14:05:30Z</time>
      </trkpt>
      <trkpt lat="45.1097" lon="6.58786">
        <ele>2426</ele>
        <time>2021-07-15T14:05:41Z</time>
      </trkpt>
      <trkpt lat="45.10975" lon="6.58784">
        <ele>2427</ele>
        <time>2021-07-15T14:05:52Z</time>
      </trkpt>
      <trkpt lat="45.10975" lon="6.588">
        <ele>2427</ele>
        <time>2021-07-15T14:06:09Z</time>
      </trkpt>
      <trkpt lat="45.10984" lon="6.58839">
        <ele>2426</ele>
        <time>2021-07-15T14:06:30Z</time>
      </trkpt>
      <trkpt lat="45.1099" lon="6.58845">
        <ele>2426</ele>
        <time>2021-07-15T14:06:35Z</time>
      </trkpt>
      <trkpt lat="45.11003" lon="6.58855">
        <ele>2430</ele>
        <time>2021-07-15T14:06:57Z</time>
      </trkpt>
      <trkpt lat="45.11012" lon="6.58858">
        <ele>2432</ele>
        <time>2021-07-15T14:07:09Z</time>
      </trkpt>
      <trkpt lat="45.11022" lon="6.5885">
        <ele>2434</ele>
        <time>2021-07-15T14:07:25Z</time>
      </trkpt>
      <trkpt lat="45.11027" lon="6.58847">
        <ele>2433</ele>
        <time>2021-07-15T14:07:31Z</time>
      </trkpt>
      <trkpt lat="45.11034" lon="6.58834">
        <ele>2431</ele>
        <time>2021-07-15T14:07:42Z</time>
      </trkpt>
      <trkpt lat="45.11049" lon="6.58809">
        <ele>2431</ele>
        <time>2021-07-15T14:08:01Z</time>
      </trkpt>
      <trkpt lat="45.11054" lon="6.58804">
        <ele>2432</ele>
        <time>2021-07-15T14:08:07Z</time>
      </trkpt>
      <trkpt lat="45.11056" lon="6.58797">
        <ele>2432</ele>
        <time>2021-07-15T14:08:11Z</time>
      </trkpt>
      <trkpt lat="45.11054" lon="6.58788">
        <ele>2432</ele>
        <time>2021-07-15T14:08:16Z</time>
      </trkpt>
      <trkpt lat="45.11056" lon="6.5878">
        <ele>2433</ele>
        <time>2021-07-15T14:08:20Z</time>
      </trkpt>
      <trkpt lat="45.11063" lon="6.5878">
        <ele>2434</ele>
        <time>2021-07-15T14:08:25Z</time>
      </trkpt>
      <trkpt lat="45.11066" lon="6.58782">
        <ele>2434</ele>
        <time>2021-07-15T14:08:28Z</time>
      </trkpt>
      <trkpt lat="45.11072" lon="6.58778">
        <ele>2436</ele>
        <time>2021-07-15T14:08:36Z</time>
      </trkpt>
      <trkpt lat="45.1108" lon="6.58778">
        <ele>2438</ele>
        <time>2021-07-15T14:08:45Z</time>
      </trkpt>
      <trkpt lat="45.11084" lon="6.58774">
        <ele>2438</ele>
        <time>2021-07-15T14:08:51Z</time>
      </trkpt>
      <trkpt lat="45.11088" lon="6.58767">
        <ele>2439</ele>
        <time>2021-07-15T14:08:57Z</time>
      </trkpt>
      <trkpt lat="45.11094" lon="6.58771">
        <ele>2439</ele>
        <time>2021-07-15T14:09:05Z</time>
      </trkpt>
      <trkpt lat="45.11099" lon="6.58773">
        <ele>2439</ele>
        <time>2021-07-15T14:09:11Z</time>
      </trkpt>
      <trkpt lat="45.11106" lon="6.58777">
        <ele>2442</ele>
        <time>2021-07-15T14:09:25Z</time>
      </trkpt>
      <trkpt lat="45.11115" lon="6.58777">
        <ele>2445</ele>
        <time>2021-07-15T14:09:41Z</time>
      </trkpt>
      <trkpt lat="45.11122" lon="6.58777">
        <ele>2444</ele>
        <time>2021-07-15T14:09:48Z</time>
      </trkpt>
      <trkpt lat="45.11128" lon="6.58782">
        <ele>2445</ele>
        <time>2021-07-15T14:09:55Z</time>
      </trkpt>
      <trkpt lat="45.1113" lon="6.58789">
        <ele>2446</ele>
        <time>2021-07-15T14:10:04Z</time>
      </trkpt>
      <trkpt lat="45.11137" lon="6.58796">
        <ele>2448</ele>
        <time>2021-07-15T14:10:16Z</time>
      </trkpt>
      <trkpt lat="45.11144" lon="6.58807">
        <ele>2448</ele>
        <time>2021-07-15T14:10:27Z</time>
      </trkpt>
      <trkpt lat="45.11147" lon="6.58814">
        <ele>2448</ele>
        <time>2021-07-15T14:10:35Z</time>
      </trkpt>
      <trkpt lat="45.11146" lon="6.58822">
        <ele>2447</ele>
        <time>2021-07-15T14:10:40Z</time>
      </trkpt>
      <trkpt lat="45.11149" lon="6.58833">
        <ele>2447</ele>
        <time>2021-07-15T14:10:51Z</time>
      </trkpt>
      <trkpt lat="45.11151" lon="6.58848">
        <ele>2449</ele>
        <time>2021-07-15T14:11:03Z</time>
      </trkpt>
      <trkpt lat="45.11158" lon="6.58866">
        <ele>2452</ele>
        <time>2021-07-15T14:11:23Z</time>
      </trkpt>
      <trkpt lat="45.1116" lon="6.58875">
        <ele>2452</ele>
        <time>2021-07-15T14:11:29Z</time>
      </trkpt>
      <trkpt lat="45.11164" lon="6.58881">
        <ele>2452</ele>
        <time>2021-07-15T14:11:33Z</time>
      </trkpt>
      <trkpt lat="45.11166" lon="6.58888">
        <ele>2452</ele>
        <time>2021-07-15T14:11:38Z</time>
      </trkpt>
      <trkpt lat="45.11168" lon="6.58897">
        <ele>2452</ele>
        <time>2021-07-15T14:11:44Z</time>
      </trkpt>
      <trkpt lat="45.1117" lon="6.58904">
        <ele>2452</ele>
        <time>2021-07-15T14:11:49Z</time>
      </trkpt>
      <trkpt lat="45.11169" lon="6.58914">
        <ele>2452</ele>
        <time>2021-07-15T14:11:54Z</time>
      </trkpt>
      <trkpt lat="45.11174" lon="6.58928">
        <ele>2452</ele>
        <time>2021-07-15T14:12:04Z</time>
      </trkpt>
      <trkpt lat="45.11179" lon="6.58938">
        <ele>2453</ele>
        <time>2021-07-15T14:12:13Z</time>
      </trkpt>
      <trkpt lat="45.11185" lon="6.58944">
        <ele>2454</ele>
        <time>2021-07-15T14:12:22Z</time>
      </trkpt>
      <trkpt lat="45.11188" lon="6.58954">
        <ele>2456</ele>
        <time>2021-07-15T14:12:32Z</time>
      </trkpt>
      <trkpt lat="45.11186" lon="6.58962">
        <ele>2457</ele>
        <time>2021-07-15T14:12:40Z</time>
      </trkpt>
      <trkpt lat="45.11186" lon="6.5897">
        <ele>2458</ele>
        <time>2021-07-15T14:12:44Z</time>
      </trkpt>
      <trkpt lat="45.11189" lon="6.5899">
        <ele>2458</ele>
        <time>2021-07-15T14:12:56Z</time>
      </trkpt>
      <trkpt lat="45.11193" lon="6.58996">
        <ele>2458</ele>
        <time>2021-07-15T14:13:00Z</time>
      </trkpt>
      <trkpt lat="45.11195" lon="6.59003">
        <ele>2459</ele>
        <time>2021-07-15T14:13:06Z</time>
      </trkpt>
      <trkpt lat="45.11198" lon="6.5901">
        <ele>2460</ele>
        <time>2021-07-15T14:13:15Z</time>
      </trkpt>
      <trkpt lat="45.11197" lon="6.59024">
        <ele>2462</ele>
        <time>2021-07-15T14:13:27Z</time>
      </trkpt>
      <trkpt lat="45.11197" lon="6.59032">
        <ele>2462</ele>
        <time>2021-07-15T14:13:32Z</time>
      </trkpt>
      <trkpt lat="45.11197" lon="6.59049">
        <ele>2463</ele>
        <time>2021-07-15T14:13:43Z</time>
      </trkpt>
      <trkpt lat="45.11199" lon="6.59057">
        <ele>2463</ele>
        <time>2021-07-15T14:13:47Z</time>
      </trkpt>
      <trkpt lat="45.11201" lon="6.59064">
        <ele>2463</ele>
        <time>2021-07-15T14:13:51Z</time>
      </trkpt>
      <trkpt lat="45.11201" lon="6.59074">
        <ele>2464</ele>
        <time>2021-07-15T14:13:56Z</time>
      </trkpt>
      <trkpt lat="45.11203" lon="6.59081">
        <ele>2464</ele>
        <time>2021-07-15T14:14:01Z</time>
      </trkpt>
      <trkpt lat="45.11205" lon="6.59105">
        <ele>2468</ele>
        <time>2021-07-15T14:14:23Z</time>
      </trkpt>
      <trkpt lat="45.112" lon="6.59134">
        <ele>2470</ele>
        <time>2021-07-15T14:14:48Z</time>
      </trkpt>
      <trkpt lat="45.11202" lon="6.59141">
        <ele>2471</ele>
        <time>2021-07-15T14:14:54Z</time>
      </trkpt>
      <trkpt lat="45.11205" lon="6.59148">
        <ele>2472</ele>
        <time>2021-07-15T14:14:59Z</time>
      </trkpt>
      <trkpt lat="45.11215" lon="6.59166">
        <ele>2474</ele>
        <time>2021-07-15T14:15:15Z</time>
      </trkpt>
      <trkpt lat="45.11218" lon="6.59173">
        <ele>2474</ele>
        <time>2021-07-15T14:15:22Z</time>
      </trkpt>
      <trkpt lat="45.11225" lon="6.59198">
        <ele>2476</ele>
        <time>2021-07-15T14:15:40Z</time>
      </trkpt>
      <trkpt lat="45.11226" lon="6.59208">
        <ele>2477</ele>
        <time>2021-07-15T14:15:48Z</time>
      </trkpt>
      <trkpt lat="45.11228" lon="6.59215">
        <ele>2478</ele>
        <time>2021-07-15T14:15:53Z</time>
      </trkpt>
      <trkpt lat="45.11231" lon="6.5922">
        <ele>2479</ele>
        <time>2021-07-15T14:15:58Z</time>
      </trkpt>
      <trkpt lat="45.11234" lon="6.59231">
        <ele>2479</ele>
        <time>2021-07-15T14:16:06Z</time>
      </trkpt>
      <trkpt lat="45.11238" lon="6.59239">
        <ele>2479</ele>
        <time>2021-07-15T14:16:10Z</time>
      </trkpt>
      <trkpt lat="45.11248" lon="6.59259">
        <ele>2476</ele>
        <time>2021-07-15T14:16:22Z</time>
      </trkpt>
      <trkpt lat="45.11255" lon="6.59277">
        <ele>2475</ele>
        <time>2021-07-15T14:16:33Z</time>
      </trkpt>
      <trkpt lat="45.11259" lon="6.59288">
        <ele>2475</ele>
        <time>2021-07-15T14:16:39Z</time>
      </trkpt>
      <trkpt lat="45.11263" lon="6.59293">
        <ele>2475</ele>
        <time>2021-07-15T14:16:44Z</time>
      </trkpt>
      <trkpt lat="45.11266" lon="6.59298">
        <ele>2475</ele>
        <time>2021-07-15T14:16:48Z</time>
      </trkpt>
      <trkpt lat="45.11272" lon="6.59295">
        <ele>2475</ele>
        <time>2021-07-15T14:16:53Z</time>
      </trkpt>
      <trkpt lat="45.11281" lon="6.59297">
        <ele>2477</ele>
        <time>2021-07-15T14:17:03Z</time>
      </trkpt>
      <trkpt lat="45.11298" lon="6.59318">
        <ele>2481</ele>
        <time>2021-07-15T14:17:26Z</time>
      </trkpt>
      <trkpt lat="45.11301" lon="6.59327">
        <ele>2480</ele>
        <time>2021-07-15T14:17:31Z</time>
      </trkpt>
      <trkpt lat="45.11311" lon="6.59317">
        <ele>2476</ele>
        <time>2021-07-15T14:17:50Z</time>
      </trkpt>
      <trkpt lat="45.11317" lon="6.59315">
        <ele>2476</ele>
        <time>2021-07-15T14:17:56Z</time>
      </trkpt>
      <trkpt lat="45.11328" lon="6.59322">
        <ele>2472</ele>
        <time>2021-07-15T14:18:04Z</time>
      </trkpt>
      <trkpt lat="45.11333" lon="6.59327">
        <ele>2471</ele>
        <time>2021-07-15T14:18:08Z</time>
      </trkpt>
      <trkpt lat="45.11336" lon="6.59334">
        <ele>2470</ele>
        <time>2021-07-15T14:18:12Z</time>
      </trkpt>
      <trkpt lat="45.11345" lon="6.5937">
        <ele>2466</ele>
        <time>2021-07-15T14:18:38Z</time>
      </trkpt>
      <trkpt lat="45.11349" lon="6.59376">
        <ele>2466</ele>
        <time>2021-07-15T14:18:43Z</time>
      </trkpt>
      <trkpt lat="45.11357" lon="6.59383">
        <ele>2466</ele>
        <time>2021-07-15T14:18:53Z</time>
      </trkpt>
      <trkpt lat="45.11363" lon="6.59391">
        <ele>2469</ele>
        <time>2021-07-15T14:19:06Z</time>
      </trkpt>
      <trkpt lat="45.1137" lon="6.59393">
        <ele>2471</ele>
        <time>2021-07-15T14:19:18Z</time>
      </trkpt>
      <trkpt lat="45.11377" lon="6.594">
        <ele>2473</ele>
        <time>2021-07-15T14:19:30Z</time>
      </trkpt>
      <trkpt lat="45.11378" lon="6.5941">
        <ele>2476</ele>
        <time>2021-07-15T14:19:42Z</time>
      </trkpt>
      <trkpt lat="45.11381" lon="6.59419">
        <ele>2477</ele>
        <time>2021-07-15T14:19:48Z</time>
      </trkpt>
      <trkpt lat="45.11383" lon="6.59425">
        <ele>2477</ele>
        <time>2021-07-15T14:19:53Z</time>
      </trkpt>
      <trkpt lat="45.11397" lon="6.59452">
        <ele>2480</ele>
        <time>2021-07-15T14:20:16Z</time>
      </trkpt>
      <trkpt lat="45.11401" lon="6.59457">
        <ele>2480</ele>
        <time>2021-07-15T14:20:20Z</time>
      </trkpt>
      <trkpt lat="45.11405" lon="6.59463">
        <ele>2481</ele>
        <time>2021-07-15T14:20:26Z</time>
      </trkpt>
      <trkpt lat="45.11406" lon="6.59472">
        <ele>2481</ele>
        <time>2021-07-15T14:20:33Z</time>
      </trkpt>
      <trkpt lat="45.11406" lon="6.59482">
        <ele>2482</ele>
        <time>2021-07-15T14:20:40Z</time>
      </trkpt>
      <trkpt lat="45.11406" lon="6.5949">
        <ele>2481</ele>
        <time>2021-07-15T14:20:46Z</time>
      </trkpt>
      <trkpt lat="45.11405" lon="6.59499">
        <ele>2481</ele>
        <time>2021-07-15T14:20:51Z</time>
      </trkpt>
      <trkpt lat="45.11408" lon="6.59506">
        <ele>2482</ele>
        <time>2021-07-15T14:20:57Z</time>
      </trkpt>
      <trkpt lat="45.11412" lon="6.59512">
        <ele>2483</ele>
        <time>2021-07-15T14:21:03Z</time>
      </trkpt>
      <trkpt lat="45.11416" lon="6.5952">
        <ele>2483</ele>
        <time>2021-07-15T14:21:08Z</time>
      </trkpt>
      <trkpt lat="45.11422" lon="6.59524">
        <ele>2483</ele>
        <time>2021-07-15T14:21:12Z</time>
      </trkpt>
      <trkpt lat="45.11432" lon="6.59532">
        <ele>2480</ele>
        <time>2021-07-15T14:21:22Z</time>
      </trkpt>
      <trkpt lat="45.11441" lon="6.59542">
        <ele>2480</ele>
        <time>2021-07-15T14:21:32Z</time>
      </trkpt>
      <trkpt lat="45.11442" lon="6.5955">
        <ele>2480</ele>
        <time>2021-07-15T14:21:38Z</time>
      </trkpt>
      <trkpt lat="45.11439" lon="6.59558">
        <ele>2480</ele>
        <time>2021-07-15T14:21:42Z</time>
      </trkpt>
      <trkpt lat="45.11439" lon="6.59566">
        <ele>2480</ele>
        <time>2021-07-15T14:21:46Z</time>
      </trkpt>
      <trkpt lat="45.11437" lon="6.59574">
        <ele>2480</ele>
        <time>2021-07-15T14:21:51Z</time>
      </trkpt>
      <trkpt lat="45.11436" lon="6.59583">
        <ele>2481</ele>
        <time>2021-07-15T14:21:56Z</time>
      </trkpt>
      <trkpt lat="45.11432" lon="6.59593">
        <ele>2481</ele>
        <time>2021-07-15T14:22:04Z</time>
      </trkpt>
      <trkpt lat="45.1143" lon="6.5961">
        <ele>2481</ele>
        <time>2021-07-15T14:22:13Z</time>
      </trkpt>
      <trkpt lat="45.11431" lon="6.5962">
        <ele>2482</ele>
        <time>2021-07-15T14:22:22Z</time>
      </trkpt>
      <trkpt lat="45.1143" lon="6.59629">
        <ele>2482</ele>
        <time>2021-07-15T14:22:30Z</time>
      </trkpt>
      <trkpt lat="45.11433" lon="6.59642">
        <ele>2481</ele>
        <time>2021-07-15T14:22:40Z</time>
      </trkpt>
      <trkpt lat="45.11438" lon="6.59658">
        <ele>2481</ele>
        <time>2021-07-15T14:22:51Z</time>
      </trkpt>
      <trkpt lat="45.11445" lon="6.59676">
        <ele>2479</ele>
        <time>2021-07-15T14:23:04Z</time>
      </trkpt>
      <trkpt lat="45.11449" lon="6.59697">
        <ele>2479</ele>
        <time>2021-07-15T14:23:18Z</time>
      </trkpt>
      <trkpt lat="45.11452" lon="6.59704">
        <ele>2479</ele>
        <time>2021-07-15T14:23:21Z</time>
      </trkpt>
      <trkpt lat="45.11452" lon="6.59712">
        <ele>2479</ele>
        <time>2021-07-15T14:23:26Z</time>
      </trkpt>
      <trkpt lat="45.11453" lon="6.59721">
        <ele>2479</ele>
        <time>2021-07-15T14:23:31Z</time>
      </trkpt>
      <trkpt lat="45.11454" lon="6.59729">
        <ele>2479</ele>
        <time>2021-07-15T14:23:35Z</time>
      </trkpt>
      <trkpt lat="45.11457" lon="6.59737">
        <ele>2479</ele>
        <time>2021-07-15T14:23:40Z</time>
      </trkpt>
      <trkpt lat="45.11458" lon="6.59744">
        <ele>2479</ele>
        <time>2021-07-15T14:23:45Z</time>
      </trkpt>
      <trkpt lat="45.11457" lon="6.59762">
        <ele>2479</ele>
        <time>2021-07-15T14:23:54Z</time>
      </trkpt>
      <trkpt lat="45.11457" lon="6.5977">
        <ele>2480</ele>
        <time>2021-07-15T14:23:59Z</time>
      </trkpt>
      <trkpt lat="45.11457" lon="6.59783">
        <ele>2481</ele>
        <time>2021-07-15T14:24:07Z</time>
      </trkpt>
      <trkpt lat="45.11463" lon="6.5979">
        <ele>2480</ele>
        <time>2021-07-15T14:24:14Z</time>
      </trkpt>
      <trkpt lat="45.11471" lon="6.59788">
        <ele>2478</ele>
        <time>2021-07-15T14:24:23Z</time>
      </trkpt>
      <trkpt lat="45.11479" lon="6.59787">
        <ele>2477</ele>
        <time>2021-07-15T14:24:29Z</time>
      </trkpt>
      <trkpt lat="45.11486" lon="6.59789">
        <ele>2477</ele>
        <time>2021-07-15T14:24:34Z</time>
      </trkpt>
      <trkpt lat="45.11491" lon="6.59791">
        <ele>2477</ele>
        <time>2021-07-15T14:24:38Z</time>
      </trkpt>
      <trkpt lat="45.11495" lon="6.59797">
        <ele>2476</ele>
        <time>2021-07-15T14:24:43Z</time>
      </trkpt>
      <trkpt lat="45.11514" lon="6.59831">
        <ele>2471</ele>
        <time>2021-07-15T14:25:06Z</time>
      </trkpt>
      <trkpt lat="45.11519" lon="6.59834">
        <ele>2471</ele>
        <time>2021-07-15T14:25:10Z</time>
      </trkpt>
      <trkpt lat="45.11532" lon="6.59836">
        <ele>2471</ele>
        <time>2021-07-15T14:25:21Z</time>
      </trkpt>
      <trkpt lat="45.11536" lon="6.59842">
        <ele>2471</ele>
        <time>2021-07-15T14:25:27Z</time>
      </trkpt>
      <trkpt lat="45.11543" lon="6.59842">
        <ele>2469</ele>
        <time>2021-07-15T14:25:41Z</time>
      </trkpt>
      <trkpt lat="45.11544" lon="6.59853">
        <ele>2465</ele>
        <time>2021-07-15T14:25:53Z</time>
      </trkpt>
      <trkpt lat="45.11552" lon="6.59865">
        <ele>2462</ele>
        <time>2021-07-15T14:26:02Z</time>
      </trkpt>
      <trkpt lat="45.11554" lon="6.59873">
        <ele>2462</ele>
        <time>2021-07-15T14:26:10Z</time>
      </trkpt>
      <trkpt lat="45.11557" lon="6.59886">
        <ele>2463</ele>
        <time>2021-07-15T14:26:20Z</time>
      </trkpt>
      <trkpt lat="45.11559" lon="6.59892">
        <ele>2463</ele>
        <time>2021-07-15T14:26:26Z</time>
      </trkpt>
      <trkpt lat="45.11562" lon="6.599">
        <ele>2463</ele>
        <time>2021-07-15T14:26:32Z</time>
      </trkpt>
      <trkpt lat="45.11566" lon="6.59906">
        <ele>2461</ele>
        <time>2021-07-15T14:26:37Z</time>
      </trkpt>
      <trkpt lat="45.11566" lon="6.59914">
        <ele>2461</ele>
        <time>2021-07-15T14:26:42Z</time>
      </trkpt>
      <trkpt lat="45.11564" lon="6.59927">
        <ele>2461</ele>
        <time>2021-07-15T14:26:54Z</time>
      </trkpt>
      <trkpt lat="45.11567" lon="6.59935">
        <ele>2459</ele>
        <time>2021-07-15T14:26:58Z</time>
      </trkpt>
      <trkpt lat="45.11569" lon="6.59945">
        <ele>2459</ele>
        <time>2021-07-15T14:27:02Z</time>
      </trkpt>
      <trkpt lat="45.11579" lon="6.59971">
        <ele>2455</ele>
        <time>2021-07-15T14:27:18Z</time>
      </trkpt>
      <trkpt lat="45.11579" lon="6.59985">
        <ele>2455</ele>
        <time>2021-07-15T14:27:27Z</time>
      </trkpt>
      <trkpt lat="45.11584" lon="6.59989">
        <ele>2455</ele>
        <time>2021-07-15T14:27:32Z</time>
      </trkpt>
      <trkpt lat="45.11586" lon="6.59996">
        <ele>2455</ele>
        <time>2021-07-15T14:27:37Z</time>
      </trkpt>
      <trkpt lat="45.11587" lon="6.60005">
        <ele>2455</ele>
        <time>2021-07-15T14:27:41Z</time>
      </trkpt>
      <trkpt lat="45.11594" lon="6.60021">
        <ele>2454</ele>
        <time>2021-07-15T14:27:50Z</time>
      </trkpt>
      <trkpt lat="45.11598" lon="6.60026">
        <ele>2454</ele>
        <time>2021-07-15T14:27:54Z</time>
      </trkpt>
      <trkpt lat="45.116" lon="6.60035">
        <ele>2453</ele>
        <time>2021-07-15T14:28:00Z</time>
      </trkpt>
      <trkpt lat="45.116" lon="6.60043">
        <ele>2453</ele>
        <time>2021-07-15T14:28:04Z</time>
      </trkpt>
      <trkpt lat="45.11601" lon="6.60051">
        <ele>2453</ele>
        <time>2021-07-15T14:28:09Z</time>
      </trkpt>
      <trkpt lat="45.11604" lon="6.60057">
        <ele>2451</ele>
        <time>2021-07-15T14:28:13Z</time>
      </trkpt>
      <trkpt lat="45.11608" lon="6.60067">
        <ele>2450</ele>
        <time>2021-07-15T14:28:20Z</time>
      </trkpt>
      <trkpt lat="45.11618" lon="6.6007">
        <ele>2448</ele>
        <time>2021-07-15T14:28:38Z</time>
      </trkpt>
      <trkpt lat="45.11618" lon="6.60078">
        <ele>2446</ele>
        <time>2021-07-15T14:28:44Z</time>
      </trkpt>
      <trkpt lat="45.11621" lon="6.60084">
        <ele>2445</ele>
        <time>2021-07-15T14:28:48Z</time>
      </trkpt>
      <trkpt lat="45.11621" lon="6.60101">
        <ele>2443</ele>
        <time>2021-07-15T14:28:55Z</time>
      </trkpt>
      <trkpt lat="45.11623" lon="6.6011">
        <ele>2442</ele>
        <time>2021-07-15T14:28:59Z</time>
      </trkpt>
      <trkpt lat="45.1163" lon="6.60125">
        <ele>2442</ele>
        <time>2021-07-15T14:29:09Z</time>
      </trkpt>
      <trkpt lat="45.11634" lon="6.60132">
        <ele>2441</ele>
        <time>2021-07-15T14:29:13Z</time>
      </trkpt>
      <trkpt lat="45.11644" lon="6.60166">
        <ele>2436</ele>
        <time>2021-07-15T14:29:40Z</time>
      </trkpt>
      <trkpt lat="45.11645" lon="6.60178">
        <ele>2435</ele>
        <time>2021-07-15T14:29:45Z</time>
      </trkpt>
      <trkpt lat="45.11648" lon="6.60193">
        <ele>2435</ele>
        <time>2021-07-15T14:29:55Z</time>
      </trkpt>
      <trkpt lat="45.11648" lon="6.60203">
        <ele>2433</ele>
        <time>2021-07-15T14:29:59Z</time>
      </trkpt>
      <trkpt lat="45.11649" lon="6.60214">
        <ele>2432</ele>
        <time>2021-07-15T14:30:05Z</time>
      </trkpt>
      <trkpt lat="45.11652" lon="6.60221">
        <ele>2430</ele>
        <time>2021-07-15T14:30:09Z</time>
      </trkpt>
      <trkpt lat="45.11657" lon="6.60227">
        <ele>2430</ele>
        <time>2021-07-15T14:30:14Z</time>
      </trkpt>
      <trkpt lat="45.11659" lon="6.60235">
        <ele>2431</ele>
        <time>2021-07-15T14:30:20Z</time>
      </trkpt>
      <trkpt lat="45.11661" lon="6.60251">
        <ele>2431</ele>
        <time>2021-07-15T14:30:31Z</time>
      </trkpt>
      <trkpt lat="45.11666" lon="6.60256">
        <ele>2432</ele>
        <time>2021-07-15T14:30:37Z</time>
      </trkpt>
      <trkpt lat="45.11671" lon="6.60263">
        <ele>2432</ele>
        <time>2021-07-15T14:30:43Z</time>
      </trkpt>
      <trkpt lat="45.11674" lon="6.6027">
        <ele>2432</ele>
        <time>2021-07-15T14:30:48Z</time>
      </trkpt>
      <trkpt lat="45.11678" lon="6.60276">
        <ele>2432</ele>
        <time>2021-07-15T14:30:54Z</time>
      </trkpt>
      <trkpt lat="45.11678" lon="6.60286">
        <ele>2433</ele>
        <time>2021-07-15T14:31:03Z</time>
      </trkpt>
      <trkpt lat="45.11681" lon="6.60294">
        <ele>2433</ele>
        <time>2021-07-15T14:31:07Z</time>
      </trkpt>
      <trkpt lat="45.11693" lon="6.60299">
        <ele>2435</ele>
        <time>2021-07-15T14:31:21Z</time>
      </trkpt>
      <trkpt lat="45.11691" lon="6.60309">
        <ele>2436</ele>
        <time>2021-07-15T14:31:31Z</time>
      </trkpt>
      <trkpt lat="45.11689" lon="6.60317">
        <ele>2435</ele>
        <time>2021-07-15T14:31:35Z</time>
      </trkpt>
      <trkpt lat="45.11686" lon="6.60324">
        <ele>2435</ele>
        <time>2021-07-15T14:31:39Z</time>
      </trkpt>
      <trkpt lat="45.11684" lon="6.60331">
        <ele>2435</ele>
        <time>2021-07-15T14:31:43Z</time>
      </trkpt>
      <trkpt lat="45.11678" lon="6.60335">
        <ele>2435</ele>
        <time>2021-07-15T14:31:48Z</time>
      </trkpt>
      <trkpt lat="45.11673" lon="6.60341">
        <ele>2434</ele>
        <time>2021-07-15T14:31:53Z</time>
      </trkpt>
      <trkpt lat="45.11671" lon="6.60349">
        <ele>2435</ele>
        <time>2021-07-15T14:31:57Z</time>
      </trkpt>
      <trkpt lat="45.11671" lon="6.60357">
        <ele>2435</ele>
        <time>2021-07-15T14:32:01Z</time>
      </trkpt>
      <trkpt lat="45.11666" lon="6.60374">
        <ele>2435</ele>
        <time>2021-07-15T14:32:12Z</time>
      </trkpt>
      <trkpt lat="45.11665" lon="6.60391">
        <ele>2435</ele>
        <time>2021-07-15T14:32:21Z</time>
      </trkpt>
      <trkpt lat="45.11665" lon="6.604">
        <ele>2436</ele>
        <time>2021-07-15T14:32:25Z</time>
      </trkpt>
      <trkpt lat="45.11665" lon="6.60416">
        <ele>2435</ele>
        <time>2021-07-15T14:32:34Z</time>
      </trkpt>
      <trkpt lat="45.11667" lon="6.60424">
        <ele>2435</ele>
        <time>2021-07-15T14:32:39Z</time>
      </trkpt>
      <trkpt lat="45.11673" lon="6.60438">
        <ele>2434</ele>
        <time>2021-07-15T14:32:48Z</time>
      </trkpt>
      <trkpt lat="45.11675" lon="6.60445">
        <ele>2434</ele>
        <time>2021-07-15T14:32:52Z</time>
      </trkpt>
      <trkpt lat="45.11678" lon="6.60452">
        <ele>2435</ele>
        <time>2021-07-15T14:32:56Z</time>
      </trkpt>
      <trkpt lat="45.11679" lon="6.6046">
        <ele>2435</ele>
        <time>2021-07-15T14:33:00Z</time>
      </trkpt>
      <trkpt lat="45.11679" lon="6.60485">
        <ele>2436</ele>
        <time>2021-07-15T14:33:18Z</time>
      </trkpt>
      <trkpt lat="45.1168" lon="6.60493">
        <ele>2436</ele>
        <time>2021-07-15T14:33:23Z</time>
      </trkpt>
      <trkpt lat="45.11678" lon="6.605">
        <ele>2437</ele>
        <time>2021-07-15T14:33:28Z</time>
      </trkpt>
      <trkpt lat="45.11684" lon="6.60512">
        <ele>2439</ele>
        <time>2021-07-15T14:33:38Z</time>
      </trkpt>
      <trkpt lat="45.11705" lon="6.6054">
        <ele>2439</ele>
        <time>2021-07-15T14:34:02Z</time>
      </trkpt>
      <trkpt lat="45.11709" lon="6.60546">
        <ele>2439</ele>
        <time>2021-07-15T14:34:08Z</time>
      </trkpt>
      <trkpt lat="45.11716" lon="6.60553">
        <ele>2439</ele>
        <time>2021-07-15T14:34:13Z</time>
      </trkpt>
      <trkpt lat="45.11733" lon="6.60564">
        <ele>2437</ele>
        <time>2021-07-15T14:34:28Z</time>
      </trkpt>
      <trkpt lat="45.11736" lon="6.60564">
        <ele>2437</ele>
        <time>2021-07-15T14:34:31Z</time>
      </trkpt>
      <trkpt lat="45.11742" lon="6.60568">
        <ele>2437</ele>
        <time>2021-07-15T14:34:35Z</time>
      </trkpt>
      <trkpt lat="45.11752" lon="6.60575">
        <ele>2437</ele>
        <time>2021-07-15T14:34:45Z</time>
      </trkpt>
      <trkpt lat="45.11758" lon="6.60576">
        <ele>2437</ele>
        <time>2021-07-15T14:34:50Z</time>
      </trkpt>
      <trkpt lat="45.1177" lon="6.60577">
        <ele>2437</ele>
        <time>2021-07-15T14:34:59Z</time>
      </trkpt>
      <trkpt lat="45.11801" lon="6.60593">
        <ele>2438</ele>
        <time>2021-07-15T14:35:28Z</time>
      </trkpt>
      <trkpt lat="45.11817" lon="6.60594">
        <ele>2439</ele>
        <time>2021-07-15T14:35:44Z</time>
      </trkpt>
      <trkpt lat="45.11821" lon="6.60596">
        <ele>2438</ele>
        <time>2021-07-15T14:35:48Z</time>
      </trkpt>
      <trkpt lat="45.11837" lon="6.60602">
        <ele>2440</ele>
        <time>2021-07-15T14:36:01Z</time>
      </trkpt>
      <trkpt lat="45.11843" lon="6.60602">
        <ele>2440</ele>
        <time>2021-07-15T14:36:07Z</time>
      </trkpt>
      <trkpt lat="45.11856" lon="6.60608">
        <ele>2439</ele>
        <time>2021-07-15T14:36:16Z</time>
      </trkpt>
      <trkpt lat="45.11861" lon="6.60608">
        <ele>2439</ele>
        <time>2021-07-15T14:36:20Z</time>
      </trkpt>
      <trkpt lat="45.11874" lon="6.60612">
        <ele>2439</ele>
        <time>2021-07-15T14:36:33Z</time>
      </trkpt>
      <trkpt lat="45.1188" lon="6.60614">
        <ele>2440</ele>
        <time>2021-07-15T14:36:39Z</time>
      </trkpt>
      <trkpt lat="45.11886" lon="6.60615">
        <ele>2440</ele>
        <time>2021-07-15T14:36:44Z</time>
      </trkpt>
      <trkpt lat="45.11892" lon="6.60617">
        <ele>2441</ele>
        <time>2021-07-15T14:36:48Z</time>
      </trkpt>
      <trkpt lat="45.11896" lon="6.60619">
        <ele>2441</ele>
        <time>2021-07-15T14:36:51Z</time>
      </trkpt>
      <trkpt lat="45.119" lon="6.60622">
        <ele>2441</ele>
        <time>2021-07-15T14:36:54Z</time>
      </trkpt>
      <trkpt lat="45.11904" lon="6.60624">
        <ele>2440</ele>
        <time>2021-07-15T14:36:57Z</time>
      </trkpt>
      <trkpt lat="45.11908" lon="6.60626">
        <ele>2440</ele>
        <time>2021-07-15T14:37:00Z</time>
      </trkpt>
      <trkpt lat="45.11921" lon="6.60637">
        <ele>2437</ele>
        <time>2021-07-15T14:37:26Z</time>
      </trkpt>
      <trkpt lat="45.11924" lon="6.60637">
        <ele>2437</ele>
        <time>2021-07-15T14:37:30Z</time>
      </trkpt>
      <trkpt lat="45.11937" lon="6.60637">
        <ele>2437</ele>
        <time>2021-07-15T14:37:40Z</time>
      </trkpt>
      <trkpt lat="45.11941" lon="6.60635">
        <ele>2437</ele>
        <time>2021-07-15T14:37:43Z</time>
      </trkpt>
      <trkpt lat="45.11945" lon="6.60636">
        <ele>2436</ele>
        <time>2021-07-15T14:37:46Z</time>
      </trkpt>
      <trkpt lat="45.11949" lon="6.60634">
        <ele>2437</ele>
        <time>2021-07-15T14:37:50Z</time>
      </trkpt>
      <trkpt lat="45.11951" lon="6.60638">
        <ele>2437</ele>
        <time>2021-07-15T14:37:53Z</time>
      </trkpt>
      <trkpt lat="45.11957" lon="6.60639">
        <ele>2437</ele>
        <time>2021-07-15T14:37:56Z</time>
      </trkpt>
      <trkpt lat="45.11961" lon="6.60643">
        <ele>2438</ele>
        <time>2021-07-15T14:38:02Z</time>
      </trkpt>
      <trkpt lat="45.11965" lon="6.60644">
        <ele>2438</ele>
        <time>2021-07-15T14:38:05Z</time>
      </trkpt>
      <trkpt lat="45.11973" lon="6.60647">
        <ele>2437</ele>
        <time>2021-07-15T14:38:11Z</time>
      </trkpt>
      <trkpt lat="45.11977" lon="6.60649">
        <ele>2438</ele>
        <time>2021-07-15T14:38:14Z</time>
      </trkpt>
      <trkpt lat="45.11981" lon="6.60649">
        <ele>2438</ele>
        <time>2021-07-15T14:38:18Z</time>
      </trkpt>
      <trkpt lat="45.11985" lon="6.60654">
        <ele>2438</ele>
        <time>2021-07-15T14:38:21Z</time>
      </trkpt>
      <trkpt lat="45.1199" lon="6.60654">
        <ele>2438</ele>
        <time>2021-07-15T14:38:24Z</time>
      </trkpt>
      <trkpt lat="45.12014" lon="6.60662">
        <ele>2437</ele>
        <time>2021-07-15T14:38:44Z</time>
      </trkpt>
      <trkpt lat="45.12019" lon="6.60663">
        <ele>2437</ele>
        <time>2021-07-15T14:38:48Z</time>
      </trkpt>
      <trkpt lat="45.12023" lon="6.60665">
        <ele>2437</ele>
        <time>2021-07-15T14:38:52Z</time>
      </trkpt>
      <trkpt lat="45.12027" lon="6.60664">
        <ele>2437</ele>
        <time>2021-07-15T14:38:56Z</time>
      </trkpt>
      <trkpt lat="45.12037" lon="6.60667">
        <ele>2438</ele>
        <time>2021-07-15T14:39:03Z</time>
      </trkpt>
      <trkpt lat="45.12049" lon="6.60672">
        <ele>2437</ele>
        <time>2021-07-15T14:39:12Z</time>
      </trkpt>
      <trkpt lat="45.12057" lon="6.60672">
        <ele>2437</ele>
        <time>2021-07-15T14:39:18Z</time>
      </trkpt>
      <trkpt lat="45.12061" lon="6.60674">
        <ele>2437</ele>
        <time>2021-07-15T14:39:21Z</time>
      </trkpt>
      <trkpt lat="45.12065" lon="6.60674">
        <ele>2437</ele>
        <time>2021-07-15T14:39:25Z</time>
      </trkpt>
      <trkpt lat="45.12079" lon="6.60678">
        <ele>2437</ele>
        <time>2021-07-15T14:39:38Z</time>
      </trkpt>
      <trkpt lat="45.12089" lon="6.60675">
        <ele>2437</ele>
        <time>2021-07-15T14:39:45Z</time>
      </trkpt>
      <trkpt lat="45.12093" lon="6.60672">
        <ele>2437</ele>
        <time>2021-07-15T14:39:49Z</time>
      </trkpt>
      <trkpt lat="45.12101" lon="6.60674">
        <ele>2437</ele>
        <time>2021-07-15T14:39:55Z</time>
      </trkpt>
      <trkpt lat="45.12105" lon="6.60673">
        <ele>2437</ele>
        <time>2021-07-15T14:39:59Z</time>
      </trkpt>
      <trkpt lat="45.12115" lon="6.60668">
        <ele>2439</ele>
        <time>2021-07-15T14:40:09Z</time>
      </trkpt>
      <trkpt lat="45.1213" lon="6.60664">
        <ele>2438</ele>
        <time>2021-07-15T14:40:20Z</time>
      </trkpt>
      <trkpt lat="45.12141" lon="6.60657">
        <ele>2439</ele>
        <time>2021-07-15T14:40:29Z</time>
      </trkpt>
      <trkpt lat="45.12145" lon="6.60651">
        <ele>2439</ele>
        <time>2021-07-15T14:40:35Z</time>
      </trkpt>
      <trkpt lat="45.1215" lon="6.60647">
        <ele>2441</ele>
        <time>2021-07-15T14:40:41Z</time>
      </trkpt>
      <trkpt lat="45.12158" lon="6.60633">
        <ele>2441</ele>
        <time>2021-07-15T14:40:50Z</time>
      </trkpt>
      <trkpt lat="45.12165" lon="6.60612">
        <ele>2442</ele>
        <time>2021-07-15T14:41:05Z</time>
      </trkpt>
      <trkpt lat="45.12163" lon="6.60604">
        <ele>2441</ele>
        <time>2021-07-15T14:41:11Z</time>
      </trkpt>
      <trkpt lat="45.12159" lon="6.60597">
        <ele>2441</ele>
        <time>2021-07-15T14:41:15Z</time>
      </trkpt>
      <trkpt lat="45.12156" lon="6.60586">
        <ele>2441</ele>
        <time>2021-07-15T14:41:22Z</time>
      </trkpt>
      <trkpt lat="45.12157" lon="6.60581">
        <ele>2441</ele>
        <time>2021-07-15T14:41:25Z</time>
      </trkpt>
      <trkpt lat="45.12156" lon="6.60574">
        <ele>2441</ele>
        <time>2021-07-15T14:41:29Z</time>
      </trkpt>
      <trkpt lat="45.12154" lon="6.60569">
        <ele>2440</ele>
        <time>2021-07-15T14:41:32Z</time>
      </trkpt>
      <trkpt lat="45.1215" lon="6.60565">
        <ele>2439</ele>
        <time>2021-07-15T14:41:36Z</time>
      </trkpt>
      <trkpt lat="45.12152" lon="6.60556">
        <ele>2438</ele>
        <time>2021-07-15T14:41:41Z</time>
      </trkpt>
      <trkpt lat="45.12151" lon="6.60551">
        <ele>2438</ele>
        <time>2021-07-15T14:41:44Z</time>
      </trkpt>
      <trkpt lat="45.12151" lon="6.60544">
        <ele>2439</ele>
        <time>2021-07-15T14:41:47Z</time>
      </trkpt>
      <trkpt lat="45.12152" lon="6.60539">
        <ele>2439</ele>
        <time>2021-07-15T14:41:50Z</time>
      </trkpt>
      <trkpt lat="45.12154" lon="6.6052">
        <ele>2439</ele>
        <time>2021-07-15T14:42:01Z</time>
      </trkpt>
      <trkpt lat="45.12155" lon="6.60511">
        <ele>2440</ele>
        <time>2021-07-15T14:42:10Z</time>
      </trkpt>
      <trkpt lat="45.12159" lon="6.60503">
        <ele>2441</ele>
        <time>2021-07-15T14:42:15Z</time>
      </trkpt>
      <trkpt lat="45.12161" lon="6.60496">
        <ele>2441</ele>
        <time>2021-07-15T14:42:20Z</time>
      </trkpt>
      <trkpt lat="45.12167" lon="6.6049">
        <ele>2440</ele>
        <time>2021-07-15T14:42:25Z</time>
      </trkpt>
      <trkpt lat="45.12168" lon="6.60484">
        <ele>2440</ele>
        <time>2021-07-15T14:42:28Z</time>
      </trkpt>
      <trkpt lat="45.1217" lon="6.60478">
        <ele>2440</ele>
        <time>2021-07-15T14:42:31Z</time>
      </trkpt>
      <trkpt lat="45.12174" lon="6.60469">
        <ele>2441</ele>
        <time>2021-07-15T14:42:38Z</time>
      </trkpt>
      <trkpt lat="45.12176" lon="6.60461">
        <ele>2441</ele>
        <time>2021-07-15T14:42:43Z</time>
      </trkpt>
      <trkpt lat="45.12181" lon="6.60456">
        <ele>2440</ele>
        <time>2021-07-15T14:42:49Z</time>
      </trkpt>
      <trkpt lat="45.12185" lon="6.60448">
        <ele>2441</ele>
        <time>2021-07-15T14:42:55Z</time>
      </trkpt>
      <trkpt lat="45.12191" lon="6.60445">
        <ele>2442</ele>
        <time>2021-07-15T14:43:00Z</time>
      </trkpt>
      <trkpt lat="45.12194" lon="6.60428">
        <ele>2443</ele>
        <time>2021-07-15T14:43:10Z</time>
      </trkpt>
      <trkpt lat="45.12197" lon="6.60421">
        <ele>2443</ele>
        <time>2021-07-15T14:43:15Z</time>
      </trkpt>
      <trkpt lat="45.122" lon="6.60415">
        <ele>2443</ele>
        <time>2021-07-15T14:43:20Z</time>
      </trkpt>
      <trkpt lat="45.12208" lon="6.60403">
        <ele>2443</ele>
        <time>2021-07-15T14:43:31Z</time>
      </trkpt>
      <trkpt lat="45.12211" lon="6.60396">
        <ele>2444</ele>
        <time>2021-07-15T14:43:39Z</time>
      </trkpt>
      <trkpt lat="45.12218" lon="6.60391">
        <ele>2444</ele>
        <time>2021-07-15T14:43:50Z</time>
      </trkpt>
      <trkpt lat="45.12225" lon="6.60388">
        <ele>2445</ele>
        <time>2021-07-15T14:43:56Z</time>
      </trkpt>
      <trkpt lat="45.12232" lon="6.6038">
        <ele>2447</ele>
        <time>2021-07-15T14:44:07Z</time>
      </trkpt>
      <trkpt lat="45.12239" lon="6.6038">
        <ele>2447</ele>
        <time>2021-07-15T14:44:13Z</time>
      </trkpt>
      <trkpt lat="45.12244" lon="6.60374">
        <ele>2448</ele>
        <time>2021-07-15T14:44:23Z</time>
      </trkpt>
      <trkpt lat="45.12247" lon="6.60366">
        <ele>2449</ele>
        <time>2021-07-15T14:44:29Z</time>
      </trkpt>
      <trkpt lat="45.12254" lon="6.60357">
        <ele>2451</ele>
        <time>2021-07-15T14:44:42Z</time>
      </trkpt>
      <trkpt lat="45.12257" lon="6.60349">
        <ele>2451</ele>
        <time>2021-07-15T14:44:49Z</time>
      </trkpt>
      <trkpt lat="45.12264" lon="6.60346">
        <ele>2453</ele>
        <time>2021-07-15T14:45:03Z</time>
      </trkpt>
      <trkpt lat="45.12269" lon="6.60338">
        <ele>2453</ele>
        <time>2021-07-15T14:45:08Z</time>
      </trkpt>
      <trkpt lat="45.12271" lon="6.60331">
        <ele>2454</ele>
        <time>2021-07-15T14:45:12Z</time>
      </trkpt>
      <trkpt lat="45.12277" lon="6.60325">
        <ele>2455</ele>
        <time>2021-07-15T14:45:21Z</time>
      </trkpt>
      <trkpt lat="45.12281" lon="6.60314">
        <ele>2456</ele>
        <time>2021-07-15T14:45:30Z</time>
      </trkpt>
      <trkpt lat="45.1229" lon="6.60316">
        <ele>2458</ele>
        <time>2021-07-15T14:45:43Z</time>
      </trkpt>
      <trkpt lat="45.12292" lon="6.60307">
        <ele>2459</ele>
        <time>2021-07-15T14:45:53Z</time>
      </trkpt>
      <trkpt lat="45.123" lon="6.60311">
        <ele>2463</ele>
        <time>2021-07-15T14:46:11Z</time>
      </trkpt>
      <trkpt lat="45.12305" lon="6.60303">
        <ele>2465</ele>
        <time>2021-07-15T14:46:23Z</time>
      </trkpt>
      <trkpt lat="45.12304" lon="6.60292">
        <ele>2468</ele>
        <time>2021-07-15T14:46:35Z</time>
      </trkpt>
      <trkpt lat="45.12305" lon="6.60281">
        <ele>2468</ele>
        <time>2021-07-15T14:46:42Z</time>
      </trkpt>
      <trkpt lat="45.12311" lon="6.60276">
        <ele>2470</ele>
        <time>2021-07-15T14:46:56Z</time>
      </trkpt>
      <trkpt lat="45.12316" lon="6.6027">
        <ele>2470</ele>
        <time>2021-07-15T14:46:59Z</time>
      </trkpt>
      <trkpt lat="45.12322" lon="6.6027">
        <ele>2469</ele>
        <time>2021-07-15T14:47:04Z</time>
      </trkpt>
      <trkpt lat="45.12326" lon="6.60269">
        <ele>2470</ele>
        <time>2021-07-15T14:47:07Z</time>
      </trkpt>
      <trkpt lat="45.12331" lon="6.60255">
        <ele>2470</ele>
        <time>2021-07-15T14:47:18Z</time>
      </trkpt>
      <trkpt lat="45.12331" lon="6.60247">
        <ele>2471</ele>
        <time>2021-07-15T14:47:24Z</time>
      </trkpt>
      <trkpt lat="45.12335" lon="6.60239">
        <ele>2469</ele>
        <time>2021-07-15T14:47:29Z</time>
      </trkpt>
      <trkpt lat="45.1234" lon="6.60235">
        <ele>2469</ele>
        <time>2021-07-15T14:47:33Z</time>
      </trkpt>
      <trkpt lat="45.12343" lon="6.60227">
        <ele>2470</ele>
        <time>2021-07-15T14:47:36Z</time>
      </trkpt>
      <trkpt lat="45.12343" lon="6.60219">
        <ele>2471</ele>
        <time>2021-07-15T14:47:42Z</time>
      </trkpt>
      <trkpt lat="45.12342" lon="6.6021">
        <ele>2471</ele>
        <time>2021-07-15T14:47:47Z</time>
      </trkpt>
      <trkpt lat="45.12343" lon="6.60202">
        <ele>2471</ele>
        <time>2021-07-15T14:47:52Z</time>
      </trkpt>
      <trkpt lat="45.12347" lon="6.60182">
        <ele>2467</ele>
        <time>2021-07-15T14:48:06Z</time>
      </trkpt>
      <trkpt lat="45.12345" lon="6.60174">
        <ele>2466</ele>
        <time>2021-07-15T14:48:10Z</time>
      </trkpt>
      <trkpt lat="45.12344" lon="6.60165">
        <ele>2466</ele>
        <time>2021-07-15T14:48:14Z</time>
      </trkpt>
      <trkpt lat="45.12344" lon="6.60157">
        <ele>2466</ele>
        <time>2021-07-15T14:48:18Z</time>
      </trkpt>
      <trkpt lat="45.12343" lon="6.60133">
        <ele>2462</ele>
        <time>2021-07-15T14:48:32Z</time>
      </trkpt>
      <trkpt lat="45.12336" lon="6.60117">
        <ele>2465</ele>
        <time>2021-07-15T14:48:48Z</time>
      </trkpt>
      <trkpt lat="45.12337" lon="6.60099">
        <ele>2468</ele>
        <time>2021-07-15T14:49:02Z</time>
      </trkpt>
      <trkpt lat="45.12329" lon="6.60081">
        <ele>2472</ele>
        <time>2021-07-15T14:49:18Z</time>
      </trkpt>
      <trkpt lat="45.12325" lon="6.60076">
        <ele>2474</ele>
        <time>2021-07-15T14:49:27Z</time>
      </trkpt>
      <trkpt lat="45.12337" lon="6.60064">
        <ele>2479</ele>
        <time>2021-07-15T14:49:52Z</time>
      </trkpt>
      <trkpt lat="45.12339" lon="6.60056">
        <ele>2482</ele>
        <time>2021-07-15T14:50:10Z</time>
      </trkpt>
      <trkpt lat="45.1234" lon="6.60048">
        <ele>2485</ele>
        <time>2021-07-15T14:50:28Z</time>
      </trkpt>
      <trkpt lat="45.12338" lon="6.60038">
        <ele>2487</ele>
        <time>2021-07-15T14:50:42Z</time>
      </trkpt>
      <trkpt lat="45.12343" lon="6.60033">
        <ele>2489</ele>
        <time>2021-07-15T14:50:54Z</time>
      </trkpt>
      <trkpt lat="45.12342" lon="6.60008">
        <ele>2494</ele>
        <time>2021-07-15T14:51:25Z</time>
      </trkpt>
      <trkpt lat="45.12338" lon="6.5999">
        <ele>2496</ele>
        <time>2021-07-15T14:51:46Z</time>
      </trkpt>
      <trkpt lat="45.12339" lon="6.59988">
        <ele>2500</ele>
        <time>2021-07-15T14:54:18Z</time>
      </trkpt>
      <trkpt lat="45.12333" lon="6.59984">
        <ele>2498</ele>
        <time>2021-07-15T14:56:36Z</time>
      </trkpt>
      <trkpt lat="45.12357" lon="6.60012">
        <ele>2499</ele>
        <time>2021-07-15T14:58:46Z</time>
      </trkpt>
      <trkpt lat="45.12369" lon="6.60023">
        <ele>2498</ele>
        <time>2021-07-15T14:58:51Z</time>
      </trkpt>
      <trkpt lat="45.12375" lon="6.60082">
        <ele>2499</ele>
        <time>2021-07-15T14:59:23Z</time>
      </trkpt>
      <trkpt lat="45.12365" lon="6.60023">
        <ele>2498</ele>
        <time>2021-07-15T14:59:53Z</time>
      </trkpt>
      <trkpt lat="45.12344" lon="6.59993">
        <ele>2498</ele>
        <time>2021-07-15T14:59:57Z</time>
      </trkpt>
      <trkpt lat="45.12339" lon="6.5998">
        <ele>2499</ele>
        <time>2021-07-15T15:00:08Z</time>
      </trkpt>
      <trkpt lat="45.12331" lon="6.59981">
        <ele>2500</ele>
        <time>2021-07-15T15:03:23Z</time>
      </trkpt>
      <trkpt lat="45.12333" lon="6.5997">
        <ele>2499</ele>
        <time>2021-07-15T15:05:38Z</time>
      </trkpt>
      <trkpt lat="45.12333" lon="6.59957">
        <ele>2499</ele>
        <time>2021-07-15T15:05:50Z</time>
      </trkpt>
      <trkpt lat="45.12332" lon="6.59949">
        <ele>2502</ele>
        <time>2021-07-15T15:05:55Z</time>
      </trkpt>
      <trkpt lat="45.1233" lon="6.59938">
        <ele>2501</ele>
        <time>2021-07-15T15:06:07Z</time>
      </trkpt>
      <trkpt lat="45.12328" lon="6.59931">
        <ele>2503</ele>
        <time>2021-07-15T15:06:19Z</time>
      </trkpt>
      <trkpt lat="45.12327" lon="6.5992">
        <ele>2505</ele>
        <time>2021-07-15T15:06:32Z</time>
      </trkpt>
      <trkpt lat="45.12322" lon="6.59914">
        <ele>2507</ele>
        <time>2021-07-15T15:06:44Z</time>
      </trkpt>
      <trkpt lat="45.12323" lon="6.59893">
        <ele>2512</ele>
        <time>2021-07-15T15:07:18Z</time>
      </trkpt>
      <trkpt lat="45.12321" lon="6.59876">
        <ele>2515</ele>
        <time>2021-07-15T15:07:31Z</time>
      </trkpt>
      <trkpt lat="45.12317" lon="6.59858">
        <ele>2515</ele>
        <time>2021-07-15T15:07:41Z</time>
      </trkpt>
      <trkpt lat="45.1232" lon="6.5985">
        <ele>2515</ele>
        <time>2021-07-15T15:07:47Z</time>
      </trkpt>
      <trkpt lat="45.12323" lon="6.59844">
        <ele>2515</ele>
        <time>2021-07-15T15:07:53Z</time>
      </trkpt>
      <trkpt lat="45.12329" lon="6.5984">
        <ele>2513</ele>
        <time>2021-07-15T15:07:58Z</time>
      </trkpt>
      <trkpt lat="45.12337" lon="6.5984">
        <ele>2512</ele>
        <time>2021-07-15T15:08:06Z</time>
      </trkpt>
      <trkpt lat="45.12353" lon="6.59845">
        <ele>2511</ele>
        <time>2021-07-15T15:08:18Z</time>
      </trkpt>
      <trkpt lat="45.12361" lon="6.59844">
        <ele>2510</ele>
        <time>2021-07-15T15:08:28Z</time>
      </trkpt>
      <trkpt lat="45.12376" lon="6.59846">
        <ele>2511</ele>
        <time>2021-07-15T15:08:40Z</time>
      </trkpt>
      <trkpt lat="45.12382" lon="6.59842">
        <ele>2510</ele>
        <time>2021-07-15T15:09:01Z</time>
      </trkpt>
      <trkpt lat="45.12392" lon="6.59838">
        <ele>2510</ele>
        <time>2021-07-15T15:09:15Z</time>
      </trkpt>
      <trkpt lat="45.12418" lon="6.59832">
        <ele>2509</ele>
        <time>2021-07-15T15:09:48Z</time>
      </trkpt>
      <trkpt lat="45.12434" lon="6.59822">
        <ele>2508</ele>
        <time>2021-07-15T15:10:03Z</time>
      </trkpt>
      <trkpt lat="45.12438" lon="6.5982">
        <ele>2508</ele>
        <time>2021-07-15T15:10:06Z</time>
      </trkpt>
      <trkpt lat="45.12441" lon="6.59814">
        <ele>2509</ele>
        <time>2021-07-15T15:10:15Z</time>
      </trkpt>
      <trkpt lat="45.12444" lon="6.59806">
        <ele>2510</ele>
        <time>2021-07-15T15:10:51Z</time>
      </trkpt>
      <trkpt lat="45.12438" lon="6.59803">
        <ele>2509</ele>
        <time>2021-07-15T15:13:07Z</time>
      </trkpt>
      <trkpt lat="45.12439" lon="6.59808">
        <ele>2508</ele>
        <time>2021-07-15T15:15:32Z</time>
      </trkpt>
      <trkpt lat="45.12439" lon="6.59811">
        <ele>2509</ele>
        <time>2021-07-15T15:20:15Z</time>
      </trkpt>
      <trkpt lat="45.1244" lon="6.59807">
        <ele>2508</ele>
        <time>2021-07-15T15:23:51Z</time>
      </trkpt>
      <trkpt lat="45.12447" lon="6.59813">
        <ele>2509</ele>
        <time>2021-07-15T15:24:13Z</time>
      </trkpt>
      <trkpt lat="45.12452" lon="6.59821">
        <ele>2509</ele>
        <time>2021-07-15T15:24:21Z</time>
      </trkpt>
      <trkpt lat="45.12458" lon="6.59823">
        <ele>2509</ele>
        <time>2021-07-15T15:24:26Z</time>
      </trkpt>
      <trkpt lat="45.12468" lon="6.59837">
        <ele>2512</ele>
        <time>2021-07-15T15:24:40Z</time>
      </trkpt>
      <trkpt lat="45.12474" lon="6.59844">
        <ele>2513</ele>
        <time>2021-07-15T15:24:46Z</time>
      </trkpt>
      <trkpt lat="45.12481" lon="6.59851">
        <ele>2512</ele>
        <time>2021-07-15T15:25:00Z</time>
      </trkpt>
      <trkpt lat="45.1249" lon="6.59853">
        <ele>2509</ele>
        <time>2021-07-15T15:25:12Z</time>
      </trkpt>
      <trkpt lat="45.12492" lon="6.5986">
        <ele>2507</ele>
        <time>2021-07-15T15:25:18Z</time>
      </trkpt>
      <trkpt lat="45.12497" lon="6.59865">
        <ele>2503</ele>
        <time>2021-07-15T15:25:30Z</time>
      </trkpt>
      <trkpt lat="45.12503" lon="6.59868">
        <ele>2500</ele>
        <time>2021-07-15T15:25:42Z</time>
      </trkpt>
      <trkpt lat="45.12508" lon="6.59871">
        <ele>2497</ele>
        <time>2021-07-15T15:25:54Z</time>
      </trkpt>
      <trkpt lat="45.12516" lon="6.59869">
        <ele>2493</ele>
        <time>2021-07-15T15:26:29Z</time>
      </trkpt>
      <trkpt lat="45.12522" lon="6.59869">
        <ele>2490</ele>
        <time>2021-07-15T15:26:47Z</time>
      </trkpt>
      <trkpt lat="45.1253" lon="6.59875">
        <ele>2488</ele>
        <time>2021-07-15T15:27:22Z</time>
      </trkpt>
      <trkpt lat="45.12538" lon="6.5988">
        <ele>2484</ele>
        <time>2021-07-15T15:27:34Z</time>
      </trkpt>
      <trkpt lat="45.12542" lon="6.59889">
        <ele>2481</ele>
        <time>2021-07-15T15:27:48Z</time>
      </trkpt>
      <trkpt lat="45.12547" lon="6.59897">
        <ele>2477</ele>
        <time>2021-07-15T15:28:02Z</time>
      </trkpt>
      <trkpt lat="45.12553" lon="6.59898">
        <ele>2475</ele>
        <time>2021-07-15T15:28:09Z</time>
      </trkpt>
      <trkpt lat="45.12561" lon="6.59896">
        <ele>2470</ele>
        <time>2021-07-15T15:28:21Z</time>
      </trkpt>
      <trkpt lat="45.12564" lon="6.59904">
        <ele>2465</ele>
        <time>2021-07-15T15:28:40Z</time>
      </trkpt>
      <trkpt lat="45.1257" lon="6.59904">
        <ele>2462</ele>
        <time>2021-07-15T15:28:52Z</time>
      </trkpt>
      <trkpt lat="45.12583" lon="6.59907">
        <ele>2453</ele>
        <time>2021-07-15T15:29:22Z</time>
      </trkpt>
      <trkpt lat="45.12582" lon="6.59919">
        <ele>2450</ele>
        <time>2021-07-15T15:30:47Z</time>
      </trkpt>
      <trkpt lat="45.12591" lon="6.59919">
        <ele>2445</ele>
        <time>2021-07-15T15:31:07Z</time>
      </trkpt>
      <trkpt lat="45.12615" lon="6.59915">
        <ele>2441</ele>
        <time>2021-07-15T15:31:28Z</time>
      </trkpt>
      <trkpt lat="45.1262" lon="6.59918">
        <ele>2440</ele>
        <time>2021-07-15T15:31:32Z</time>
      </trkpt>
      <trkpt lat="45.12635" lon="6.59917">
        <ele>2438</ele>
        <time>2021-07-15T15:31:46Z</time>
      </trkpt>
      <trkpt lat="45.12643" lon="6.59911">
        <ele>2437</ele>
        <time>2021-07-15T15:31:55Z</time>
      </trkpt>
      <trkpt lat="45.12654" lon="6.59911">
        <ele>2436</ele>
        <time>2021-07-15T15:32:07Z</time>
      </trkpt>
      <trkpt lat="45.12661" lon="6.59909">
        <ele>2434</ele>
        <time>2021-07-15T15:32:15Z</time>
      </trkpt>
      <trkpt lat="45.12667" lon="6.5991">
        <ele>2434</ele>
        <time>2021-07-15T15:32:21Z</time>
      </trkpt>
      <trkpt lat="45.12673" lon="6.59915">
        <ele>2433</ele>
        <time>2021-07-15T15:32:28Z</time>
      </trkpt>
      <trkpt lat="45.12678" lon="6.59918">
        <ele>2432</ele>
        <time>2021-07-15T15:32:32Z</time>
      </trkpt>
      <trkpt lat="45.12684" lon="6.59926">
        <ele>2433</ele>
        <time>2021-07-15T15:32:42Z</time>
      </trkpt>
      <trkpt lat="45.12685" lon="6.59935">
        <ele>2433</ele>
        <time>2021-07-15T15:32:48Z</time>
      </trkpt>
      <trkpt lat="45.12691" lon="6.59939">
        <ele>2433</ele>
        <time>2021-07-15T15:32:53Z</time>
      </trkpt>
      <trkpt lat="45.12697" lon="6.59941">
        <ele>2433</ele>
        <time>2021-07-15T15:33:02Z</time>
      </trkpt>
      <trkpt lat="45.12708" lon="6.59942">
        <ele>2432</ele>
        <time>2021-07-15T15:33:13Z</time>
      </trkpt>
      <trkpt lat="45.12714" lon="6.59942">
        <ele>2431</ele>
        <time>2021-07-15T15:33:18Z</time>
      </trkpt>
      <trkpt lat="45.12719" lon="6.5994">
        <ele>2431</ele>
        <time>2021-07-15T15:33:21Z</time>
      </trkpt>
      <trkpt lat="45.12732" lon="6.59944">
        <ele>2428</ele>
        <time>2021-07-15T15:33:35Z</time>
      </trkpt>
      <trkpt lat="45.12737" lon="6.59942">
        <ele>2427</ele>
        <time>2021-07-15T15:33:39Z</time>
      </trkpt>
      <trkpt lat="45.12743" lon="6.59939">
        <ele>2427</ele>
        <time>2021-07-15T15:33:45Z</time>
      </trkpt>
      <trkpt lat="45.12748" lon="6.59943">
        <ele>2426</ele>
        <time>2021-07-15T15:33:49Z</time>
      </trkpt>
      <trkpt lat="45.12754" lon="6.59944">
        <ele>2427</ele>
        <time>2021-07-15T15:33:55Z</time>
      </trkpt>
      <trkpt lat="45.1276" lon="6.59943">
        <ele>2427</ele>
        <time>2021-07-15T15:33:59Z</time>
      </trkpt>
      <trkpt lat="45.12773" lon="6.59945">
        <ele>2424</ele>
        <time>2021-07-15T15:34:14Z</time>
      </trkpt>
      <trkpt lat="45.12781" lon="6.59949">
        <ele>2423</ele>
        <time>2021-07-15T15:34:24Z</time>
      </trkpt>
      <trkpt lat="45.12787" lon="6.59946">
        <ele>2421</ele>
        <time>2021-07-15T15:34:36Z</time>
      </trkpt>
      <trkpt lat="45.12792" lon="6.5995">
        <ele>2420</ele>
        <time>2021-07-15T15:34:42Z</time>
      </trkpt>
      <trkpt lat="45.12797" lon="6.59948">
        <ele>2419</ele>
        <time>2021-07-15T15:34:47Z</time>
      </trkpt>
      <trkpt lat="45.12804" lon="6.59953">
        <ele>2417</ele>
        <time>2021-07-15T15:35:02Z</time>
      </trkpt>
      <trkpt lat="45.12814" lon="6.59956">
        <ele>2415</ele>
        <time>2021-07-15T15:35:15Z</time>
      </trkpt>
      <trkpt lat="45.12818" lon="6.59952">
        <ele>2413</ele>
        <time>2021-07-15T15:35:20Z</time>
      </trkpt>
      <trkpt lat="45.12825" lon="6.59955">
        <ele>2411</ele>
        <time>2021-07-15T15:35:30Z</time>
      </trkpt>
      <trkpt lat="45.12826" lon="6.59963">
        <ele>2410</ele>
        <time>2021-07-15T15:35:36Z</time>
      </trkpt>
      <trkpt lat="45.12825" lon="6.59973">
        <ele>2408</ele>
        <time>2021-07-15T15:35:42Z</time>
      </trkpt>
      <trkpt lat="45.12821" lon="6.59989">
        <ele>2405</ele>
        <time>2021-07-15T15:35:53Z</time>
      </trkpt>
      <trkpt lat="45.1281" lon="6.6">
        <ele>2403</ele>
        <time>2021-07-15T15:36:06Z</time>
      </trkpt>
      <trkpt lat="45.12809" lon="6.60009">
        <ele>2402</ele>
        <time>2021-07-15T15:36:11Z</time>
      </trkpt>
      <trkpt lat="45.12809" lon="6.60025">
        <ele>2402</ele>
        <time>2021-07-15T15:36:22Z</time>
      </trkpt>
      <trkpt lat="45.12813" lon="6.60043">
        <ele>2399</ele>
        <time>2021-07-15T15:36:36Z</time>
      </trkpt>
      <trkpt lat="45.12818" lon="6.60054">
        <ele>2397</ele>
        <time>2021-07-15T15:36:50Z</time>
      </trkpt>
      <trkpt lat="45.12825" lon="6.60062">
        <ele>2394</ele>
        <time>2021-07-15T15:37:00Z</time>
      </trkpt>
      <trkpt lat="45.12826" lon="6.60073">
        <ele>2395</ele>
        <time>2021-07-15T15:37:13Z</time>
      </trkpt>
      <trkpt lat="45.12833" lon="6.6008">
        <ele>2393</ele>
        <time>2021-07-15T15:37:24Z</time>
      </trkpt>
      <trkpt lat="45.12831" lon="6.60094">
        <ele>2393</ele>
        <time>2021-07-15T15:37:38Z</time>
      </trkpt>
      <trkpt lat="45.12828" lon="6.60101">
        <ele>2392</ele>
        <time>2021-07-15T15:37:43Z</time>
      </trkpt>
      <trkpt lat="45.1283" lon="6.60111">
        <ele>2395</ele>
        <time>2021-07-15T15:37:55Z</time>
      </trkpt>
      <trkpt lat="45.12828" lon="6.60123">
        <ele>2393</ele>
        <time>2021-07-15T15:38:47Z</time>
      </trkpt>
      <trkpt lat="45.12827" lon="6.60131">
        <ele>2393</ele>
        <time>2021-07-15T15:38:51Z</time>
      </trkpt>
      <trkpt lat="45.12822" lon="6.60139">
        <ele>2393</ele>
        <time>2021-07-15T15:39:03Z</time>
      </trkpt>
      <trkpt lat="45.12819" lon="6.60147">
        <ele>2392</ele>
        <time>2021-07-15T15:39:08Z</time>
      </trkpt>
      <trkpt lat="45.12813" lon="6.60161">
        <ele>2392</ele>
        <time>2021-07-15T15:39:21Z</time>
      </trkpt>
      <trkpt lat="45.12811" lon="6.60175">
        <ele>2392</ele>
        <time>2021-07-15T15:39:36Z</time>
      </trkpt>
      <trkpt lat="45.1281" lon="6.60184">
        <ele>2391</ele>
        <time>2021-07-15T15:39:41Z</time>
      </trkpt>
      <trkpt lat="45.12812" lon="6.60194">
        <ele>2391</ele>
        <time>2021-07-15T15:39:47Z</time>
      </trkpt>
      <trkpt lat="45.12812" lon="6.60202">
        <ele>2390</ele>
        <time>2021-07-15T15:39:51Z</time>
      </trkpt>
      <trkpt lat="45.12813" lon="6.60209">
        <ele>2389</ele>
        <time>2021-07-15T15:39:56Z</time>
      </trkpt>
      <trkpt lat="45.12813" lon="6.6022">
        <ele>2389</ele>
        <time>2021-07-15T15:40:04Z</time>
      </trkpt>
      <trkpt lat="45.12812" lon="6.60228">
        <ele>2389</ele>
        <time>2021-07-15T15:40:09Z</time>
      </trkpt>
      <trkpt lat="45.12809" lon="6.6024">
        <ele>2388</ele>
        <time>2021-07-15T15:40:19Z</time>
      </trkpt>
      <trkpt lat="45.1281" lon="6.6025">
        <ele>2387</ele>
        <time>2021-07-15T15:40:29Z</time>
      </trkpt>
      <trkpt lat="45.12812" lon="6.60259">
        <ele>2386</ele>
        <time>2021-07-15T15:40:34Z</time>
      </trkpt>
      <trkpt lat="45.12815" lon="6.60265">
        <ele>2386</ele>
        <time>2021-07-15T15:40:38Z</time>
      </trkpt>
      <trkpt lat="45.12813" lon="6.60273">
        <ele>2386</ele>
        <time>2021-07-15T15:40:44Z</time>
      </trkpt>
      <trkpt lat="45.12814" lon="6.60291">
        <ele>2386</ele>
        <time>2021-07-15T15:40:58Z</time>
      </trkpt>
      <trkpt lat="45.12816" lon="6.60297">
        <ele>2385</ele>
        <time>2021-07-15T15:41:03Z</time>
      </trkpt>
      <trkpt lat="45.12815" lon="6.60306">
        <ele>2384</ele>
        <time>2021-07-15T15:41:09Z</time>
      </trkpt>
      <trkpt lat="45.12818" lon="6.60316">
        <ele>2382</ele>
        <time>2021-07-15T15:41:17Z</time>
      </trkpt>
      <trkpt lat="45.12821" lon="6.60324">
        <ele>2382</ele>
        <time>2021-07-15T15:41:22Z</time>
      </trkpt>
      <trkpt lat="45.12827" lon="6.6034">
        <ele>2383</ele>
        <time>2021-07-15T15:41:36Z</time>
      </trkpt>
      <trkpt lat="45.1283" lon="6.60348">
        <ele>2383</ele>
        <time>2021-07-15T15:41:45Z</time>
      </trkpt>
      <trkpt lat="45.12834" lon="6.60354">
        <ele>2384</ele>
        <time>2021-07-15T15:41:50Z</time>
      </trkpt>
      <trkpt lat="45.12839" lon="6.60352">
        <ele>2384</ele>
        <time>2021-07-15T15:41:58Z</time>
      </trkpt>
      <trkpt lat="45.12856" lon="6.6035">
        <ele>2380</ele>
        <time>2021-07-15T15:42:16Z</time>
      </trkpt>
      <trkpt lat="45.12862" lon="6.60347">
        <ele>2379</ele>
        <time>2021-07-15T15:42:22Z</time>
      </trkpt>
      <trkpt lat="45.12866" lon="6.60342">
        <ele>2379</ele>
        <time>2021-07-15T15:42:27Z</time>
      </trkpt>
      <trkpt lat="45.12875" lon="6.60335">
        <ele>2376</ele>
        <time>2021-07-15T15:42:39Z</time>
      </trkpt>
      <trkpt lat="45.12879" lon="6.60343">
        <ele>2376</ele>
        <time>2021-07-15T15:42:43Z</time>
      </trkpt>
      <trkpt lat="45.12887" lon="6.60351">
        <ele>2376</ele>
        <time>2021-07-15T15:42:54Z</time>
      </trkpt>
      <trkpt lat="45.12892" lon="6.60346">
        <ele>2375</ele>
        <time>2021-07-15T15:43:00Z</time>
      </trkpt>
      <trkpt lat="45.12909" lon="6.6036">
        <ele>2375</ele>
        <time>2021-07-15T15:43:23Z</time>
      </trkpt>
      <trkpt lat="45.12917" lon="6.60379">
        <ele>2373</ele>
        <time>2021-07-15T15:43:42Z</time>
      </trkpt>
      <trkpt lat="45.1292" lon="6.60388">
        <ele>2373</ele>
        <time>2021-07-15T15:43:50Z</time>
      </trkpt>
      <trkpt lat="45.12917" lon="6.60405">
        <ele>2370</ele>
        <time>2021-07-15T15:44:06Z</time>
      </trkpt>
      <trkpt lat="45.12915" lon="6.60409">
        <ele>2369</ele>
        <time>2021-07-15T15:44:10Z</time>
      </trkpt>
      <trkpt lat="45.12913" lon="6.60425">
        <ele>2367</ele>
        <time>2021-07-15T15:44:23Z</time>
      </trkpt>
      <trkpt lat="45.12916" lon="6.6045">
        <ele>2366</ele>
        <time>2021-07-15T15:44:39Z</time>
      </trkpt>
      <trkpt lat="45.12917" lon="6.60458">
        <ele>2365</ele>
        <time>2021-07-15T15:44:45Z</time>
      </trkpt>
      <trkpt lat="45.12917" lon="6.60466">
        <ele>2366</ele>
        <time>2021-07-15T15:44:50Z</time>
      </trkpt>
      <trkpt lat="45.12918" lon="6.60484">
        <ele>2363</ele>
        <time>2021-07-15T15:45:05Z</time>
      </trkpt>
      <trkpt lat="45.12919" lon="6.60493">
        <ele>2364</ele>
        <time>2021-07-15T15:45:14Z</time>
      </trkpt>
      <trkpt lat="45.12917" lon="6.6051">
        <ele>2363</ele>
        <time>2021-07-15T15:45:26Z</time>
      </trkpt>
      <trkpt lat="45.12919" lon="6.60519">
        <ele>2362</ele>
        <time>2021-07-15T15:45:34Z</time>
      </trkpt>
      <trkpt lat="45.12916" lon="6.60533">
        <ele>2361</ele>
        <time>2021-07-15T15:45:44Z</time>
      </trkpt>
      <trkpt lat="45.12916" lon="6.60541">
        <ele>2362</ele>
        <time>2021-07-15T15:45:50Z</time>
      </trkpt>
      <trkpt lat="45.12915" lon="6.6055">
        <ele>2362</ele>
        <time>2021-07-15T15:45:56Z</time>
      </trkpt>
      <trkpt lat="45.12915" lon="6.60558">
        <ele>2361</ele>
        <time>2021-07-15T15:46:04Z</time>
      </trkpt>
      <trkpt lat="45.12915" lon="6.60567">
        <ele>2362</ele>
        <time>2021-07-15T15:46:10Z</time>
      </trkpt>
      <trkpt lat="45.12915" lon="6.60584">
        <ele>2362</ele>
        <time>2021-07-15T15:46:33Z</time>
      </trkpt>
      <trkpt lat="45.12913" lon="6.60591">
        <ele>2362</ele>
        <time>2021-07-15T15:46:40Z</time>
      </trkpt>
      <trkpt lat="45.12914" lon="6.606">
        <ele>2363</ele>
        <time>2021-07-15T15:46:50Z</time>
      </trkpt>
      <trkpt lat="45.12923" lon="6.60616">
        <ele>2366</ele>
        <time>2021-07-15T15:47:10Z</time>
      </trkpt>
      <trkpt lat="45.12926" lon="6.60622">
        <ele>2368</ele>
        <time>2021-07-15T15:47:25Z</time>
      </trkpt>
      <trkpt lat="45.12932" lon="6.60626">
        <ele>2369</ele>
        <time>2021-07-15T15:47:31Z</time>
      </trkpt>
      <trkpt lat="45.12937" lon="6.60627">
        <ele>2369</ele>
        <time>2021-07-15T15:47:36Z</time>
      </trkpt>
      <trkpt lat="45.12943" lon="6.60634">
        <ele>2370</ele>
        <time>2021-07-15T15:47:45Z</time>
      </trkpt>
      <trkpt lat="45.12946" lon="6.60644">
        <ele>2370</ele>
        <time>2021-07-15T15:47:53Z</time>
      </trkpt>
      <trkpt lat="45.1295" lon="6.60651">
        <ele>2369</ele>
        <time>2021-07-15T15:48:02Z</time>
      </trkpt>
      <trkpt lat="45.12948" lon="6.6066">
        <ele>2367</ele>
        <time>2021-07-15T15:48:14Z</time>
      </trkpt>
      <trkpt lat="45.12949" lon="6.60668">
        <ele>2367</ele>
        <time>2021-07-15T15:48:19Z</time>
      </trkpt>
      <trkpt lat="45.1295" lon="6.60676">
        <ele>2365</ele>
        <time>2021-07-15T15:48:25Z</time>
      </trkpt>
      <trkpt lat="45.12948" lon="6.6069">
        <ele>2365</ele>
        <time>2021-07-15T15:48:36Z</time>
      </trkpt>
      <trkpt lat="45.12946" lon="6.60697">
        <ele>2365</ele>
        <time>2021-07-15T15:48:41Z</time>
      </trkpt>
      <trkpt lat="45.12943" lon="6.60703">
        <ele>2365</ele>
        <time>2021-07-15T15:48:45Z</time>
      </trkpt>
      <trkpt lat="45.12938" lon="6.60712">
        <ele>2367</ele>
        <time>2021-07-15T15:48:55Z</time>
      </trkpt>
      <trkpt lat="45.12933" lon="6.60718">
        <ele>2366</ele>
        <time>2021-07-15T15:49:01Z</time>
      </trkpt>
      <trkpt lat="45.12931" lon="6.60735">
        <ele>2367</ele>
        <time>2021-07-15T15:49:17Z</time>
      </trkpt>
      <trkpt lat="45.12932" lon="6.60745">
        <ele>2368</ele>
        <time>2021-07-15T15:49:24Z</time>
      </trkpt>
      <trkpt lat="45.12933" lon="6.60754">
        <ele>2366</ele>
        <time>2021-07-15T15:49:30Z</time>
      </trkpt>
      <trkpt lat="45.12935" lon="6.60761">
        <ele>2366</ele>
        <time>2021-07-15T15:49:38Z</time>
      </trkpt>
      <trkpt lat="45.12939" lon="6.60767">
        <ele>2366</ele>
        <time>2021-07-15T15:49:44Z</time>
      </trkpt>
      <trkpt lat="45.12941" lon="6.60773">
        <ele>2365</ele>
        <time>2021-07-15T15:49:48Z</time>
      </trkpt>
      <trkpt lat="45.12947" lon="6.60778">
        <ele>2363</ele>
        <time>2021-07-15T15:50:13Z</time>
      </trkpt>
      <trkpt lat="45.1295" lon="6.60782">
        <ele>2363</ele>
        <time>2021-07-15T15:50:16Z</time>
      </trkpt>
      <trkpt lat="45.12954" lon="6.60789">
        <ele>2362</ele>
        <time>2021-07-15T15:50:25Z</time>
      </trkpt>
      <trkpt lat="45.12955" lon="6.60795">
        <ele>2362</ele>
        <time>2021-07-15T15:50:29Z</time>
      </trkpt>
      <trkpt lat="45.12954" lon="6.60801">
        <ele>2362</ele>
        <time>2021-07-15T15:50:33Z</time>
      </trkpt>
      <trkpt lat="45.12949" lon="6.60805">
        <ele>2362</ele>
        <time>2021-07-15T15:50:44Z</time>
      </trkpt>
      <trkpt lat="45.12938" lon="6.60814">
        <ele>2360</ele>
        <time>2021-07-15T15:50:57Z</time>
      </trkpt>
      <trkpt lat="45.12937" lon="6.6082">
        <ele>2359</ele>
        <time>2021-07-15T15:51:00Z</time>
      </trkpt>
      <trkpt lat="45.1293" lon="6.60828">
        <ele>2358</ele>
        <time>2021-07-15T15:51:08Z</time>
      </trkpt>
      <trkpt lat="45.12926" lon="6.6083">
        <ele>2358</ele>
        <time>2021-07-15T15:51:12Z</time>
      </trkpt>
      <trkpt lat="45.12923" lon="6.60834">
        <ele>2358</ele>
        <time>2021-07-15T15:51:15Z</time>
      </trkpt>
      <trkpt lat="45.12919" lon="6.60844">
        <ele>2357</ele>
        <time>2021-07-15T15:51:22Z</time>
      </trkpt>
      <trkpt lat="45.12916" lon="6.60853">
        <ele>2356</ele>
        <time>2021-07-15T15:51:32Z</time>
      </trkpt>
      <trkpt lat="45.12914" lon="6.60858">
        <ele>2355</ele>
        <time>2021-07-15T15:51:37Z</time>
      </trkpt>
      <trkpt lat="45.12913" lon="6.60868">
        <ele>2354</ele>
        <time>2021-07-15T15:51:42Z</time>
      </trkpt>
      <trkpt lat="45.12913" lon="6.60875">
        <ele>2353</ele>
        <time>2021-07-15T15:51:48Z</time>
      </trkpt>
      <trkpt lat="45.12912" lon="6.6088">
        <ele>2353</ele>
        <time>2021-07-15T15:51:51Z</time>
      </trkpt>
      <trkpt lat="45.12912" lon="6.60904">
        <ele>2351</ele>
        <time>2021-07-15T15:52:09Z</time>
      </trkpt>
      <trkpt lat="45.12906" lon="6.60919">
        <ele>2349</ele>
        <time>2021-07-15T15:52:21Z</time>
      </trkpt>
      <trkpt lat="45.12897" lon="6.60934">
        <ele>2347</ele>
        <time>2021-07-15T15:52:35Z</time>
      </trkpt>
      <trkpt lat="45.12894" lon="6.60937">
        <ele>2347</ele>
        <time>2021-07-15T15:52:38Z</time>
      </trkpt>
      <trkpt lat="45.12889" lon="6.60937">
        <ele>2345</ele>
        <time>2021-07-15T15:52:43Z</time>
      </trkpt>
      <trkpt lat="45.12882" lon="6.60935">
        <ele>2344</ele>
        <time>2021-07-15T15:52:50Z</time>
      </trkpt>
      <trkpt lat="45.12878" lon="6.60934">
        <ele>2343</ele>
        <time>2021-07-15T15:52:54Z</time>
      </trkpt>
      <trkpt lat="45.12873" lon="6.60941">
        <ele>2342</ele>
        <time>2021-07-15T15:53:04Z</time>
      </trkpt>
      <trkpt lat="45.12872" lon="6.60946">
        <ele>2341</ele>
        <time>2021-07-15T15:53:09Z</time>
      </trkpt>
      <trkpt lat="45.12869" lon="6.6095">
        <ele>2341</ele>
        <time>2021-07-15T15:53:13Z</time>
      </trkpt>
      <trkpt lat="45.12868" lon="6.60955">
        <ele>2340</ele>
        <time>2021-07-15T15:53:16Z</time>
      </trkpt>
      <trkpt lat="45.12866" lon="6.60961">
        <ele>2340</ele>
        <time>2021-07-15T15:53:19Z</time>
      </trkpt>
      <trkpt lat="45.12864" lon="6.60969">
        <ele>2340</ele>
        <time>2021-07-15T15:53:23Z</time>
      </trkpt>
      <trkpt lat="45.12858" lon="6.60973">
        <ele>2339</ele>
        <time>2021-07-15T15:53:53Z</time>
      </trkpt>
      <trkpt lat="45.12851" lon="6.60982">
        <ele>2338</ele>
        <time>2021-07-15T15:54:04Z</time>
      </trkpt>
      <trkpt lat="45.1285" lon="6.6099">
        <ele>2336</ele>
        <time>2021-07-15T15:54:08Z</time>
      </trkpt>
      <trkpt lat="45.12855" lon="6.60996">
        <ele>2336</ele>
        <time>2021-07-15T15:54:14Z</time>
      </trkpt>
      <trkpt lat="45.12861" lon="6.60998">
        <ele>2335</ele>
        <time>2021-07-15T15:54:19Z</time>
      </trkpt>
      <trkpt lat="45.12868" lon="6.60997">
        <ele>2333</ele>
        <time>2021-07-15T15:54:23Z</time>
      </trkpt>
      <trkpt lat="45.12872" lon="6.60991">
        <ele>2334</ele>
        <time>2021-07-15T15:54:28Z</time>
      </trkpt>
      <trkpt lat="45.12879" lon="6.60979">
        <ele>2332</ele>
        <time>2021-07-15T15:54:39Z</time>
      </trkpt>
      <trkpt lat="45.12886" lon="6.60979">
        <ele>2332</ele>
        <time>2021-07-15T15:54:45Z</time>
      </trkpt>
      <trkpt lat="45.12902" lon="6.60981">
        <ele>2329</ele>
        <time>2021-07-15T15:55:01Z</time>
      </trkpt>
      <trkpt lat="45.12908" lon="6.6098">
        <ele>2329</ele>
        <time>2021-07-15T15:55:06Z</time>
      </trkpt>
      <trkpt lat="45.12925" lon="6.60978">
        <ele>2326</ele>
        <time>2021-07-15T15:55:27Z</time>
      </trkpt>
      <trkpt lat="45.12931" lon="6.60978">
        <ele>2325</ele>
        <time>2021-07-15T15:55:31Z</time>
      </trkpt>
      <trkpt lat="45.12936" lon="6.60977">
        <ele>2326</ele>
        <time>2021-07-15T15:55:35Z</time>
      </trkpt>
      <trkpt lat="45.12942" lon="6.60975">
        <ele>2325</ele>
        <time>2021-07-15T15:55:40Z</time>
      </trkpt>
      <trkpt lat="45.1295" lon="6.60973">
        <ele>2323</ele>
        <time>2021-07-15T15:55:49Z</time>
      </trkpt>
      <trkpt lat="45.12955" lon="6.60977">
        <ele>2323</ele>
        <time>2021-07-15T15:55:53Z</time>
      </trkpt>
      <trkpt lat="45.12958" lon="6.60982">
        <ele>2323</ele>
        <time>2021-07-15T15:55:59Z</time>
      </trkpt>
      <trkpt lat="45.12979" lon="6.61011">
        <ele>2317</ele>
        <time>2021-07-15T15:56:33Z</time>
      </trkpt>
      <trkpt lat="45.1298" lon="6.61017">
        <ele>2316</ele>
        <time>2021-07-15T15:56:39Z</time>
      </trkpt>
      <trkpt lat="45.12985" lon="6.6103">
        <ele>2315</ele>
        <time>2021-07-15T15:56:49Z</time>
      </trkpt>
      <trkpt lat="45.12995" lon="6.61051">
        <ele>2313</ele>
        <time>2021-07-15T15:57:10Z</time>
      </trkpt>
      <trkpt lat="45.12999" lon="6.61055">
        <ele>2311</ele>
        <time>2021-07-15T15:57:14Z</time>
      </trkpt>
      <trkpt lat="45.13021" lon="6.6108">
        <ele>2307</ele>
        <time>2021-07-15T15:57:41Z</time>
      </trkpt>
      <trkpt lat="45.13026" lon="6.61084">
        <ele>2306</ele>
        <time>2021-07-15T15:57:45Z</time>
      </trkpt>
      <trkpt lat="45.13032" lon="6.61087">
        <ele>2306</ele>
        <time>2021-07-15T15:57:50Z</time>
      </trkpt>
      <trkpt lat="45.13042" lon="6.61097">
        <ele>2304</ele>
        <time>2021-07-15T15:58:01Z</time>
      </trkpt>
      <trkpt lat="45.13049" lon="6.61096">
        <ele>2303</ele>
        <time>2021-07-15T15:58:11Z</time>
      </trkpt>
      <trkpt lat="45.13054" lon="6.61092">
        <ele>2302</ele>
        <time>2021-07-15T15:58:17Z</time>
      </trkpt>
      <trkpt lat="45.13063" lon="6.61089">
        <ele>2301</ele>
        <time>2021-07-15T15:58:25Z</time>
      </trkpt>
      <trkpt lat="45.13068" lon="6.61086">
        <ele>2301</ele>
        <time>2021-07-15T15:58:29Z</time>
      </trkpt>
      <trkpt lat="45.13073" lon="6.61082">
        <ele>2300</ele>
        <time>2021-07-15T15:58:35Z</time>
      </trkpt>
      <trkpt lat="45.13079" lon="6.61078">
        <ele>2299</ele>
        <time>2021-07-15T15:58:41Z</time>
      </trkpt>
      <trkpt lat="45.13093" lon="6.61076">
        <ele>2298</ele>
        <time>2021-07-15T15:58:55Z</time>
      </trkpt>
      <trkpt lat="45.13101" lon="6.61073">
        <ele>2297</ele>
        <time>2021-07-15T15:59:03Z</time>
      </trkpt>
      <trkpt lat="45.13116" lon="6.6107">
        <ele>2294</ele>
        <time>2021-07-15T15:59:22Z</time>
      </trkpt>
      <trkpt lat="45.13126" lon="6.61068">
        <ele>2292</ele>
        <time>2021-07-15T15:59:33Z</time>
      </trkpt>
      <trkpt lat="45.13133" lon="6.61065">
        <ele>2291</ele>
        <time>2021-07-15T15:59:40Z</time>
      </trkpt>
      <trkpt lat="45.13139" lon="6.61068">
        <ele>2290</ele>
        <time>2021-07-15T15:59:48Z</time>
      </trkpt>
      <trkpt lat="45.13145" lon="6.61068">
        <ele>2290</ele>
        <time>2021-07-15T15:59:54Z</time>
      </trkpt>
      <trkpt lat="45.13152" lon="6.61065">
        <ele>2289</ele>
        <time>2021-07-15T16:00:00Z</time>
      </trkpt>
      <trkpt lat="45.13158" lon="6.61066">
        <ele>2288</ele>
        <time>2021-07-15T16:00:05Z</time>
      </trkpt>
      <trkpt lat="45.13164" lon="6.61067">
        <ele>2287</ele>
        <time>2021-07-15T16:00:10Z</time>
      </trkpt>
      <trkpt lat="45.13169" lon="6.61067">
        <ele>2287</ele>
        <time>2021-07-15T16:00:13Z</time>
      </trkpt>
      <trkpt lat="45.13181" lon="6.61068">
        <ele>2285</ele>
        <time>2021-07-15T16:00:23Z</time>
      </trkpt>
      <trkpt lat="45.13187" lon="6.61067">
        <ele>2285</ele>
        <time>2021-07-15T16:00:27Z</time>
      </trkpt>
      <trkpt lat="45.13195" lon="6.61069">
        <ele>2284</ele>
        <time>2021-07-15T16:00:36Z</time>
      </trkpt>
      <trkpt lat="45.13202" lon="6.61068">
        <ele>2284</ele>
        <time>2021-07-15T16:00:40Z</time>
      </trkpt>
      <trkpt lat="45.1321" lon="6.6107">
        <ele>2283</ele>
        <time>2021-07-15T16:00:49Z</time>
      </trkpt>
      <trkpt lat="45.13215" lon="6.61074">
        <ele>2282</ele>
        <time>2021-07-15T16:00:54Z</time>
      </trkpt>
      <trkpt lat="45.13223" lon="6.61076">
        <ele>2281</ele>
        <time>2021-07-15T16:01:02Z</time>
      </trkpt>
      <trkpt lat="45.13244" lon="6.61101">
        <ele>2277</ele>
        <time>2021-07-15T16:01:31Z</time>
      </trkpt>
      <trkpt lat="45.1325" lon="6.61105">
        <ele>2276</ele>
        <time>2021-07-15T16:01:36Z</time>
      </trkpt>
      <trkpt lat="45.13256" lon="6.6111">
        <ele>2275</ele>
        <time>2021-07-15T16:01:40Z</time>
      </trkpt>
      <trkpt lat="45.13257" lon="6.61115">
        <ele>2275</ele>
        <time>2021-07-15T16:01:44Z</time>
      </trkpt>
      <trkpt lat="45.13257" lon="6.61143">
        <ele>2271</ele>
        <time>2021-07-15T16:02:22Z</time>
      </trkpt>
      <trkpt lat="45.13258" lon="6.61149">
        <ele>2271</ele>
        <time>2021-07-15T16:02:28Z</time>
      </trkpt>
      <trkpt lat="45.13257" lon="6.61156">
        <ele>2270</ele>
        <time>2021-07-15T16:02:31Z</time>
      </trkpt>
      <trkpt lat="45.13254" lon="6.61165">
        <ele>2269</ele>
        <time>2021-07-15T16:02:39Z</time>
      </trkpt>
      <trkpt lat="45.13254" lon="6.61176">
        <ele>2268</ele>
        <time>2021-07-15T16:02:47Z</time>
      </trkpt>
      <trkpt lat="45.13251" lon="6.61183">
        <ele>2268</ele>
        <time>2021-07-15T16:02:53Z</time>
      </trkpt>
      <trkpt lat="45.13251" lon="6.61189">
        <ele>2267</ele>
        <time>2021-07-15T16:02:57Z</time>
      </trkpt>
      <trkpt lat="45.1325" lon="6.61194">
        <ele>2266</ele>
        <time>2021-07-15T16:03:00Z</time>
      </trkpt>
      <trkpt lat="45.1325" lon="6.612">
        <ele>2266</ele>
        <time>2021-07-15T16:03:04Z</time>
      </trkpt>
      <trkpt lat="45.13253" lon="6.61206">
        <ele>2265</ele>
        <time>2021-07-15T16:03:09Z</time>
      </trkpt>
      <trkpt lat="45.13251" lon="6.61216">
        <ele>2264</ele>
        <time>2021-07-15T16:03:14Z</time>
      </trkpt>
      <trkpt lat="45.13258" lon="6.61245">
        <ele>2260</ele>
        <time>2021-07-15T16:03:36Z</time>
      </trkpt>
      <trkpt lat="45.13261" lon="6.61252">
        <ele>2259</ele>
        <time>2021-07-15T16:03:41Z</time>
      </trkpt>
      <trkpt lat="45.13266" lon="6.61256">
        <ele>2259</ele>
        <time>2021-07-15T16:03:47Z</time>
      </trkpt>
      <trkpt lat="45.13273" lon="6.6127">
        <ele>2258</ele>
        <time>2021-07-15T16:03:57Z</time>
      </trkpt>
      <trkpt lat="45.13276" lon="6.61273">
        <ele>2257</ele>
        <time>2021-07-15T16:04:00Z</time>
      </trkpt>
      <trkpt lat="45.13294" lon="6.61294">
        <ele>2254</ele>
        <time>2021-07-15T16:04:21Z</time>
      </trkpt>
      <trkpt lat="45.13299" lon="6.61297">
        <ele>2254</ele>
        <time>2021-07-15T16:04:25Z</time>
      </trkpt>
      <trkpt lat="45.13317" lon="6.61313">
        <ele>2251</ele>
        <time>2021-07-15T16:04:48Z</time>
      </trkpt>
      <trkpt lat="45.1333" lon="6.61332">
        <ele>2247</ele>
        <time>2021-07-15T16:05:15Z</time>
      </trkpt>
      <trkpt lat="45.13333" lon="6.61338">
        <ele>2247</ele>
        <time>2021-07-15T16:05:20Z</time>
      </trkpt>
      <trkpt lat="45.13342" lon="6.61358">
        <ele>2243</ele>
        <time>2021-07-15T16:05:38Z</time>
      </trkpt>
      <trkpt lat="45.13345" lon="6.61365">
        <ele>2242</ele>
        <time>2021-07-15T16:05:43Z</time>
      </trkpt>
      <trkpt lat="45.13348" lon="6.61373">
        <ele>2241</ele>
        <time>2021-07-15T16:05:49Z</time>
      </trkpt>
      <trkpt lat="45.13359" lon="6.61381">
        <ele>2240</ele>
        <time>2021-07-15T16:05:58Z</time>
      </trkpt>
      <trkpt lat="45.13379" lon="6.6139">
        <ele>2236</ele>
        <time>2021-07-15T16:06:20Z</time>
      </trkpt>
      <trkpt lat="45.13397" lon="6.61407">
        <ele>2232</ele>
        <time>2021-07-15T16:06:40Z</time>
      </trkpt>
      <trkpt lat="45.13407" lon="6.61411">
        <ele>2231</ele>
        <time>2021-07-15T16:06:50Z</time>
      </trkpt>
      <trkpt lat="45.13414" lon="6.61417">
        <ele>2229</ele>
        <time>2021-07-15T16:06:57Z</time>
      </trkpt>
      <trkpt lat="45.13415" lon="6.61424">
        <ele>2228</ele>
        <time>2021-07-15T16:07:02Z</time>
      </trkpt>
      <trkpt lat="45.13426" lon="6.61446">
        <ele>2224</ele>
        <time>2021-07-15T16:07:21Z</time>
      </trkpt>
      <trkpt lat="45.13432" lon="6.61447">
        <ele>2223</ele>
        <time>2021-07-15T16:07:27Z</time>
      </trkpt>
      <trkpt lat="45.1344" lon="6.61461">
        <ele>2221</ele>
        <time>2021-07-15T16:07:37Z</time>
      </trkpt>
      <trkpt lat="45.13445" lon="6.61478">
        <ele>2220</ele>
        <time>2021-07-15T16:07:46Z</time>
      </trkpt>
      <trkpt lat="45.13475" lon="6.61503">
        <ele>2220</ele>
        <time>2021-07-15T16:08:19Z</time>
      </trkpt>
      <trkpt lat="45.13494" lon="6.61518">
        <ele>2216</ele>
        <time>2021-07-15T16:08:42Z</time>
      </trkpt>
      <trkpt lat="45.13523" lon="6.61542">
        <ele>2211</ele>
        <time>2021-07-15T16:09:11Z</time>
      </trkpt>
      <trkpt lat="45.13534" lon="6.61546">
        <ele>2210</ele>
        <time>2021-07-15T16:09:21Z</time>
      </trkpt>
      <trkpt lat="45.13549" lon="6.61543">
        <ele>2209</ele>
        <time>2021-07-15T16:09:34Z</time>
      </trkpt>
      <trkpt lat="45.13555" lon="6.6154">
        <ele>2208</ele>
        <time>2021-07-15T16:09:39Z</time>
      </trkpt>
      <trkpt lat="45.13561" lon="6.61542">
        <ele>2207</ele>
        <time>2021-07-15T16:09:44Z</time>
      </trkpt>
      <trkpt lat="45.13569" lon="6.61547">
        <ele>2207</ele>
        <time>2021-07-15T16:09:52Z</time>
      </trkpt>
      <trkpt lat="45.13582" lon="6.61548">
        <ele>2205</ele>
        <time>2021-07-15T16:10:06Z</time>
      </trkpt>
      <trkpt lat="45.13606" lon="6.61539">
        <ele>2203</ele>
        <time>2021-07-15T16:10:29Z</time>
      </trkpt>
      <trkpt lat="45.13623" lon="6.61541">
        <ele>2202</ele>
        <time>2021-07-15T16:10:44Z</time>
      </trkpt>
      <trkpt lat="45.13629" lon="6.61545">
        <ele>2201</ele>
        <time>2021-07-15T16:10:52Z</time>
      </trkpt>
      <trkpt lat="45.13636" lon="6.61559">
        <ele>2200</ele>
        <time>2021-07-15T16:11:03Z</time>
      </trkpt>
      <trkpt lat="45.1364" lon="6.61565">
        <ele>2200</ele>
        <time>2021-07-15T16:11:08Z</time>
      </trkpt>
      <trkpt lat="45.1365" lon="6.61574">
        <ele>2199</ele>
        <time>2021-07-15T16:11:18Z</time>
      </trkpt>
      <trkpt lat="45.13666" lon="6.61599">
        <ele>2197</ele>
        <time>2021-07-15T16:11:38Z</time>
      </trkpt>
      <trkpt lat="45.13678" lon="6.61602">
        <ele>2195</ele>
        <time>2021-07-15T16:11:48Z</time>
      </trkpt>
      <trkpt lat="45.13681" lon="6.61597">
        <ele>2193</ele>
        <time>2021-07-15T16:12:44Z</time>
      </trkpt>
      <trkpt lat="45.13684" lon="6.61607">
        <ele>2193</ele>
        <time>2021-07-15T16:13:01Z</time>
      </trkpt>
    </trkseg>
  </trk>
  <rte>
    <name><![CDATA[4 avr. 2019 à 23:11:12]]></name>
    <cmt><![CDATA[4 avr. 2019 à 23:11:12]]></cmt>
    <desc><![CDATA[{DC1}Heure de fin	: 
Durée totale	: 0h00:00
Moyenne globale	: -
Pente moyenne	: 0.00 %
Aire incluse	: 7.4932 ha
Détails par segments
distance  | durée    | vit.moy. | vit.max. | déniv. + | déniv -
   km     | hh:mn:ss |   km/h   |   km/h   |    m     |    m
     0.81 | 00:00:00 |      0.0 |      0.0 |        0 |        0{DC2}]]></desc>
      <rtept lat="45.60077" lon="6.18221">
        <ele>1608.6</ele>
      </rtept>
      <rtept lat="45.59468" lon="6.1822">
        <ele>1760.9</ele>
      </rtept>
      <rtept lat="45.59468" lon="6.1822">
        <ele>1760.9</ele>
      </rtept>
    </rte>
  <rte>
    <name><![CDATA[10 févr. 2019 à 15:16:12]]></name>
    <cmt><![CDATA[10 févr. 2019 à 15:16:12]]></cmt>
    <desc><![CDATA[{DC1}Heure de fin	: 00:09:21
Durée totale	: -17690439h43:48
Moyenne globale	: -
Pente moyenne	: 7.00 %
Aire incluse	: 221.0936 ha
Détails par segments
distance  | durée    | vit.moy. | vit.max. | déniv. + | déniv -
   km     | hh:mn:ss |   km/h   |   km/h   |    m     |    m
     7.48 | 00:00:00 |      0.0 |      0.0 |        0 |        0{DC2}]]></desc>
      <rtept lat="45.55203" lon="5.93805">
        <ele>376</ele>
      </rtept>
      <rtept lat="45.55177" lon="5.93873">
        <ele>369</ele>
      </rtept>
      <rtept lat="45.55176" lon="5.93942">
        <ele>367</ele>
      </rtept>
      <rtept lat="45.55105" lon="5.93942">
        <ele>367</ele>
      </rtept>
      <rtept lat="45.54993" lon="5.93908">
        <ele>371</ele>
      </rtept>
      <rtept lat="45.54929" lon="5.94099">
        <ele>370</ele>
      </rtept>
      <rtept lat="45.54908" lon="5.94204">
        <ele>367</ele>
      </rtept>
      <rtept lat="45.54991" lon="5.94287">
        <ele>365</ele>
      </rtept>
      <rtept lat="45.5506" lon="5.94384">
        <ele>361</ele>
      </rtept>
      <rtept lat="45.55147" lon="5.94384">
        <ele>357</ele>
      </rtept>
      <rtept lat="45.55129" lon="5.94607">
        <ele>358</ele>
      </rtept>
      <rtept lat="45.55029" lon="5.94809">
        <ele>355</ele>
      </rtept>
      <rtept lat="45.54884" lon="5.94886">
        <ele>346</ele>
      </rtept>
      <rtept lat="45.5477" lon="5.94931">
        <ele>342</ele>
      </rtept>
      <rtept lat="45.5468" lon="5.95004">
        <ele>339</ele>
      </rtept>
      <rtept lat="45.54596" lon="5.95133">
        <ele>340</ele>
      </rtept>
      <rtept lat="45.54446" lon="5.95195">
        <ele>343</ele>
      </rtept>
      <rtept lat="45.543" lon="5.95262">
        <ele>344</ele>
      </rtept>
      <rtept lat="45.54156" lon="5.95212">
        <ele>337</ele>
      </rtept>
      <rtept lat="45.54041" lon="5.95204">
        <ele>338</ele>
      </rtept>
      <rtept lat="45.53917" lon="5.95141">
        <ele>343</ele>
      </rtept>
      <rtept lat="45.53844" lon="5.95135">
        <ele>347</ele>
      </rtept>
      <rtept lat="45.53765" lon="5.9503">
        <ele>349</ele>
      </rtept>
      <rtept lat="45.5381" lon="5.94993">
        <ele>352</ele>
      </rtept>
      <rtept lat="45.53781" lon="5.94901">
        <ele>358</ele>
      </rtept>
      <rtept lat="45.53711" lon="5.94845">
        <ele>365</ele>
      </rtept>
      <rtept lat="45.53702" lon="5.94764">
        <ele>369</ele>
      </rtept>
      <rtept lat="45.53817" lon="5.94807">
        <ele>376</ele>
      </rtept>
      <rtept lat="45.53865" lon="5.94633">
        <ele>389</ele>
      </rtept>
      <rtept lat="45.53778" lon="5.94491">
        <ele>408</ele>
      </rtept>
      <rtept lat="45.53757" lon="5.94371">
        <ele>425</ele>
      </rtept>
      <rtept lat="45.53775" lon="5.94279">
        <ele>434</ele>
      </rtept>
      <rtept lat="45.53726" lon="5.94227">
        <ele>442</ele>
      </rtept>
      <rtept lat="45.53572" lon="5.94146">
        <ele>468</ele>
      </rtept>
      <rtept lat="45.53664" lon="5.94039">
        <ele>483</ele>
      </rtept>
      <rtept lat="45.53532" lon="5.93983">
        <ele>505</ele>
      </rtept>
      <rtept lat="45.53416" lon="5.93985">
        <ele>516</ele>
      </rtept>
      <rtept lat="45.5355" lon="5.93869">
        <ele>532</ele>
      </rtept>
      <rtept lat="45.5359" lon="5.93845">
        <ele>537</ele>
      </rtept>
      <rtept lat="45.5355" lon="5.93802">
        <ele>544</ele>
      </rtept>
      <rtept lat="45.53724" lon="5.93554">
        <ele>587</ele>
      </rtept>
      <rtept lat="45.53691" lon="5.93339">
        <ele>592</ele>
      </rtept>
      <rtept lat="45.5376" lon="5.93178">
        <ele>575</ele>
      </rtept>
      <rtept lat="45.53843" lon="5.93069">
        <ele>555</ele>
      </rtept>
      <rtept lat="45.53939" lon="5.93157">
        <ele>541</ele>
      </rtept>
      <rtept lat="45.54068" lon="5.93234">
        <ele>522</ele>
      </rtept>
      <rtept lat="45.54219" lon="5.93247">
        <ele>514</ele>
      </rtept>
      <rtept lat="45.54355" lon="5.93232">
        <ele>512</ele>
      </rtept>
      <rtept lat="45.54489" lon="5.9326">
        <ele>508</ele>
      </rtept>
      <rtept lat="45.54636" lon="5.93249">
        <ele>510</ele>
      </rtept>
      <rtept lat="45.54758" lon="5.93249">
        <ele>510</ele>
      </rtept>
      <rtept lat="45.54818" lon="5.93298">
        <ele>507</ele>
      </rtept>
      <rtept lat="45.54796" lon="5.93418">
        <ele>496</ele>
      </rtept>
      <rtept lat="45.5491" lon="5.93433">
        <ele>483</ele>
      </rtept>
      <rtept lat="45.55126" lon="5.9341">
        <ele>463</ele>
      </rtept>
      <rtept lat="45.55256" lon="5.93453">
        <ele>444</ele>
      </rtept>
      <rtept lat="45.55329" lon="5.93558">
        <ele>430</ele>
      </rtept>
      <rtept lat="45.55222" lon="5.93642">
        <ele>415</ele>
      </rtept>
      <rtept lat="45.55195" lon="5.93811">
        <ele>375</ele>
      </rtept>
    </rte>
  <rte>
    <name><![CDATA[10 févr. 2019 à 15:15:48]]></name>
    <cmt><![CDATA[10 févr. 2019 à 15:15:48]]></cmt>
    <desc><![CDATA[{DC1}Heure de fin	: 00:09:21
Durée totale	: -17690439h44:12
Moyenne globale	: -
Pente moyenne	: nan %
Aire incluse	: 0.0000 ha
Détails par segments
distance  | durée    | vit.moy. | vit.max. | déniv. + | déniv -
   km     | hh:mn:ss |   km/h   |   km/h   |    m     |    m
     0.00 | 00:00:00 |      0.0 |      0.0 |        0 |        0{DC2}]]></desc>
      <rtept lat="45.5175" lon="5.93483">
        <ele>732.3</ele>
      </rtept>
    </rte>
  <rte>
    <name><![CDATA[10 févr. 2019 à 15:06:08]]></name>
    <cmt><![CDATA[10 févr. 2019 à 15:06:08]]></cmt>
    <desc><![CDATA[{DC1}Heure de fin	: 
Durée totale	: 0h00:00
Moyenne globale	: -
Pente moyenne	: 8.03 %
Aire incluse	: 204.0794 ha
Détails par segments
distance  | durée    | vit.moy. | vit.max. | déniv. + | déniv -
   km     | hh:mn:ss |   km/h   |   km/h   |    m     |    m
    12.88 | 00:00:00 |      0.0 |      0.0 |        0 |        0{DC2}]]></desc>
      <rtept lat="45.5509" lon="5.9394">
        <ele>368</ele>
      </rtept>
      <rtept lat="45.55217" lon="5.93791">
        <ele>377</ele>
      </rtept>
    </rte>
  <rte>
    <name><![CDATA[10 févr. 2019 à 14:22:06]]></name>
    <cmt><![CDATA[10 févr. 2019 à 14:22:06]]></cmt>
    <desc><![CDATA[{DC1}Heure de fin	: 00:09:21
Durée totale	: -17690438h37:54
Moyenne globale	: -
Pente moyenne	: 5.62 %
Aire incluse	: 5.7967 ha
Détails par segments
distance  | durée    | vit.moy. | vit.max. | déniv. + | déniv -
   km     | hh:mn:ss |   km/h   |   km/h   |    m     |    m
     3.30 | 00:00:00 |      0.0 |      0.0 |        0 |        0{DC2}]]></desc>
      <rtept lat="45.55169" lon="5.93089">
        <ele>415</ele>
      </rtept>
      <rtept lat="45.5518" lon="5.93905">
        <ele>366</ele>
      </rtept>
    </rte>
  <rte>
    <name><![CDATA[10 févr. 2019 à 09:50:45]]></name>
    <cmt><![CDATA[10 févr. 2019 à 09:50:45]]></cmt>
    <desc><![CDATA[{DC1}Heure de fin	: 00:09:21
Durée totale	: -17690433h09:14
Moyenne globale	: -
Pente moyenne	: 0.00 %
Aire incluse	: 50.7119 ha
Détails par segments
distance  | durée    | vit.moy. | vit.max. | déniv. + | déniv -
   km     | hh:mn:ss |   km/h   |   km/h   |    m     |    m
     4.33 | 00:00:00 |      0.0 |      0.0 |        0 |        0{DC2}]]></desc>
      <rtept lat="45.5503" lon="5.93918">
        <ele>373.6</ele>
      </rtept>
      <rtept lat="45.55191" lon="5.93893">
        <ele>366.7</ele>
      </rtept>
    </rte>
  <rte>
    <name><![CDATA[10 févr. 2019 à 09:07:08]]></name>
    <cmt><![CDATA[10 févr. 2019 à 09:07:08]]></cmt>
    <desc><![CDATA[{DC1}Heure de fin	: 00:09:21
Durée totale	: -17690433h52:52
Moyenne globale	: -
Pente moyenne	: nan %
Aire incluse	: 0.0000 ha
Détails par segments
distance  | durée    | vit.moy. | vit.max. | déniv. + | déniv -
   km     | hh:mn:ss |   km/h   |   km/h   |    m     |    m
     0.00 | 00:00:00 |      0.0 |      0.0 |        0 |        0{DC2}]]></desc>
      <rtept lat="45.55102" lon="5.93919">
        <ele>370.1</ele>
      </rtept>
    </rte>
  <rte>
    <name><![CDATA[10 févr. 2019 à 09:02:25]]></name>
    <cmt><![CDATA[10 févr. 2019 à 09:02:25]]></cmt>
    <desc><![CDATA[{DC1}Heure de fin	: 00:09:21
Durée totale	: -17690433h57:35
Moyenne globale	: -
Pente moyenne	: nan %
Aire incluse	: 0.0000 ha
Détails par segments
distance  | durée    | vit.moy. | vit.max. | déniv. + | déniv -
   km     | hh:mn:ss |   km/h   |   km/h   |    m     |    m
     0.00 | 00:00:00 |      0.0 |      0.0 |        0 |        0{DC2}]]></desc>
      <rtept lat="45.55207" lon="5.93813">
        <ele>375.2</ele>
      </rtept>
    </rte>
  <rte>
    <name><![CDATA[10 févr. 2019 à 09:00:27]]></name>
    <cmt><![CDATA[10 févr. 2019 à 09:00:27]]></cmt>
    <desc><![CDATA[{DC1}Heure de fin	: 00:09:21
Durée totale	: -17690433h59:32
Moyenne globale	: -
Pente moyenne	: nan %
Aire incluse	: 0.0000 ha
Détails par segments
distance  | durée    | vit.moy. | vit.max. | déniv. + | déniv -
   km     | hh:mn:ss |   km/h   |   km/h   |    m     |    m
     0.00 | 00:00:00 |      0.0 |      0.0 |        0 |        0{DC2}]]></desc>
      <rtept lat="45.55244" lon="5.93858">
        <ele>366.6</ele>
      </rtept>
    </rte>
</gpx>